     2.11           OBSERVATION DATA    G (GPS)             RINEX VERSION / TYPE
teqc 2010Oct21 OPUS Account 20111028 17:11:41UTC            PGM / RUN BY / DATE
Z 1527                                                      MARKER NAME
3084                                                        MARKER NUMBER
CSMIDDLETON NGS                                             OBSERVER / AGENCY
4619K01307 TRIMBLE NETR5 4.41                               REC # / TYPE / VERS
12668873 TRM41249.00 NONE                                   ANT # / TYPE
  -701391.2070 -5594950.2514  2970776.0862                  APPROX POSITION XYZ
        1.9990        0.0000        0.0000                  ANTENNA: DELTA H/E/N
     1     1                                                WAVELENGTH FACT L1/2
     5    L1    L2    C1    P1    P2                        # / TYPES OF OBSERV
    15                                                      LEAP SECONDS
  2011     8    25    16    38   30.0000000     GPS         TIME OF FIRST OBS
                                                            END OF HEADER
 11  8 25 16 38 30.0000000  0 11G06G23G08G10G19G11G16G03G13G07G28
 128191110.14516                  24394002.516
 114386300.40818  89132204.15955  21766989.250                    21766997.023
 120016134.64917  93519116.51454  22838317.063                    22838326.184
 129232839.28316                  24592207.805
 110539507.39618  86134714.01356  21034971.828                    21034978.645
 122405914.83417  95381277.71754  23293076.016                    23293084.676
 130691152.22815                  24869746.938
 117592635.47717  91630677.36054  22377140.414                    22377150.004
 107546807.43518  83802797.08356  20465493.141                    20465500.664
 111494066.59118  86878480.86017  21216608.578                    21216616.418
 123733343.40717  96415634.11153  23545670.250                    23545680.449
 11  8 25 16 39  0.0000000  0 10G06G23G08G10G19G11G03G13G07G28
 128288747.543 6  99965483.32253  24412582.203                    24412592.797
 114481087.578 8  89206064.21145  21785026.625                    21785034.410
 119943921.741 7  93462846.77644  22824575.547                    22824584.648
 129281455.490 6 100738902.05753  24601458.305                    24601470.020
 110569360.367 8  86157976.06746  21040653.125                    21040659.625
 122329553.227 7  95321775.26044  23278545.391                    23278554.422
 117683558.359 7  91701526.32044  22394442.477                    22394452.715
 107598559.533 8  83843123.35346  20475341.383                    20475349.598
 111445268.138 8  86840456.094 7  21207322.742                    21207330.887
 123682150.272 7  96375743.42443  23535929.008                    23535937.840
 11  8 25 16 39 30.0000000  0 10G06G23G08G10G19G11G03G13G07G28
 128386571.423 6 100041709.63043  24431198.313                    24431208.402
 114576206.967 8  89280183.14345  21803127.094                    21803135.461
 119871683.607 7  93406557.32544  22810828.570                    22810838.254
 129330287.839 6 100776953.15943  24610751.281                    24610762.523
 110599806.919 8  86181700.63346  21046446.563                    21046453.648
 122253297.457 7  95262355.25744  23264034.141                    23264043.395
 117774820.193 7  91772639.36644  22411809.172                    22411819.152
 107650858.169 8  83883875.50946  20485293.578                    20485301.828
 111396609.721 8  86802540.447 7  21198063.367                    21198071.551
 123631166.045 7  96336015.45744  23526226.203                    23526236.137
 11  8 25 16 40  0.0000000  0 10G06G23G08G10G19G11G03G13G07G28
 128484578.538 6 100118078.71043  24449848.305                    24449858.660
 114671656.131 8  89354559.04145  21821290.563                    21821298.891
 119799421.674 7  93350249.33744  22797077.938                    22797087.285
 129379334.131 6 100815171.00443  24620084.438                    24620096.586
 110630845.305 8  86205886.37146  21052352.961                    21052359.691
 122177150.404 7  95203019.95344  23249543.680                    23249553.406
 117866417.604 7  91844013.91544  22429239.734                    22429249.406
 107703701.831 8  83925052.34846  20495349.094                    20495357.582
 111348092.482 8  86764734.804 7  21188830.406                    21188838.684
 123580390.533 6  96296450.19544  23516564.070                    23516574.230
 11  8 25 16 40 30.0000000  0 10G06G23G08G10G19G11G03G13G07G28
 128582767.359 6 100194589.41243  24468532.578                    24468543.453
 114767432.994 7  89429190.28945  21839516.328                    21839524.191
 119727137.348 7  93293923.90645  22783322.320                    22783332.465
 129428592.028 6 100853553.66643  24629458.055                    24629470.242
 110662475.451 8  86230533.22746  21058372.180                    21058378.672
 122101115.715 7  95143772.19644  23235074.773                    23235084.703
 117958348.488 7  91915648.30644  22446733.617                    22446743.918
 107757089.674 8  83966653.23146  20505508.586                    20505516.781
 111299719.359 8  86727041.473 7  21179625.297                    21179633.734
 123529823.909 7  96257047.67744  23506941.570                    23506951.992
 11  8 25 16 41  0.0000000  0 10G06G23G08G10G19G11G03G13G07G28
 128681134.683 6 100271239.18243  24487252.172                    24487262.238
 114863534.263 8  89504074.31845  21857803.703                    21857811.457
 119654831.133 7  93237581.43444  22769563.016                    22769572.934
 129478058.399 6 100892098.82043  24638871.578                    24638883.387
 110694695.293 8  86255639.57846  21064503.125                    21064509.883
 122025195.950 7  95084613.99044  23220627.141                    23220637.141
 118050609.507 7  91987539.94544  22464290.188                    22464300.395
 107811019.295 8  84008676.26746  20515770.758                    20515779.191
 111251491.238 8  86689461.128 7  21170447.977                    21170456.402
 123479464.947 7  96217806.98344  23497358.938                    23497368.520
 11  8 25 16 41 30.0000000  0 10G06G23G08G10G19G11G03G13G07G28
 128779678.688 6 100348026.62443  24506003.578                    24506014.477
 114959957.580 8  89579209.30645  21876152.578                    21876160.484
 119582504.547 7  93181223.07744  22755799.891                    22755810.008
 129527730.897 6 100930804.61842  24648323.375                    24648335.570
 110727504.512 8  86281205.18046  21070746.820                    21070753.793
 121949394.628 7  95025548.08744  23206202.977                    23206212.746
 118143198.529 7  92059687.16244  22481909.766                    22481918.988
 107865489.836 8  84051120.81546  20526136.492                    20526145.215
 111203410.563 8  86651995.681 7  21161298.539                    21161306.992
 123429314.300 7  96178728.58744  23487815.852                    23487824.754
 11  8 25 16 42  0.0000000  0 10G06G23G08G10G19G11G03G13G07G28
 128878396.710 6 100424949.69743  24524789.133                    24524800.543
 115056700.184 8  89654593.07545  21894562.227                    21894570.262
 119510158.966 7  93124849.91544  22742032.531                    22742042.730
 129577606.721 6 100969668.84742  24657814.602                    24657826.543
 110760901.275 8  86307228.61746  21077102.016                    21077108.969
 121873714.676 7  94966576.75944  23191801.492                    23191811.629
 118236112.225 7  92132087.37844  22499590.711                    22499600.281
 107920499.492 8  84093985.45246  20536604.117                    20536612.730
 111155478.563 8  86614646.080 7  21152177.281                    21152185.480
 123379371.021 7  96139811.75144  23478311.281                    23478321.344
 11  8 25 16 42 30.0000000  0 10G06G23G08G10G19G11G03G13G07G28
 128977286.257 5 100502006.38742  24543607.453                    24543618.547
 115153759.366 7  89730223.52545  21913031.930                    21913039.969
 119437795.133 7  93068462.53345  22728262.641                    22728272.230
 129627683.615 6 101008689.69743  24667343.070                    24667356.270
 110794884.423 8  86333708.98146  21083568.609                    21083575.539
 121798159.060 6  94907702.33244  23177423.398                    23177433.898
 118329347.798 7  92204738.41044  22517332.883                    22517342.445
 107976046.716 8  84137268.96146  20547174.750                    20547183.070
 111107696.896 8  86577413.610 7  21143084.680                    21143092.902
 123329634.421 7  96101056.01644  23468846.398                    23468857.078
 11  8 25 16 43  0.0000000  0 10G06G23G08G10G19G11G03G13G07G28
 129076344.809 6 100579194.74043  24562457.219                    24562468.453
 115251132.136 7  89806098.33345  21931561.289                    21931569.414
 119365414.411 7  93012061.99245  22714489.156                    22714498.875
 129677958.495 6 101047864.88542  24676911.164                    24676923.414
 110829452.551 8  86360645.16846  21090146.703                    21090153.262
 121722731.038 7  94848927.33444  23163069.945                    23163080.016
 118422902.289 7  92277637.96844  22535135.391                    22535145.219
 108032129.701 8  84180969.95246  20557846.922                    20557855.531
 111060067.420 8  86540299.735 7  21134020.758                    21134029.227
 123280103.976 7  96062460.88344  23459421.703                    23459431.383
 11  8 25 16 43 30.0000000  0 10G06G23G08G10G19G11G03G13G07G28
 129175569.843 6 100656512.87343  24581340.188                    24581350.121
 115348815.529 7  89882215.18545  21950150.078                    21950157.574
 119293017.636 7  92955648.94044  22700712.648                    22700722.086
 129728428.676 6 101087192.23743  24686515.055                    24686527.152
 110864604.211 8  86388036.05546  21096836.000                    21096843.008
 121647433.591 6  94790254.07244  23148741.109                    23148751.477
 118516772.910 7  92350783.85144  22552998.570                    22553008.117
 108088746.577 8  84225086.95846  20568620.867                    20568628.922
 111012591.939 8  86503305.850 7  21124986.852                    21124995.551
 123230779.180 7  96024026.01444  23450035.047                    23450045.613
 11  8 25 16 44  0.0000000  0 10G06G23G08G10G19G11G03G13G07G28
 129274958.709 6 100733958.69243  24600253.984                    24600263.586
 115446807.024 7  89958572.10245  21968797.719                    21968804.996
 119220605.999 7  92899224.31745  22686933.031                    22686942.875
 129779091.451 6 101126669.65542  24696155.758                    24696167.875
 110900338.164 8  86415880.68646  21103635.797                    21103642.578
 121572269.377 7  94731684.63244  23134437.977                    23134448.043
 118610957.012 7  92424173.99744  22570921.031                    22570931.176
 108145895.564 8  84269618.60046  20579495.898                    20579504.477
 110965272.017 8  86466433.190 7  21115982.125                    21115990.590
 123181659.595 7  95985751.04244  23440688.289                    23440697.555
 11  8 25 16 44 30.0000000  0 10G06G23G08G10G19G11G03G13G07G28
 129374509.137 6 100811530.36143  24619197.375                    24619208.063
 115545103.747 7  90035166.87745  21987502.883                    21987511.559
 119148180.590 7  92842788.96545  22673150.531                    22673160.785
 129829944.004 6 101166294.93242  24705832.734                    24705844.789
 110936652.860 8  86444177.83546  21110546.484                    21110553.145
 121497241.707 7  94673221.58444  23120160.672                    23120170.449
 118705451.415 7  92497805.93644  22588902.844                    22588913.027
 108203575.077 8  84314563.63946  20590472.008                    20590480.113
 110918109.206 8  86429682.944 7  21107007.406                    21107015.766
 123132744.577 7  95947635.48444  23431379.906                    23431389.914
 11  8 25 16 45  0.0000000  0 10G06G23G08G10G19G11G03G13G07G28
 129474218.521 6 100889225.94043  24638171.203                    24638182.113
 115643703.240 7  90111997.57445  22006265.672                    22006273.723
 119075742.594 7  92786343.79145  22659365.945                    22659375.832
 129880983.580 6 101206065.96743  24715545.547                    24715557.590
 110973546.957 7  86472926.47146  21117567.367                    21117574.160
 121422353.500 7  94614867.17544  23105910.313                    23105919.594
 118800253.214 7  92571677.40044  22606943.703                    22606953.020
 108261783.089 8  84359920.48846  20601548.531                    20601556.813
 110871105.280 8  86393056.517 7  21098063.094                    21098071.484
 123084033.471 7  95909678.80744  23422110.273                    23422120.598
 11  8 25 16 45 30.0000000  0 10G06G23G08G10G19G11G03G13G07G28
 129574084.683 6 100967043.62143  24657174.875                    24657186.031
 115742602.220 7  90189061.62745  22025085.625                    22025093.387
 119003293.496 7  92729889.95545  22645579.305                    22645589.336
 129932207.690 6 101245980.80743  24725293.156                    24725305.055
 111011019.171 8  86502125.58346  21124697.750                    21124704.898
 121347607.951 7  94556623.95944  23091686.813                    23091696.395
 118895359.622 7  92645786.23044  22625041.102                    22625051.672
 108320518.367 8  84405688.19946  20612725.602                    20612733.523
 110824261.978 8  86356555.244 7  21089148.578                    21089157.066
 123035525.879 7  95871880.74044  23412879.078                    23412889.098
 11  8 25 16 46  0.0000000  0 10G06G23G08G10G19G11G03G13G07G28
 129674104.961 6 101044981.40543  24676208.695                    24676219.488
 115841798.126 7  90266357.07345  22043961.859                    22043970.168
 118930834.658 7  92673428.54145  22631790.938                    22631800.535
 129983613.523 6 101286037.21642  24735075.313                    24735087.781
 111049067.972 8  86531773.99246  21131938.234                    21131945.273
 121273008.118 7  94498494.27444  23077490.773                    23077499.754
 118990767.479 7  92720129.94744  22643196.508                    22643206.703
 108379778.853 8  84451865.16046  20624002.625                    20624010.996
 110777581.161 8  86320180.591 7  21080265.617                    21080274.109
 122987221.375 6  95834240.89344  23403687.594                    23403697.582
 11  8 25 16 46 30.0000000  0 10G06G23G08G10G19G11G03G13G07G28
 129774276.960 6 101123037.43843  24695271.172                    24695281.770
 115941288.025 7  90343881.57745  22062894.344                    22062902.504
 118858366.839 7  92616960.15245  22618000.617                    22618010.508
 130035198.237 6 101326233.06843  24744891.805                    24744904.535
 111087691.925 8  86561870.55946  21139288.398                    21139294.941
 121198556.885 7  94440480.37544  23063322.813                    23063331.992
 119086474.378 7  92794706.68544  22661409.797                    22661419.207
 108439562.478 8  84498449.77046  20635378.898                    20635387.527
 110731064.633 8  86283933.938 7  21071414.195                    21071422.355
 122939119.048 7  95796758.62344  23394533.695                    23394544.063
 11  8 25 16 47  0.0000000  0 10G06G23G08G10G19G11G03G13G07G28
 129874598.148 6 101201209.68843  24714361.000                    24714371.965
 116041068.967 7  90421632.87745  22081882.234                    22081890.559
 118785891.133 7  92560485.60045  22604209.031                    22604218.477
 130086959.061 6 101366566.09542  24754741.797                    24754753.684
 111126889.087 8  86592413.78746  21146747.391                    21146754.266
 121124257.305 7  94382584.66544  23049184.266                    23049193.590
 119182477.522 6  92869514.26044  22679678.445                    22679688.594
 108499867.523 8  84545440.67346  20646854.594                    20646863.387
 110684714.201 8  86247816.730 7  21062593.680                    21062601.922
 122891218.612 7  95759433.65744  23385418.359                    23385428.574
 11  8 25 16 47 30.0000000  0 11G06G23G08G10G19G11G01G03G13G07G28
 129975065.977 6 101279496.21043  24733479.344                    24733490.328
 116141138.322 7  90499608.91445  22100924.961                    22100932.902
 118713409.040 7  92504006.06045  22590416.234                    22590426.020
 130138893.385 6 101407034.33342  24764624.281                    24764637.445
 111166658.070 8  86623402.58546  21154314.883                    21154322.266
 121050112.530 7  94324809.57943  23035074.984                    23035084.395
 129754585.57215                  24691501.078
 119278773.738 7  92944550.20044  22698002.742                    22698013.324
 108560692.248 8  84592836.51846  20658429.117                    20658437.801
 110638531.359 8  86211830.105 7  21053805.656                    21053813.590
 122843519.206 7  95722265.32044  23376341.578                    23376351.629
 11  8 25 16 48  0.0000000  0 11G06G23G08G10G19G11G01G03G13G07G28
 130075678.275 6 101357895.33743  24752625.344                    24752636.586
 116241493.328 7  90577807.53345  22120021.688                    22120029.969
 118640921.707 7  92447522.43345  22576622.617                    22576631.898
 130190998.172 5 101447635.39142  24774539.094                    24774551.898
 111206997.781 8  86654836.11346  21161991.508                    21161998.254
 120976125.473 7  94267157.37744  23020995.492                    23021004.992
 129680217.61416 101049696.58516  24677349.594                    24677366.211
 119375359.997 7  93019812.12644  22716383.039                    22716392.453
 108622034.513 8  84640635.64546  20670102.148                    20670110.773
 110592517.958 8  86175975.510 7  21045049.531                    21045057.773
 122796020.387 7  95685253.31444  23367303.109                    23367312.875
 11  8 25 16 48 30.0000000  0 11G06G23G08G10G19G11G01G03G13G07G28
 130176431.903 6 101436404.61242  24771799.852                    24771809.465
 116342130.669 7  90656226.14945  22139172.281                    22139180.180
 118568430.042 7  92391035.44845  22562827.844                    22562837.605
 130243270.827 6 101488367.27742  24784486.828                    24784498.832
 111247905.720 7  86686712.41046  21169776.070                    21169783.000
 120902299.144 7  94209630.42544  23006946.508                    23006956.609
 129605730.238 6 100991654.503 6  24663175.180                    24663191.336
 119472233.464 7  93095297.90144  22734817.133                    22734827.359
 108683892.159 8  84688836.36946  20681873.492                    20681882.141
 110546675.448 8  86140254.060 7  21036325.852                    21036334.059
 122748721.154 7  95648396.83544  23358302.547                    23358312.430
 11  8 25 16 49  0.0000000  0 11G06G23G08G10G19G11G01G03G13G07G28
 130277325.121 6 101515022.59643  24790998.438                    24791009.520
 116443047.727 7  90734862.72645  22158376.195                    22158384.727
 118495935.443 7  92334546.17645  22549032.695                    22549041.801
 130295708.565 6 101529227.81542  24794465.117                    24794477.973
 111289380.694 8  86719030.55446  21177668.383                    21177675.363
 120828636.558 7  94152231.09944  22992928.961                    22992938.703
 129531126.116 6 100933521.515 6  24648977.477                    24648994.801
 119569391.467 7  93171005.36344  22753305.313                    22753315.355
 108746263.432 8  84737437.31446  20693742.141                    20693751.133
 110501005.814 8  86104667.339 7  21027635.203                    21027643.715
 122701621.131 7  95611695.55144  23349339.453                    23349348.883
 11  8 25 16 49 30.0000000  0 11G06G23G08G10G19G11G01G03G13G07G28
 130378355.128 6 101593747.21343  24810224.078                    24810234.727
 116544241.598 7  90813715.00445  22177633.094                    22177640.879
 118423439.175 7  92278055.59445  22535236.750                    22535246.637
 130348308.746 6 101570214.88342  24804474.648                    24804487.293
 111331421.006 7  86751789.21646  21185668.273                    21185675.328
 120755140.850 7  94094961.77944  22978943.070                    22978953.008
 129456407.639 6 100875299.383 6  24634759.828                    24634776.199
 119666830.892 7  93246932.12644  22771847.609                    22771858.176
 108809146.348 8  84786436.94246  20705708.594                    20705717.207
 110455511.092 8  86069216.906 7  21018977.742                    21018986.023
 122654719.820 7  95575149.12644  23340414.352                    23340424.109
 11  8 25 16 50  0.0000000  0 11G06G23G08G10G19G11G01G03G13G07G28
 130479519.577 5 101672576.55143  24829473.469                    24829486.090
 116645709.418 7  90892780.74345  22196941.648                    22196949.926
 118350942.476 7  92221564.67645  22521441.195                    22521450.387
 130401068.364 6 101611326.23042  24814514.742                    24814527.434
 111374025.082 7  86784987.18146  21193775.484                    21193782.266
 120681815.190 7  94037824.97344  22964989.789                    22964999.715
 129381577.234 5 100816990.065 6  24620518.844                    24620536.453
 119764549.018 7  93323076.06044  22790443.188                    22790453.152
 108872539.056 8  84835833.82146  20717771.664                    20717780.352
 110410192.856 7  86033903.983 7  21010354.203                    21010362.254
 122608016.472 6  95538756.94944  23331526.930                    23331536.438
 11  8 25 16 50 30.0000000  0 11G06G23G08G10G19G11G01G03G13G07G28
 130580815.947 5 101751508.68742  24848750.586                    24848762.188
 116747448.418 7  90972057.77845  22216302.055                    22216309.715
 118278447.100 7  92165074.79045  22507645.422                    22507655.281
 130453984.753 6 101652559.76542  24824584.781                    24824597.277
 111417191.242 8  86818623.12846  21201990.148                    21201996.816
 120608662.359 7  93980822.83044  22951069.758                    22951079.117
 129306637.819 6 100758595.825 6  24606258.914                    24606275.578
 119862542.843 7  93399434.81844  22809090.672                    22809100.742
 108936439.525 8  84885626.34846  20729931.688                    20729940.137
 110365052.977 8  85998730.043 7  21001764.305                    21001772.938
 122561510.560 7  95502518.61944  23322676.586                    23322687.148
 11  8 25 16 51  0.0000000  0 11G06G23G08G10G19G11G01G03G13G07G28
 130682242.058 6 101830541.91942  24868051.008                    24868063.082
 116849455.477 7  91051543.71145  22235713.508                    22235721.281
 118205954.230 7  92108586.86245  22493850.906                    22493860.332
 130507055.210 6 101693913.26942  24834683.336                    24834695.980
 111460917.926 7  86852695.84346  21210310.898                    21210317.703
 120535685.656 7  93923957.94844  22937182.156                    22937192.105
 129231591.565 6 100700118.306 6  24591978.852                    24591994.965
 119960809.451 7  93476006.11144  22827790.078                    22827800.566
 109000845.472 8  84935812.75746  20742187.969                    20742196.148
 110320093.061 8  85963696.346 7  20993209.008                    20993216.879
 122515201.390 7  95466433.60544  23313864.445                    23313874.871
 11  8 25 16 51 30.0000000  0 11G24G23G08G10G19G11G01G03G13G07G28
 128155168.73216                  24387123.836
 116951728.625 7  91131236.98045  22255175.672                    22255183.387
 118133465.719 7  92052102.31645  22480057.063                    22480066.195
 130560277.549 6 101735385.16543  24844811.336                    24844823.801
 111505203.944 8  86887204.40846  21218738.086                    21218744.969
 120462888.758 7  93867233.15444  22923329.102                    22923339.332
 129156441.727 6 100641560.103 7  24577677.930                    24577694.316
 120059346.731 7  93552788.31344  22846541.672                    22846551.938
 109065756.097 8  84986392.42046  20754540.031                    20754548.730
 110275315.892 8  85928805.043 7  20984687.820                    20984696.379
 122469088.961 7  95430501.86244  23305089.625                    23305099.844
 11  8 25 16 52  0.0000000  0 11G24G23G08G10G19G11G01G03G13G07G28
 128083761.795 5  99805609.33252  24373534.367                    24373550.449
 117054263.993 7  91211134.57645  22274687.570                    22274695.332
 118060981.324 7  91995620.98245  22466263.289                    22466273.262
 130613648.118 6 101776972.56242  24854967.109                    24854980.176
 111550046.287 8  86922146.47046  21227271.555                    21227278.688
 120390273.617 7  93810650.00144  22909511.406                    22909520.918
 129081190.677 6 100582923.021 6  24563357.930                    24563375.453
 120158150.720 6  93629778.35944  22865343.469                    22865353.234
 109131167.546 8  85037362.33146  20766987.563                    20766996.102
 110230721.772 8  85894056.385 7  20976201.836                    20976210.180
 122423171.395 7  95394721.98644  23296351.688                    23296361.281
 11  8 25 16 52 30.0000000  0 11G24G23G08G10G19G11G01G03G13G07G28
 128012274.665 5  99749905.25342  24359931.563                    24359947.445
 117157058.954 7  91291234.45745  22294248.711                    22294256.977
 117988503.257 7  91939144.58645  22452471.273                    22452481.324
 130667164.530 6 101818673.55942  24865151.344                    24865163.637
 111595443.517 8  86957520.91446  21235910.320                    21235917.133
 120317843.565 7  93754211.07844  22895728.133                    22895738.301
 129005840.766 6 100524208.916 6  24549018.750                    24549036.430
 120257218.848 7  93706974.23744  22884195.078                    22884205.891
 109197078.399 8  85088721.39646  20779529.945                    20779538.797
 110186313.106 8  85859452.232 7  20967750.969                    20967759.484
 122377448.601 7  95359093.87944  23287651.367                    23287660.578
 11  8 25 16 53  0.0000000  0 11G24G23G08G10G19G11G01G03G13G07G28
 127940709.744 5  99694140.47843  24346312.297                    24346328.480
 117260110.000 7  91371533.88245  22313858.859                    22313867.074
 117916032.613 7  91882673.98645  22438680.648                    22438690.297
 130720823.271 6 101860485.51742  24875361.578                    24875374.281
 111641393.545 8  86993326.10846  21244654.203                    21244661.078
 120245601.352 7  93697918.49844  22881980.414                    22881991.039
 128930393.697 6 100465419.076 6  24534662.516                    24534679.457
 120356548.102 6  93784373.58144  22903097.016                    22903107.602
 109263485.983 8  85140467.51946  20792166.711                    20792175.629
 110142091.281 8  85824993.667 7  20959335.992                    20959344.898
 122331919.626 7  95323616.77344  23278987.453                    23278996.758
 11  8 25 16 53 30.0000000  0 11G24G23G08G10G19G11G01G03G13G07G28
 127869070.069 6  99638317.46443  24332680.039                    24332695.902
 117363414.743 7  91452030.98645  22333516.859                    22333525.094
 117843570.615 7  91826210.10245  22424891.711                    22424900.871
 130774622.362 6 101902406.77742  24885599.836                    24885612.793
 111687895.224 7  87029561.15746  21253503.117                    21253510.414
 120173550.489 7  93641775.04044  22868270.133                    22868279.816
 128854853.257 6 100406556.553 6  24520286.672                    24520304.090
 120456135.829 6  93861974.32444  22922047.898                    22922058.422
 109330389.004 8  85192599.69646  20804898.039                    20804906.848
 110098058.479 8  85790682.394 7  20950956.945                    20950965.352
 122286583.773 7  95288290.16944  23270360.094                    23270369.219
 11  8 25 16 54  0.0000000  0 11G24G23G08G10G19G11G01G03G13G07G28
 127797358.107 6  99582438.11043  24319034.172                    24319049.262
 117466970.052 7  91532723.33545  22353222.938                    22353231.242
 117771118.842 7  91769754.18545  22411104.398                    22411113.504
 130828558.796 6 101944435.13743  24895863.539                    24895875.938
 111734946.305 8  87066224.30846  21262456.555                    21262464.059
 120101693.696 7  93585782.80144  22854596.211                    22854605.555
 128779222.114 6 100347623.268 6  24505894.891                    24505911.996
 120555978.854 6  93939774.01544  22941047.133                    22941057.625
 109397784.714 8  85245115.78646  20817723.117                    20817731.684
 110054216.633 8  85756519.917 7  20942614.195                    20942622.426
 122241440.282 7  95253113.44244  23261769.047                    23261779.031
 11  8 25 16 54 30.0000000  0 11G24G23G08G10G19G11G01G03G13G07G28
 127725576.521 6  99526504.53543  24305374.984                    24305389.957
 117570773.087 7  91613608.71545  22372976.219                    22372984.281
 117698678.481 7  91713307.17645  22397319.352                    22397329.262
 130882629.453 6 101986568.08042  24906153.297                    24906165.336
 111782544.894 8  87103314.09246  21271514.617                    21271521.840
 120030033.805 7  93529943.95244  22840959.414                    22840969.086
 128703502.428 6 100288621.050 6  24491485.492                    24491502.660
 120656074.478 7  94017770.52944  22960095.438                    22960105.680
 109465671.014 8  85298014.14546  20830641.484                    20830650.266
 110010567.221 8  85722507.385 7  20934307.672                    20934316.211
 122196488.657 7  95218086.22744  23253215.609                    23253224.926
 11  8 25 16 55  0.0000000  0 11G24G23G08G10G19G11G01G03G13G07G28
 127653728.084 6  99470518.82043  24291702.930                    24291717.262
 117674821.308 7  91694685.14945  22392775.844                    22392784.113
 117626251.041 7  91656870.22945  22383537.141                    22383546.555
 130936831.620 6 102028803.48242  24916467.734                    24916479.738
 111830689.116 8  87140829.04246  21280675.891                    21280682.926
 119958574.302 7  93474261.29444  22827360.961                    22827370.902
 128627696.456 6 100229551.586 6  24477059.969                    24477076.855
 120756419.697 6  94095961.51643  22979189.914                    22979200.375
 109534046.018 8  85351293.31946  20843652.742                    20843661.586
 109967111.995 8  85688646.171 7  20926039.039                    20926046.996
 122151728.156 7  95183207.93444  23244698.273                    23244707.883
 11  8 25 16 55 30.0000000  0 10G24G23G08G19G11G01G03G13G07G28
 127581816.591 6  99414483.98943  24278018.414                    24278033.004
 117779112.505 7  91775950.92245  22412621.805                    22412629.656
 117553839.125 7  91600445.38245  22369757.336                    22369767.195
 111879378.134 7  87178768.50946  21289941.125                    21289948.258
 119887319.558 7  93418738.14644  22813801.305                    22813811.313
 128551809.066 6 100170418.655 6  24462618.453                    24462635.480
 120857012.826 7  94174345.71243  22998332.609                    22998342.922
 109602908.463 8  85404952.32846  20856756.984                    20856765.668
 109923854.308 8  85654938.889 7  20917807.211                    20917815.254
 122107159.132 7  95148478.85744  23236216.742                    23236226.207
 11  8 25 16 56  0.0000000  0 10G24G23G08G19G11G01G03G13G07G28
 127509843.847 6  99358401.44043  24264322.461                    24264336.012
 117883642.595 7  91857402.84645  22432513.406                    22432521.641
 117481443.094 7  91544032.91545  22355981.297                    22355990.105
 111928609.147 7  87217130.31346  21299309.438                    21299316.738
 119816270.568 7  93363375.32844  22800281.352                    22800290.805
 128475841.252 6 100111223.105 5  24448163.000                    24448178.949
 120957850.384 6  94252920.35343  23017521.172                    23017531.047
 109672255.119 8  85458988.62946  20869953.047                    20869962.223
 109880794.864 8  85621386.076 7  20909613.078                    20909621.340
 122062779.681 7  95113897.49244  23227771.719                    23227781.465
 11  8 25 16 56 30.0000000  0 10G24G23G08G19G11G01G03G13G07G28
 127437812.198 6  99302272.99443  24250615.063                    24250629.148
 117988408.448 7  91939038.45845  22452449.797                    22452457.895
 117409063.781 7  91487633.46945  22342207.148                    22342216.969
 111978379.565 7  87255912.43746  21308780.648                    21308787.777
 119745430.979 7  93308175.68344  22786801.523                    22786810.633
 128399795.088 6 100051966.465 5  24433691.719                    24433707.523
 121058928.510 7  94331682.44543  23036755.297                    23036766.098
 109742083.256 8  85513400.11246  20883241.188                    20883250.258
 109837935.090 8  85587988.847 7  20901457.016                    20901465.355
 122018588.996 7  95079463.21044  23219362.555                    23219372.332
 11  8 25 16 57  0.0000000  0 10G24G23G08G19G11G01G03G13G07G28
 127365724.524 6  99246100.93443  24236896.219                    24236910.336
 118093407.405 7  92020855.72145  22472430.570                    22472438.621
 117336703.157 7  91431248.58045  22328437.836                    22328446.844
 112028688.328 7  87295114.04146  21318353.969                    21318361.496
 119674803.901 7  93253141.62944  22773361.336                    22773370.660
 128323674.154 6  99992651.585 5  24419206.406                    24419221.508
 121160244.783 7  94410630.10543  23056035.758                    23056046.176
 109812391.348 8  85568185.59146  20896620.398                    20896628.754
 109795277.248 8  85554748.973 7  20893339.367                    20893347.777
 121974586.697 7  95045175.72044  23210989.078                    23210998.875
 11  8 25 16 57 30.0000000  0 10G24G23G08G19G11G01G03G13G07G28
 127293583.148 6  99189886.99643  24223168.188                    24223182.961
 118198636.180 7  92102852.05745  22492455.016                    22492463.293
 117264361.968 7  91374878.83945  22314671.633                    22314681.270
 112079532.514 7  87334732.86546  21328029.828                    21328036.977
 119604392.172 7  93198275.37244  22759962.641                    22759971.844
 128247479.889 6  99933279.548 6  24404707.109                    24404721.855
 121261796.042 7  94489760.87943  23075360.727                    23075370.406
 109883175.855 8  85623342.29046  20910090.102                    20910099.164
 109752822.536 8  85521667.385 7  20885260.281                    20885268.527
 121930771.314 7  95011033.90444  23202651.227                    23202661.504
 11  8 25 16 58  0.0000000  0 10G24G23G08G19G11G01G03G13G07G28
 127221391.340 7  99133633.78743  24209430.570                    24209444.387
 118304092.146 7  92185025.40644  22512522.859                    22512531.125
 117192041.971 7  91318525.62145  22300909.719                    22300918.980
 112130910.417 8  87374767.57746  21337806.180                    21337813.578
 119534198.607 7  93143579.12044  22746605.141                    22746614.676
 128171216.119 6  99873853.367 6  24390194.500                    24390209.867
 121363579.660 7  94569072.69743  23094729.555                    23094739.926
 109954435.234 8  85678869.02446  20923649.961                    20923659.164
 109710573.177 7  85488745.791 7  20877220.805                    20877229.043
 121887142.484 7  94977037.43644  23194348.633                    23194358.352
 11  8 25 16 58 30.0000000  0 10G24G23G08G19G11G01G03G13G07G28
 127149151.602 6  99077343.25043  24195684.070                    24195698.031
 118409772.076 7  92267373.28444  22532633.359                    22532641.215
 117119744.665 7  91262190.08345  22287151.492                    22287161.355
 112182819.729 8  87415216.37346  21347684.273                    21347691.371
 119464226.199 7  93089055.21044  22733289.492                    22733299.500
 128094884.697 6  99814374.515 6  24375668.492                    24375684.922
 121465592.511 7  94648563.17943  23114141.969                    23114151.648
 110026166.940 8  85734763.80946  20937300.922                    20937309.324
 109668530.719 7  85455985.444 7  20869220.727                    20869229.141
 121843699.392 7  94943185.72144  23186082.383                    23186091.578
 11  8 25 16 59  0.0000000  0 10G24G23G08G19G11G01G03G13G07G28
 127076866.934 6  99021017.63642  24181928.656                    24181941.898
 118515673.334 7  92349893.63345  22552785.250                    22552793.879
 117047471.534 7  91205873.37945  22273398.445                    22273407.938
 112235258.737 7  87456077.91046  21357662.977                    21357670.504
 119394478.326 7  93034706.24444  22720017.188                    22720026.742
 128018488.729 6  99754845.325 6  24361131.570                    24361147.277
 121567832.100 7  94728230.30443  23133597.836                    23133607.664
 110098368.845 8  85791024.99646  20951039.977                    20951049.043
 109626697.469 8  85423388.099 7  20861259.734                    20861268.137
 121800441.406 7  94909478.22944  23177850.469                    23177859.613
 11  8 25 16 59 30.0000000  0 10G24G23G08G19G11G01G03G13G07G28
 127004539.989 6  98964659.14942  24168164.813                    24168178.422
 118621792.737 7  92432583.95645  22572980.031                    22572988.203
 116975224.034 7  91149576.64345  22259650.180                    22259659.758
 112288225.388 8  87497350.59246  21367742.586                    21367749.602
 119324957.939 7  92980534.56344  22706787.820                    22706797.172
 127942031.245 6  99695268.217 6  24346582.086                    24346597.008
 121670295.352 7  94808071.72843  23153096.023                    23153106.031
 110171038.464 8  85847650.61346  20964868.586                    20964877.578
 109585074.895 8  85390954.906 7  20853339.617                    20853347.766
 121757367.455 7  94875914.15344  23169653.242                    23169662.680
 11  8 25 17  0  0.0000000  0 10G24G23G08G19G11G01G03G13G07G28
 126932173.689 6  98908270.01442  24154393.586                    24154407.359
 118728127.669 7  92515442.23444  22593214.148                    22593223.195
 116903003.938 7  91093301.24745  22245907.344                    22245916.520
 112341717.718 8  87539032.90046  21377922.102                    21377928.930
 119255668.115 7  92926542.53444  22693601.992                    22693611.422
 127865515.175 6  99635645.465 6  24332021.391                    24332037.266
 121772979.430 7  94888085.20943  23172635.242                    23172645.895
 110244173.731 8  85904639.08846  20978786.070                    20978794.680
 109543665.344 8  85358687.720 7  20845459.320                    20845468.004
 121714477.200 7  94842493.20444  23161491.797                    23161500.996
 11  8 25 17  0 30.0000000  0 10G24G23G08G19G11G01G03G13G07G28
 126859770.903 6  98851852.34642  24140615.961                    24140630.320
 118834675.019 7  92598466.01244  22613489.648                    22613498.656
 116830812.700 7  91037048.35645  22232169.813                    22232179.082
 112395733.698 8  87581123.25246  21388200.953                    21388207.801
 119186612.033 7  92872732.64244  22680461.445                    22680470.625
 127788942.676 6  99575978.758 6  24317449.570                    24317465.461
 121875882.115 6  94968269.03943  23192217.602                    23192228.230
 110317772.478 8  85961988.70046  20992791.477                    20992800.258
 109502470.752 8  85326588.031 7  20837620.289                    20837628.516
 121671769.889 7  94809214.79544  23153364.813                    23153374.387
 11  8 25 17  1  0.0000000  0 10G24G23G08G19G11G01G03G13G07G28
 126787334.205 6  98795408.32342  24126831.094                    24126846.180
 118941432.068 7  92681653.19045  22633804.945                    22633814.055
 116758651.765 7  90980819.08045  22218438.070                    22218447.781
 112450271.440 8  87623620.16346  21398578.734                    21398586.148
 119117792.594 7  92819107.14044  22667364.938                    22667374.574
 127712317.199 6  99516270.751 6  24302868.766                    24302884.180
 121979000.140 6  95048620.65743  23211840.094                    23211851.145
 110391831.936 8  86019697.30646  21006884.711                    21006893.293
 109461492.776 8  85294657.130 7  20829822.453                    20829830.766
 121629244.698 7  94776078.31844  23145272.375                    23145281.707
 11  8 25 17  1 30.0000000  0 10G24G23G08G19G11G01G03G13G07G28
 126714866.477 6  98738940.14043  24113041.625                    24113056.043
 119048395.593 7  92765001.25545  22654159.633                    22654168.617
 116686522.686 7  90924614.62445  22204711.922                    22204721.520
 112505328.314 8  87666521.58946  21409056.148                    21409063.410
 119049212.705 7  92765668.30644  22654314.852                    22654324.016
 127635640.665 6  99456522.950 7  24288277.680                    24288293.199
 122082330.332 6  95129137.57343  23231503.555                    23231513.738
 110466349.453 8  86077762.85446  21021064.578                    21021073.719
 109420733.369 8  85262896.550 7  20822066.367                    20822074.746
 121586900.685 7  94743083.03544  23137214.164                    23137224.141
 11  8 25 17  2  0.0000000  0 10G24G23G08G19G11G01G03G13G07G28
 126642370.826 6  98682450.20543  24099245.594                    24099260.656
 119155562.746 7  92848508.00645  22674553.063                    22674561.371
 116614426.977 7  90868436.16945  22190992.945                    22191002.160
 112560902.441 8  87709826.07446  21419631.195                    21419638.957
 118980875.498 7  92712418.58444  22641310.508                    22641320.406
 127558916.217 6  99396737.828 6  24273676.461                    24273693.207
 122185870.369 6  95209818.04943  23251206.359                    23251216.996
 110541323.128 8  86136183.83646  21035331.719                    21035340.949
 109380194.361 8  85231307.705 7  20814351.875                    20814360.242
 121544737.251 7  94710228.43744  23129191.258                    23129200.598
 11  8 25 17  2 30.0000000  0 10G24G23G08G19G11G01G03G13G07G28
 126569849.832 6  98625940.44643  24085445.859                    24085460.035
 119262930.544 7  92932171.08345  22694984.797                    22694993.625
 116542366.121 7  90812284.86745  22177280.086                    22177289.395
 112616991.255 8  87753531.60746  21430305.063                    21430311.770
 118912783.963 7  92659360.27744  22628353.508                    22628363.473
 127482146.334 6  99336917.297 6  24259067.969                    24259083.711
 122289617.035 6  95290659.50043  23270948.719                    23270959.629
 110616750.194 8  86194958.11646  21049684.914                    21049693.887
 109339877.390 8  85199891.882 7  20806679.836                    20806688.066
 121502753.272 7  94677513.69544  23121201.680                    23121211.215
 11  8 25 17  3  0.0000000  0 10G24G23G08G19G11G01G03G13G07G28
 126497306.510 6  98569413.31743  24071640.375                    24071655.570
 119370496.151 7  93015988.30544  22715453.508                    22715461.941
 116470341.680 7  90756161.94545  22163574.445                    22163583.684
 112673593.021 8  87797636.85446  21441075.539                    21441082.930
 118844941.318 7  92606495.91744  22615442.859                    22615452.359
 127405334.328 6  99277063.941 6  24244450.047                    24244467.457
 122393568.038 6  95371660.16143  23290729.758                    23290740.684
 110692628.551 8  86254084.06246  21064124.602                    21064133.645
 109299784.880 8  85168650.962 7  20799050.602                    20799058.715
 121460948.308 7  94644938.42144  23113246.563                    23113255.902
 11  8 25 17  3 30.0000000  0 10G24G23G08G19G11G01G03G13G07G28
 126424743.561 6  98512870.90243  24057833.336                    24057847.859
 119478256.403 7  93099957.19244  22735959.766                    22735968.461
 116398355.491 7  90700068.82645  22149875.891                    22149885.031
 112730705.238 8  87842139.85046  21451943.609                    21451950.668
 118777350.308 7  92553827.62644  22602581.242                    22602590.270
 127328482.714 6  99217179.671 6  24229826.648                    24229842.629
 122497720.153 6  95452817.55043  23310549.414                    23310560.656
 110768955.395 8  86313559.46246  21078649.219                    21078658.129
 109259918.560 8  85137586.292 7  20791464.203                    20791472.730
 121419321.263 7  94612501.80844  23105324.977                    23105334.359
 11  8 25 17  4  0.0000000  0 10G24G23G08G19G11G01G03G13G07G28
 126352163.292 6  98456314.95443  24044021.117                    24044035.867
 119586208.240 7  93184075.36544  22756502.578                    22756510.730
 116326408.650 7  90644006.36445  22136184.930                    22136194.289
 112788325.296 7  87887038.56246  21462908.422                    21462915.410
 118710013.579 7  92501357.49844  22589767.242                    22589777.250
 127251593.894 6  99157266.461 6  24215194.172                    24215211.160
 122602070.230 6  95534129.23543  23330407.078                    23330417.309
 110845727.773 8  86373382.04346  21093258.258                    21093268.035
 109220279.632 8  85106698.814 7  20783921.195                    20783929.746
 121377871.323 7  94580203.19844  23097437.117                    23097446.625
 11  8 25 17  4 30.0000000  0 10G24G23G08G19G11G01G03G13G07G28
 126279569.205 6  98399748.24043  24030206.578                    24030221.398
 119694348.898 7  93268340.66844  22777081.578                    22777090.258
 116254503.399 7  90587976.30145  22122501.336                    22122510.949
 112846451.836 8  87932331.93746  21473969.453                    21473976.695
 118642934.653 7  92449088.23744  22577002.508                    22577011.887
 127174671.340 6  99097326.950 6  24200556.477                    24200573.102
 122706616.027 6  95615593.39743  23350301.547                    23350312.266
 110922943.924 8  86433550.41446  21107952.133                    21107961.453
 109180871.121 8  85075990.872 7  20776422.352                    20776430.414
 121336598.020 7  94548042.20644  23089583.477                    23089592.547
 11  8 25 17  5  0.0000000  0 10G24G23G08G19G11G01G03G13G07G28
 126206963.917 6  98343172.78743  24016389.953                    24016404.559
 119802675.436 7  93352750.82444  22797694.633                    22797703.602
 116182641.051 7  90531979.67245  22108826.938                    22108835.898
 112905082.287 8  87978017.96346  21485126.523                    21485133.883
 118576116.407 7  92397022.11945  22564287.680                    22564297.320
 127097717.354 6  99037362.924 6  24185913.242                    24185929.199
 122811354.434 6  95697207.65743  23370232.844                    23370243.629
 111000600.939 8  86494062.30246  21122729.914                    21122738.973
 109141694.315 8  85045463.476 7  20768967.422                    20768974.965
 121295500.207 7  94516017.97444  23081762.844                    23081772.008
 11  8 25 17  5 30.0000000  0 10G24G23G08G19G11G01G03G13G07G28
 126134350.453 6  98286590.96943  24002572.102                    24002586.410
 119911184.656 7  93437303.33144  22818343.719                    22818352.516
 116110822.880 7  90476017.48045  22095160.055                    22095169.508
 112964214.182 7  88024094.73046  21496379.273                    21496386.449
 118509562.038 7  92345161.60844  22551622.203                    22551631.707
 127020735.097 6  98977376.880 6  24171263.234                    24171279.102
 122916282.837 6  95778969.96243  23390199.438                    23390211.000
 111078696.307 8  86554915.77745  21137590.898                    21137600.262
 109102751.054 8  85015118.066 7  20761556.391                    20761564.434
 121254577.060 7  94484129.84144  23073974.945                    23073984.938
 11  8 25 17  6  0.0000000  0 10G24G23G08G19G11G01G03G13G07G28
 126061731.364 6  98230004.80244  23988753.250                    23988767.488
 120019873.788 7  93521996.00744  22839026.281                    22839035.844
 116039050.752 7  90420091.15745  22081502.281                    22081511.816
 113023845.093 8  88070560.33246  21507726.500                    21507733.938
 118443274.347 7  92293508.88744  22539008.094                    22539017.730
 126943726.705 7  98917370.401 6  24156609.617                    24156624.262
 123021398.218 7  95860877.96943  23410203.180                    23410213.277
 111157227.367 8  86616108.76146  21152534.656                    21152543.961
 109064043.051 8  84984955.988 7  20754190.383                    20754198.953
 121213827.656 7  94452377.08844  23066221.180                    23066230.262
 11  8 25 17  6 30.0000000  0 10G24G23G08G19G11G01G03G13G07G28
 125989109.725 6  98173416.60743  23974933.766                    23974947.734
 120128739.831 7  93606826.53744  22859743.219                    22859752.789
 115967326.310 7  90364201.99445  22067853.656                    22067863.281
 113083972.891 8  88117413.13346  21519168.477                    21519175.883
 118377256.532 7  92242066.49944  22526445.445                    22526454.938
 126866696.089 6  98857346.607 6  24141950.742                    24141965.195
 123126697.859 6  95942929.57743  23430241.133                    23430251.949
 111236191.815 8  86677639.43846  21167561.117                    21167570.070
 109025572.515 8  84954978.947 7  20746869.719                    20746877.863
 121173251.284 7  94420759.15244  23058499.492                    23058508.742
 11  8 25 17  7  0.0000000  0 10G24G23G08G19G11G01G03G13G07G28
 125916488.665 6  98116828.91743  23961114.594                    23961127.969
 120237779.894 7  93691792.64544  22880492.992                    22880502.188
 115895651.518 7  90308351.52645  22054214.672                    22054223.867
 113144595.590 7  88164651.56346  21530704.484                    21530712.258
 118311511.293 7  92190836.47344  22513934.461                    22513943.836
 126789645.077 6  98797306.964 6  24127288.094                    24127303.961
 123232179.414 6  96025122.89143  23450313.398                    23450323.938
 111315587.109 8  86739505.84446  21182669.961                    21182678.816
 108987341.973 8  84925188.903 7  20739594.586                    20739602.836
 121132847.310 7  94389275.56844  23050810.430                    23050820.754
 11  8 25 17  7 30.0000000  0 10G24G23G08G19G11G01G03G13G07G28
 125843871.048 6  98060243.85243  23947295.406                    23947308.797
 120346991.004 7  93776892.05344  22901275.148                    22901285.313
 115824027.617 7  90252540.71545  22040584.734                    22040593.961
 113205710.499 7  88212273.53346  21542335.055                    21542341.770
 118246041.526 7  92139821.09144  22501476.648                    22501485.922
 126712576.955 6  98737253.989 6  24112623.039                    24112638.074
 123337839.601 6  96107455.42743  23470420.016                    23470431.332
 111395410.680 8  86801705.96246  21197859.781                    21197869.035
 108949352.699 8  84895586.873 7  20732365.289                    20732373.719
 121092614.832 7  94357925.60044  23043154.828                    23043164.641
 11  8 25 17  8  0.0000000  0 10G24G23G08G19G11G01G03G13G07G28
 125771259.582 6  98003663.62343  23933478.219                    23933491.531
 120456370.262 7  93862122.46644  22922089.305                    22922098.934
 115752456.493 7  90196771.01345  22026965.203                    22026974.992
 113267315.497 8  88260277.39846  21554057.742                    21554065.227
 118180850.369 7  92089022.82045  22489070.930                    22489080.070
 126635495.142 6  98677190.334 6  24097954.008                    24097969.770
 123443675.765 6  96189925.06143  23490559.375                    23490570.031
 111475659.901 8  86864237.75846  21213130.656                    21213140.094
 108911606.767 8  84866174.455 7  20725182.789                    20725191.309
 121052553.176 7  94326708.74344  23035531.438                    23035540.625
 11  8 25 17  8 30.0000000  0 10G24G23G08G19G11G01G03G13G07G28
 125698657.116 6  97947090.38642  23919662.367                    23919675.484
 120565914.535 7  93947481.48144  22942935.273                    22942944.184
 115680940.023 7  90141043.90145  22013355.922                    22013365.594
 113329408.222 8  88308661.29946  21565873.461                    21565881.105
 118115941.165 7  92038444.25345  22476719.031                    22476728.617
 126558400.932 6  98617117.049 6  24083284.414                    24083299.125
 123549685.207 6  96272529.70943  23510732.758                    23510743.746
 111556332.049 8  86927099.10546  21228481.758                    21228490.652
 108874105.719 8  84836952.852 7  20718046.391                    20718054.879
 121012660.930 7  94295623.90944  23027939.766                    23027949.160
 11  8 25 17  9  0.0000000  0 10G24G23G08G19G11G01G03G13G07G28
 125626066.616 6  97890526.50943  23905848.133                    23905861.453
 120675621.186 7  94032967.01744  22963811.875                    22963821.250
 115609479.753 7  90085360.58745  21999757.594                    21999767.016
 113391986.337 8  88357423.43246  21577781.930                    21577788.809
 118051316.699 7  91988087.55544  22464421.523                    22464431.160
 126481299.017 6  98557037.737 6  24068612.133                    24068627.078
 123655865.214 6  96355267.25643  23530938.023                    23530949.230
 111637424.396 8  86990287.87846  21243913.594                    21243923.297
 108836852.245 8  84807924.169 7  20710957.328                    20710965.406
 120972937.609 7  94264670.68744  23020380.883                    23020390.156
 11  8 25 17  9 30.0000000  0 10G24G23G08G19G11G01G03G13G07G28
 125553491.257 6  97833974.46243  23892037.789                    23892050.668
 120785487.104 7  94118576.65544  22984719.469                    22984728.148
 115538077.558 7  90029722.53445  21986170.039                    21986179.555
 113455047.663 8  88406562.09946  21589782.000                    21589788.957
 117986980.124 7  91937955.18345  22452178.469                    22452188.152
 126404191.197 6  98496953.820 6  24053938.375                    24053953.688
 123762212.967 6  96438135.52343  23551175.820                    23551186.211
 111718934.842 8  87053802.44745  21259424.555                    21259433.621
 108799848.111 7  84779089.780 7  20703915.742                    20703924.043
 120933382.619 7  94233848.64244  23012853.688                    23012863.430
 11  8 25 17 10  0.0000000  0 10G24G23G08G19G11G01G03G13G07G28
 125480933.554 6  97777436.10143  23878230.500                    23878243.363
 120895509.058 7  94204307.87944  23005655.523                    23005664.934
 115466734.644 7  89974130.67145  21972593.984                    21972603.641
 113518589.191 8  88456074.94146  21601873.766                    21601880.500
 117922933.825 7  91888048.99344  22439990.648                    22440000.395
 126327080.635 6  98436867.802 6  24039264.383                    24039279.945
 123868725.696 6  96521132.34043  23571444.852                    23571455.188
 111800859.830 8  87117640.03545  21275014.352                    21275024.121
 108763094.619 8  84750450.695 7  20696921.578                    20696929.965
 120893994.552 7  94203156.66644  23005358.289                    23005367.801
 11  8 25 17 10 30.0000000  0 10G24G23G08G19G11G01G03G13G07G28
 125408396.380 6  97720913.77143  23864426.508                    23864440.027
 121005684.036 7  94290158.34944  23026621.219                    23026631.227
 115395452.988 7  89918586.54045  21959029.648                    21959038.941
 113582608.367 8  88505959.98646  21614055.648                    21614062.887
 117859180.825 7  91838371.35044  22427859.055                    22427868.461
 126249969.604 6  98376781.410 6  24024590.469                    24024606.059
 123975400.597 6  96604255.57843  23591744.055                    23591754.270
 111883197.137 8  87181798.89945  21290682.883                    21290692.238
 108726593.909 8  84722008.580 7  20689976.039                    20689984.219
 120854772.684 7  94172594.19844  22997894.750                    22997904.148
 11  8 25 17 11  0.0000000  0 10G24G23G08G19G11G01G03G13G07G28
 125335883.362 6  97664410.23743  23850627.680                    23850641.227
 121116009.681 7  94376126.18844  23047615.359                    23047625.457
 115324234.266 7  89863091.43945  21945477.328                    21945486.117
 113647103.492 8  88556215.89546  21626328.438                    21626336.180
 117795724.404 7  91788924.81044  22415783.266                    22415792.891
 126172861.591 6  98316697.388 7  24009917.852                    24009933.434
 124082235.351 6  96687503.33543  23612074.398                    23612084.875
 111965944.552 8  87246277.33945  21306429.047                    21306438.609
 108690348.455 8  84693765.365 7  20683078.711                    20683086.934
 120815716.374 7  94142160.71544  22990462.477                    22990472.348
 11  8 25 17 11 30.0000000  0 10G24G23G08G19G11G01G03G13G07G28
 125263396.887 6  97607927.41243  23836834.102                    23836847.621
 121226482.563 7  94462208.77244  23068637.742                    23068648.145
 115253080.504 7  89807646.95245  21931936.867                    21931946.258
 113712071.739 8  88606840.47346  21638691.984                    21638699.461
 117732567.474 7  91739711.63844  22403765.063                    22403774.543
 126095759.507 6  98256617.981 6  23995245.836                    23995261.242
 124189226.703 6  96770873.14643  23632434.297                    23632443.875
 112049098.863 8  87311072.83046  21322252.555                    21322262.051
 108654359.815 7  84665722.257 7  20676230.422                    20676238.625
 120776824.599 7  94111855.46044  22983061.602                    22983071.020
 11  8 25 17 12  0.0000000  0 10G24G23G08G19G11G01G03G13G07G28
 125190939.918 6  97551467.55143  23823046.539                    23823059.043
 121337099.478 7  94548403.54244  23089688.156                    23089697.590
 115181993.203 7  89752254.27345  21918409.766                    21918418.891
 113777510.403 8  88657831.60346  21651144.820                    21651152.297
 117669712.750 7  91690733.94945  22391804.297                    22391813.668
 126018665.934 7  98196545.190 6  23980575.070                    23980590.570
 124296372.100 6  96854362.95443  23652823.594                    23652833.996
 112132657.170 8  87376183.13945  21338153.500                    21338163.082
 108618629.586 8  84637880.516 7  20669431.109                    20669439.547
 120738096.166 7  94081677.48544  22975691.719                    22975701.621
 11  8 25 17 12 30.0000000  0 10G24G23G08G19G11G01G03G13G07G28
 125118515.810 6  97495033.28943  23809264.344                    23809277.457
 121447857.928 7  94634708.63444  23110764.578                    23110774.238
 115110974.102 8  89696914.73945  21904894.906                    21904904.563
 113843417.738 8  88709187.93246  21663686.383                    21663693.680
 117607163.443 7  91641994.25345  22379901.664                    22379911.652
 125941584.114 6  98136481.593 6  23965906.508                    23965922.176
 124403669.000 6  96937970.84643  23673241.023                    23673251.867
 112216617.170 8  87441606.44445  21354130.555                    21354140.004
 108583160.390 8  84610242.170 7  20662681.563                    20662689.785
 120699530.666 7  94051626.46944  22968352.680                    22968362.602
 11  8 25 17 13  0.0000000  0 10G24G23G08G19G11G01G03G13G07G28
 125046127.025 7  97438626.55443  23795488.547                    23795502.781
 121558755.175 7  94721121.87344  23131868.336                    23131877.410
 115040025.397 8  89641630.05645  21891394.109                    21891403.395
 113909790.712 8  88760907.10045  21676316.813                    21676324.254
 117544922.171 7  91593494.57345  22368057.367                    22368066.676
 125864516.960 7  98076429.434 6  23951241.148                    23951257.016
 124511114.389 7  97021694.44243  23693688.344                    23693698.574
 112300975.854 8  87507340.40745  21370183.656                    21370192.793
 108547953.884 8  84582808.525 7  20655981.961                    20655990.414
 120661126.881 7  94021701.45944  22961045.352                    22961054.344
 11  8 25 17 13 30.0000000  0 10G24G23G08G19G11G01G03G13G07G28
 124973776.847 7  97382249.91443  23781720.570                    23781735.078
 121669787.763 7  94807640.60844  23152997.258                    23153005.719
 114969148.807 8  89586401.54745  21877907.039                    21877916.004
 113976626.963 8  88812987.25546  21689035.461                    21689042.664
 117482992.069 7  91545237.36145  22356272.609                    22356282.379
 125787467.116 7  98016390.684 6  23936579.328                    23936593.914
 124618705.523 6  97105531.59343  23714161.945                    23714172.797
 112385730.624 8  87573383.00645  21386312.055                    21386321.008
 108513012.016 8  84555581.087 8  20649332.750                    20649341.363
 120622884.196 7  93991902.00644  22953767.438                    22953776.898
 11  8 25 17 14  0.0000000  0 10G24G23G08G19G11G01G03G13G07G28
 124901467.908 7  97325905.42143  23767960.750                    23767974.707
 121780952.847 7  94894262.58344  23174150.930                    23174160.488
 114898345.904 7  89531230.47445  21864432.938                    21864442.961
 114043923.700 8  88865426.23546  21701841.406                    21701848.895
 117421375.724 7  91497224.65145  22344547.539                    22344556.316
 125710437.567 7  97956367.803 6  23921920.758                    23921935.449
 124726439.463 6  97189480.03543  23734663.148                    23734674.309
 112470878.870 8  87639732.21445  21402515.352                    21402524.527
 108478336.187 8  84528560.948 7  20642733.969                    20642742.254
 120584801.503 7  93962227.21244  22946520.938                    22946530.484
 11  8 25 17 14 30.0000000  0 10G24G23G08G19G11G01G03G13G07G28
 124829203.457 7  97269595.60843  23754209.320                    23754223.496
 121892247.394 7  94980985.41044  23195329.594                    23195339.336
 114827618.717 7  89476118.40645  21850974.008                    21850983.766
 114111678.834 8  88918222.40746  21714734.930                    21714742.180
 117360076.580 7  91449459.08245  22332882.539                    22332891.844
 125633431.644 7  97896363.307 6  23907266.789                    23907281.910
 124834314.266 6  97273538.24843  23755191.227                    23755202.293
 112556417.572 8  87706385.67545  21418792.953                    21418802.117
 108443929.245 8  84501750.337 7  20636186.742                    20636195.375
 120546878.079 7  93932676.50844  22939304.250                    22939313.797
 11  8 25 17 15  0.0000000  0 10G24G23G08G19G11G01G03G13G07G28
 124756986.856 7  97213323.03143  23740467.063                    23740481.184
 122003668.807 7  95067807.06444  23216532.133                    23216542.813
 114756969.139 8  89421066.79945  21837529.891                    21837539.746
 114179890.097 8  88971373.99145  21727715.211                    21727722.430
 117299097.522 7  91401942.97045  22321277.852                    22321288.152
 125556451.611 6  97836379.024 6  23892617.859                    23892632.797
 124942326.766 6  97357703.75143  23775745.148                    23775755.699
 112642344.123 8  87773341.36145  21435143.969                    21435153.629
 108409792.920 8  84475150.592 7  20629690.945                    20629699.320
 120509113.032 7  93903249.22744  22932117.695                    22932127.414
 11  8 25 17 15 30.0000000  0 10G24G23G08G19G11G01G03G13G07G28
 124684820.508 7  97157089.66643  23726734.055                    23726748.004
 122115214.027 7  95154725.18644  23237759.383                    23237770.281
 114686398.786 8  89366076.92245  21824101.078                    21824110.355
 114248554.518 8  89024878.70246  21740781.688                    21740789.008
 117238441.454 7  91354678.52845  22309735.727                    22309745.297
 125479501.137 6  97776417.745 6  23877974.156                    23877989.355
 125050474.665 6  97441974.75743  23796324.563                    23796335.715
 112728655.724 8  87840597.08045  21451568.680                    21451577.742
 108375929.146 8  84448763.219 7  20623246.750                    20623255.141
 120471505.580 7  93873944.75844  22924961.055                    22924970.793
 11  8 25 17 16  0.0000000  0 10G24G23G08G19G11G01G03G13G07G28
 124612707.393 6  97100897.73943  23713010.852                    23713024.414
 122226880.010 7  95241737.40044  23259008.922                    23259019.242
 114615909.378 8  89311150.12645  21810687.063                    21810696.648
 114317669.464 8  89078734.45545  21753933.688                    21753940.875
 117178111.057 7  91307667.82444  22298255.227                    22298264.695
 125402582.434 6  97716481.225 6  23863337.188                    23863352.477
 125158754.903 6  97526348.88043  23816930.039                    23816941.188
 112815349.511 7  87908150.60045  21468066.063                    21468075.184
 108342339.377 8  84422589.363 7  20616854.555                    20616863.277
 120434054.654 7  93844762.24944  22917834.617                    22917844.227
 11  8 25 17 16 30.0000000  0 10G24G23G08G19G11G01G03G13G07G28
 124540650.825 7  97044749.87943  23699299.250                    23699312.504
 122338664.036 7  95328841.60744  23280280.695                    23280290.949
 114545503.220 7  89256288.21245  21797289.406                    21797298.980
 114387232.540 8  89132939.40845  21767171.047                    21767178.418
 117118109.148 7  91260913.10744  22286837.602                    22286846.434
 125325698.716 6  97656571.962 6  23848706.727                    23848721.961
 125267165.019 6  97610824.20643  23837559.797                    23837570.984
 112902422.753 7  87975999.81245  21484635.617                    21484645.203
 108309026.077 8  84396630.946 7  20610515.695                    20610523.953
 120396759.199 7  93815700.89044  22910737.461                    22910747.059
 11  8 25 17 17  0.0000000  0 10G24G23G08G19G11G01G03G13G07G28
 124468653.656 7  96988648.31343  23685598.078                    23685611.707
 122450562.707 7  95416035.15244  23301574.523                    23301584.855
 114475181.922 8  89201492.40845  21783907.703                    21783917.070
 114457241.061 8  89187491.46846  21780493.398                    21780500.930
 117058438.122 7  91214416.22144  22275482.367                    22275491.445
 125248852.951 6  97596692.262 7  23834083.531                    23834099.047
 125375702.132 6  97695398.50343  23858214.141                    23858224.906
 112989872.492 7  88044142.38145  21501276.758                    21501286.223
 108275990.903 8  84370889.234 7  20604229.422                    20604237.613
 120359618.608 7  93786760.20844  22903670.203                    22903679.176
 11  8 25 17 17 30.0000000  0 10G24G23G08G19G11G01G03G13G07G28
 124396718.908 7  96932595.39543  23671909.359                    23671922.879
 122562573.200 7  95503315.83844  23322890.203                    23322898.984
 114404947.426 7  89146764.24445  21770541.984                    21770551.660
 114527692.603 7  89242388.73545  21793899.680                    21793907.223
 116999101.676 7  91168180.03645  22264191.406                    22264200.586
 125172048.127 6  97536844.503 7  23819467.258                    23819482.555
 125484363.858 6  97780069.87443  23878890.984                    23878902.590
 113077696.067 7  88112576.26545  21517989.266                    21517998.855
 108243235.645 8  84345365.642 7  20597996.133                    20598004.238
 120322631.370 7  93757939.02945  22896631.438                    22896640.547
 11  8 25 17 18  0.0000000  0 10G24G23G08G19G11G01G03G13G07G28
 124324849.677 7  96876593.50843  23658233.047                    23658246.891
 122674692.959 7  95590681.67844  23344225.773                    23344235.309
 114334801.648 8  89092105.22545  21757194.273                    21757203.488
 114598584.370 7  89297629.03145  21807390.414                    21807397.285
 116940102.634 7  91122206.78044  22252964.063                    22252973.031
 125095287.147 6  97477030.893 7  23804860.484                    23804876.113
 125593147.719 6  97864836.43043  23899591.781                    23899603.941
 113165890.692 7  88181299.27245  21534771.922                    21534781.527
 108210762.795 7  84320062.107 7  20591816.953                    20591825.195
 120285797.002 7  93729236.95645  22889622.063                    22889631.500
 11  8 25 17 18 30.0000000  0 10G24G23G08G19G11G01G03G13G07G28
 124253048.791 7  96820644.90244  23644569.953                    23644583.727
 122786918.859 7  95678130.21443  23365581.711                    23365591.082
 114264746.511 8  89037516.82845  21743862.953                    21743872.680
 114669914.032 8  89353210.54445  21820963.633                    21820971.301
 116881443.461 7  91076498.35844  22241801.188                    22241810.465
 125018573.185 6  97417253.884 7  23790262.438                    23790277.648
 125702050.682 6  97949695.76743  23920315.641                    23920327.301
 113254453.446 7  88250309.13445  21551624.922                    21551634.551
 108178574.042 8  84294979.952 7  20585691.445                    20585699.875
 120249114.734 7  93700653.38744  22882641.289                    22882650.859
 11  8 25 17 19  0.0000000  0 10G24G23G08G19G11G01G03G13G07G28
 124181319.378 7  96764751.96643  23630920.008                    23630933.188
 122899247.912 7  95765659.10744  23386956.750                    23386967.867
 114194783.870 8  88983000.49445  21730550.055                    21730559.246
 114741678.889 8  89409131.18046  21834620.211                    21834627.520
 116823127.231 7  91031057.14645  22230704.055                    22230713.316
 124941909.290 7  97357515.896 7  23775673.555                    23775688.379
 125811070.531 6  98034646.20543  23941061.891                    23941073.066
 113343381.409 7  88319603.58245  21568547.531                    21568557.047
 108146671.536 8  84270120.842 8  20579620.703                    20579628.883
 120212583.604 7  93672187.58444  22875689.930                    22875699.117
 11  8 25 17 19 30.0000000  0 10G24G23G08G19G11G01G03G13G07G28
 124109664.381 7  96708917.01143  23617284.313                    23617296.770
 123011677.200 7  95853266.07944  23408351.883                    23408362.258
 114124915.492 8  88928557.60945  21717254.438                    21717263.637
 114813876.184 8  89465388.77146  21848358.938                    21848366.547
 116765156.377 7  90985885.08645  22219672.953                    22219682.234
 124865298.132 7  97297819.010 7  23761094.328                    23761110.195
 125920204.457 6  98119685.56743  23961828.703                    23961840.352
 113432671.648 8  88389180.32145  21585538.758                    21585548.469
 108115056.963 8  84245486.100 7  20573604.297                    20573613.234
 120176202.543 7  93643838.73044  22868766.719                    22868776.320
 11  8 25 17 20  0.0000000  0 10G24G23G08G19G11G01G03G13G07G28
 124038086.756 7  96653142.31443  23603663.477                    23603676.480
 123124203.786 7  95940948.86344  23429765.813                    23429775.570
 114055143.362 8  88874189.73045  21703977.039                    21703986.125
 114886503.446 8  89521981.40045  21862179.555                    21862187.242
 116707534.281 7  90940984.76645  22208707.539                    22208716.453
 124788742.855 7  97238165.657 7  23746526.547                    23746541.762
 126029449.881 6  98204811.78743  23982617.648                    23982628.957
 113522321.472 7  88459037.24045  21602598.539                    21602608.363
 108083732.102 8  84221077.107 8  20567643.828                    20567651.953
 120139970.613 7  93615606.07644  22861872.227                    22861881.270
 11  8 25 17 20 30.0000000  0 10G24G23G08G19G11G01G03G13G07G28
 123966589.401 7  96597430.18343  23590058.398                    23590071.016
 123236824.620 7  96028705.09444  23451196.789                    23451207.570
 113985469.525 8  88819898.44845  21690718.625                    21690727.957
 114959557.377 8  89578906.52245  21876081.156                    21876088.672
 116650263.129 7  90896357.90445  22197809.344                    22197818.664
 124712246.278 7  97178558.049 7  23731970.031                    23731984.840
 126138803.935 6  98290022.64743  24003427.117                    24003438.871
 113612327.762 7  88529171.93345  21619726.469                    21619735.938
 108052698.838 8  84196895.329 7  20561738.086                    20561746.199
 120103886.808 7  93587488.84744  22855005.641                    22855014.645
 11  8 25 17 21  0.0000000  0 10G24G23G08G19G11G01G03G13G07G28
 123895175.915 6  96541783.41343  23576468.484                    23576481.180
 123349537.246 7  96116532.85044  23472645.578                    23472656.121
 113915896.380 7  88765685.62645  21677479.398                    21677488.426
 115033036.592 8  89636163.00745  21890064.063                    21890071.492
 116593346.372 7  90852007.21745  22186978.664                    22186987.313
 124635811.603 7  97118998.665 6  23717424.703                    23717440.137
 126248264.413 6  98375316.43243  24024256.977                    24024268.313
 113702688.114 7  88599582.51345  21636921.695                    21636931.223
 108021960.020 8  84172942.992 8  20555888.828                    20555897.234
 120067950.455 7  93559486.52044  22848166.758                    22848176.539
 11  8 25 17 21 30.0000000  0 10G24G23G08G19G11G01G03G13G07G28
 123823849.223 7  96486204.29243  23562895.297                    23562908.441
 123462338.310 7  96204429.54244  23494111.375                    23494121.250
 113846425.488 8  88711552.47245  21664259.164                    21664268.223
 115106937.719 8  89693748.26645  21904126.938                    21904134.141
 116536786.874 7  90807934.90345  22176215.195                    22176224.496
 124559441.515 7  97059489.610 6  23702892.023                    23702906.973
 126357828.565 6  98460691.03343  24045106.875                    24045118.016
 113793399.397 7  88670266.55245  21654183.844                    21654193.047
 107991517.056 8  84149221.205 7  20550095.867                    20550104.250
 120032160.550 7  93531598.32045  22841356.617                    22841365.852
 11  8 25 17 22  0.0000000  0 10G24G23G08G19G11G01G03G13G07G28
 123752612.118 7  96430694.94243  23549339.188                    23549352.363
 123575225.009 7  96292392.94043  23515592.773                    23515603.328
 113777058.665 8  88657500.41045  21651059.164                    21651068.207
 115181257.903 8  89751660.05645  21918269.289                    21918276.602
 116480587.011 7  90764142.81945  22165521.313                    22165529.953
 124483139.411 7  97000033.517 6  23688371.617                    23688387.484
 126467493.767 6  98546144.35343  24065975.047                    24065986.871
 113884458.560 7  88741221.66145  21671511.484                    21671520.984
 107961371.780 8  84125731.382 8  20544359.070                    20544367.813
 119996516.127 7  93503823.46144  22834573.664                    22834582.695
 11  8 25 17 22 30.0000000  0 10G24G23G08G19G11G01G03G13G07G28
 123681467.426 6  96375257.63343  23535800.289                    23535813.848
 123688194.539 6  96380420.86843  23537090.336                    23537101.148
 113707798.241 8  88603531.25045  21637879.328                    21637888.535
 115255994.429 8  89809896.29045  21932491.266                    21932499.098
 116424749.629 7  90720633.19345  22154895.375                    22154904.621
 124406907.896 6  96940632.438 6  23673865.367                    23673880.043
 126577257.501 6  98631674.44043  24086863.508                    24086873.895
 113975862.617 7  88812445.51745  21688905.125                    21688914.797
 107931526.076 8  84102474.972 7  20538679.656                    20538688.180
 119961016.215 7  93476161.21745  22827818.125                    22827827.766
 11  8 25 17 23  0.0000000  0 10G24G23G08G19G11G01G03G13G07G28
 123610418.353 7  96319894.80843  23522280.094                    23522293.340
 123801243.912 6  96468511.03143  23558603.227                    23558613.480
 113638645.999 8  88549646.39745  21624719.914                    21624729.453
 115331145.147 8  89868455.25145  21946791.961                    21946799.402
 116369277.364 7  90677408.05945  22144339.430                    22144348.164
 124330749.934 6  96881288.658 6  23659373.359                    23659387.840
 126687117.063 6  98717279.23343  24107768.656                    24107779.473
 114067608.765 7  88883935.94145  21706363.961                    21706373.547
 107901981.865 8  84079453.506 8  20533057.672                    20533066.074
 119925659.827 7  93448610.80345  22821090.102                    22821099.156
 11  8 25 17 23 30.0000000  0 10G24G23G08G19G11G01G03G13G07G28
 123539468.022 7  96264608.92843  23508779.664                    23508792.164
 123914370.394 6  96556661.29043  23580130.164                    23580140.734
 113569604.011 8  88495847.44945  21611581.930                    21611590.957
 115406707.206 8  89927334.73845  21961171.180                    21961178.684
 116314173.423 7  90634469.92345  22133853.430                    22133862.719
 124254669.076 6  96822004.959 6  23644895.188                    23644909.680
 126797070.096 6  98802956.83343  24128691.234                    24128703.133
 114159694.374 7  88955690.87045  21723887.570                    21723896.293
 107872741.265 8  84056668.620 8  20527493.344                    20527502.129
 119890446.209 7  93421171.65044  22814389.047                    22814398.352
 11  8 25 17 24  0.0000000  0 10G24G23G08G19G11G01G03G13G07G28
 123468619.407 6  96209402.33043  23495297.625                    23495309.988
 124027570.692 7  96644869.03444  23601672.320                    23601683.090
 113500674.417 8  88442136.09645  21598465.070                    21598474.031
 115482677.684 8  89986532.48145  21975628.055                    21975635.238
 116259440.170 7  90591820.66445  22123438.281                    22123447.523
 124178667.389 7  96762782.955 6  23630432.727                    23630447.297
 126907114.181 6  98888705.43643  24149632.477                    24149643.531
 114252116.112 7  89027707.72645  21741475.070                    21741484.020
 107843806.047 8  84034121.695 8  20521987.367                    20521995.750
 119855374.007 7  93393842.68845  22807715.008                    22807724.215
 11  8 25 17 24 30.0000000  0  9G24G23G08G19G11G01G13G07G28
 123397876.120 7  96154277.77843  23481835.320                    23481847.359
 124140842.518 7  96733132.52644  23623227.461                    23623238.406
 113431859.267 8  88388513.91645  21585370.023                    21585379.203
 115559054.303 7  90046046.69645  21990161.703                    21990169.402
 116205080.867 7  90549462.76445  22113094.141                    22113103.293
 124102749.050 7  96703625.896 6  23615985.680                    23616000.512
 114344871.432 7  89099984.51745  21759125.508                    21759134.945
 107815178.748 8  84011814.704 8  20516539.523                    20516548.066
 119820443.144 7  93366623.85845  22801067.773                    22801076.996
 11  8 25 17 25  0.0000000  0  9G24G23G08G19G11G01G13G07G28
 123327241.176 7  96099237.66244  23468394.211                    23468406.258
 124254182.917 7  96821449.44444  23644795.313                    23644806.184
 113363160.635 8  88334982.54246  21572296.836                    21572306.113
 115635834.308 8  90105875.22645  22004772.500                    22004780.461
 116151098.066 7  90507398.25145  22102821.469                    22102830.617
 124026917.254 7  96644536.265 6  23601555.484                    23601570.055
 114437957.571 7  89172519.08045  21776839.500                    21776848.770
 107786861.059 8  83989748.963 8  20511150.664                    20511159.359
 119785652.231 7  93339514.09045  22794447.250                    22794456.988
 11  8 25 17 25 30.0000000  0  9G24G23G08G19G11G01G13G07G28
 123256716.973 7  96044283.84444  23454973.266                    23454986.484
 124367588.260 7  96909816.98044  23666375.117                    23666386.613
 113294580.029 8  88281543.12745  21559246.344                    21559255.965
 115713014.255 8  90166015.41645  22019459.547                    22019467.176
 116097493.650 7  90465628.58945  22092620.523                    22092629.707
 123951173.754 7  96585515.430 7  23587141.648                    23587156.051
 114531370.655 7  89245308.41645  21794615.320                    21794624.668
 107758854.079 8  83967925.336 8  20505821.250                    20505829.691
 119750999.873 7  93312512.28145  22787853.148                    22787862.219
 11  8 25 17 26  0.0000000  0  9G24G23G08G19G11G01G13G07G28
 123186306.816 7  95989418.86544  23441574.750                    23441587.340
 124481056.064 6  96998233.14343  23687968.555                    23687979.473
 113226120.007 8  88228197.67145  21546218.656                    21546228.320
 115790591.790 7  90226465.40345  22034222.125                    22034229.453
 116044270.997 7  90424156.40245  22082493.156                    22082501.617
 123875521.906 7  96526566.004 6  23572746.305                    23572760.191
 114625107.975 7  89318350.39645  21812453.016                    21812462.121
 107731160.349 8  83946345.800 8  20500551.234                    20500559.813
 119716485.336 7  93285617.87944  22781285.398                    22781294.898
 11  8 25 17 26 30.0000000  0  9G24G23G08G19G11G01G13G07G28
 123116013.987 7  95934645.30644  23428198.188                    23428211.484
 124594583.708 7  97086695.91543  23709571.594                    23709582.922
 113157782.840 8  88174947.95345  21533214.609                    21533224.652
 115868564.387 7  90287223.22345  22049059.719                    22049067.781
 115991433.004 7  90382983.95245  22072438.000                    22072447.082
 123799965.341 7  96467690.834 7  23558368.148                    23558382.289
 114719167.211 7  89391643.20645  21830351.875                    21830361.438
 107703781.945 8  83925011.967 8  20495341.313                    20495349.797
 119682107.983 7  93258830.35345  22774743.625                    22774752.883
 11  8 25 17 27  0.0000000  0  9G24G23G08G19G11G01G13G07G28
 123045841.189 7  95879965.29344  23414845.000                    23414857.684
 124708168.082 7  97175202.93543  23731186.711                    23731196.941
 113089570.378 8  88121795.40445  21520234.289                    21520243.836
 115946929.007 7  90348286.52345  22063971.891                    22063979.688
 115938981.936 7  90342113.00145  22062456.938                    22062465.824
 123724506.560 7  96408891.851 7  23544008.383                    23544022.754
 114813544.783 7  89465184.07945  21848311.578                    21848320.855
 107676720.680 8  83903925.269 8  20490192.109                    20490200.484
 119647866.803 7  93232148.94045  22768227.492                    22768236.625
 11  8 25 17 27 30.0000000  0  9G24G23G08G19G11G01G13G07G28
 122975791.657 7  95825381.31143  23401514.477                    23401527.453
 124821806.372 6  97263751.95944  23752811.898                    23752822.637
 113021484.835 8  88068741.74245  21507278.250                    21507287.242
 116025683.164 7  90409653.35545  22078958.727                    22078966.492
 115886920.892 7  90301545.95145  22052550.234                    22052559.469
 123649148.663 7  96350171.499 6  23529668.180                    23529682.215
 114908237.689 7  89538970.66845  21866331.172                    21866340.621
 107649978.551 8  83883087.243 8  20485103.133                    20485111.512
 119613760.576 7  93205572.68245  22761737.469                    22761746.270
 11  8 25 17 28  0.0000000  0  9G24G23G08G19G11G01G13G07G28
 122905868.475 7  95770895.80744  23388208.344                    23388221.430
 124935495.805 7  97352340.83643  23774446.273                    23774457.152
 112953527.609 8  88015788.08545  21494346.406                    21494355.848
 116104824.056 7  90471321.53645  22094018.578                    22094026.848
 115835252.126 7  90261284.59345  22042717.586                    22042727.039
 123573894.804 7  96291532.198 6  23515347.875                    23515361.910
 115003243.281 7  89613000.90945  21884409.961                    21884420.020
 107623557.137 8  83862499.121 8  20480075.461                    20480083.895
 119579788.563 7  93179101.01845  22755272.727                    22755281.547
 11  8 25 17 28 30.0000000  0 10G24G23G08G17G19G11G01G13G07G28
 122836074.861 6  95716511.23243  23374927.609                    23374939.742
 125049233.174 6  97440967.12343  23796089.703                    23796101.043
 112885701.347 8  87962936.45745  21481438.703                    21481448.734
 129484838.76016 100897393.08816  24640167.539
 116184348.953 7  90533288.94545  22109151.523                    22109158.801
 115783978.589 8  90221331.19545  22032960.398                    22032969.949
 123498748.204 7  96232976.476 6  23501047.547                    23501062.094
 115098558.825 7  89687272.66745  21902547.664                    21902557.980
 107597458.530 8  83842162.538 8  20475108.891                    20475117.547
 119545949.779 7  93152733.17745  22748833.688                    22748842.688
 11  8 25 17 29  0.0000000  0 10G24G23G08G17G19G11G01G13G07G28
 122766413.749 7  95662229.92643  23361670.922                    23361683.570
 125163015.833 6  97529628.61743  23817742.516                    23817753.406
 112818008.243 7  87910188.60045  21468557.875                    21468567.254
 129380491.636 6 100816083.767 6  24620310.250                    24620323.906
 116264254.769 7  90595553.18045  22124357.508                    22124364.879
 115733102.865 8  90181687.78845  22023279.492                    22023288.680
 123423711.600 7  96174506.451 7  23486768.055                    23486783.145
 115194180.933 7  89761783.30645  21920744.078                    21920754.188
 107571684.770 7  83822079.088 8  20470204.391                    20470212.875
 119512243.179 7  93126468.31845  22742419.289                    22742428.355
 11  8 25 17 29 30.0000000  0 10G24G23G08G17G19G11G01G13G07G28
 122696887.754 6  95608053.89643  23348440.516                    23348453.398
 125276840.318 6  97618322.70543  23839401.922                    23839414.313
 112750449.919 8  87857545.76846  21455701.766                    21455711.160
 129276247.128 6 100734854.376 5  24600473.523                    24600486.867
 116344538.523 7  90658111.90745  22139635.094                    22139642.832
 115682627.227 8  90142356.11845  22013673.906                    22013683.270
 123348788.119 7  96116124.573 6  23472511.094                    23472525.605
 115290105.966 7  89836529.98945  21938998.281                    21939008.520
 107546237.106 8  83802249.734 8  20465361.656                    20465370.297
 119478667.484 7  93100305.46845  22736029.953                    22736038.777
 11  8 25 17 30  0.0000000  0 10G24G23G08G17G19G11G01G13G07G28
 122627500.343 6  95553985.84943  23335236.852                    23335249.551
 125390704.263 6  97707047.55743  23861069.703                    23861081.695
 112683029.096 7  87805010.08346  21442872.148                    21442881.738
 129172107.389 6 100653706.596 5  24580656.063                    24580669.578
 116425197.779 7  90720963.22945  22154983.789                    22154991.488
 115632554.240 7  90103338.21945  22004145.469                    22004154.609
 123273980.298 7  96057832.814 6  23458275.836                    23458290.109
 115386331.222 7  89911510.59845  21957309.719                    21957319.895
 107521117.894 8  83782676.316 8  20460581.797                    20460590.578
 119445221.593 7  93074243.76245  22729665.438                    22729674.082
 11  8 25 17 30 30.0000000  0 10G24G23G08G17G19G11G01G13G07G28
 122558255.104 6  95500028.59543  23322059.820                    23322072.348
 125504605.439 6  97795801.38043  23882744.523                    23882756.566
 112615747.850 8  87752583.15646  21430068.969                    21430078.492
 129068074.817 6 100572642.328 5  24560859.430                    24560873.047
 116506229.750 7  90784104.97645  22170404.055                    22170411.473
 115582887.017 8  90064636.50045  21994694.063                    21994703.535
 123199292.195 7  95999634.351 6  23444062.461                    23444077.164
 115482854.095 7  89986723.13045  21975677.313                    21975687.340
 107496329.486 8  83763360.660 8  20455864.445                    20455873.125
 119411905.532 7  93048283.22045  22723326.016                    22723334.445
 11  8 25 17 31  0.0000000  0 10G24G23G08G17G19G11G01G13G07G28
 122489154.685 7  95446184.19144  23308910.281                    23308922.824
 125618540.607 6  97884581.67943  23904426.094                    23904438.121
 112548608.140 8  87700266.50346  21417292.078                    21417301.680
 128964151.278 6 100491663.005 6  24541083.672                    24541096.813
 116587631.943 7  90847535.20645  22185894.125                    22185901.422
 115533628.082 8  90026252.92345  21985320.797                    21985329.922
 123124726.896 7  95941531.576 7  23429873.563                    23429888.188
 115579671.537 7  90062165.20445  21994101.188                    21994111.352
 107471873.356 8  83744303.933 8  20451210.656                    20451219.074
 119378717.930 7  93022422.78445  22717010.352                    22717018.938
 11  8 25 17 31 30.0000000  0 10G24G23G08G17G19G11G01G13G07G28
 122420202.273 7  95392455.12043  23295789.000                    23295801.801
 125732506.671 6  97973386.11143  23926114.023                    23926125.465
 112481612.424 8  87648062.04545  21404543.766                    21404553.113
 128860339.163 6 100410770.607 6  24521329.156                    24521342.465
 116669401.439 7  90911251.64045  22201454.414                    22201461.996
 115484779.975 8  89988189.47845  21976025.016                    21976034.387
 123050286.314 7  95883525.981 7  23415707.766                    23415722.395
 115676780.704 7  90137834.58745  22012580.172                    22012590.652
 107447751.462 8  83725507.637 8  20446620.516                    20446629.125
 119345657.782 7  92996661.65745  22710718.570                    22710727.426
 11  8 25 17 32  0.0000000  0 10G24G23G08G17G19G11G01G13G07G28
 122351400.548 6  95338843.44943  23282696.586                    23282708.672
 125846501.166 6  98062212.67843  23947806.289                    23947817.641
 112414762.818 8  87595971.45746  21391822.711                    21391831.801
 128756640.165 6 100329966.323 6  24501595.938                    24501608.961
 116751535.369 7  90975252.05845  22217084.313                    22217091.531
 115436345.218 8  89950448.11145  21966808.141                    21966817.520
 122975974.302 7  95825620.551 7  23401567.195                    23401581.535
 115774178.100 7  90213728.56645  22031113.820                    22031124.586
 107423965.715 8  83706973.276 8  20442094.508                    20442102.813
 119312724.379 7  92970999.30745  22704451.945                    22704460.992
 11  8 25 17 32 30.0000000  0 10G24G23G08G17G19G11G01G13G07G28
 122282753.223 7  95285352.07544  23269633.031                    23269645.598
 125960521.187 7  98151059.14243  23969503.922                    23969515.305
 112348061.533 8  87543996.44346  21379130.047                    21379139.180
 128653057.062 7 100249252.314 6  24481883.977                    24481897.617
 116834031.396 7  91039534.63145  22232782.469                    22232790.012
 115388326.872 7  89913031.23845  21957670.633                    21957679.879
 122901794.551 7  95767818.206 7  23387450.820                    23387465.391
 115871861.325 7  90289845.26045  22049703.055                    22049712.973
 107400518.449 8  83688702.674 8  20437632.313                    20437641.020
 119279916.504 7  92945434.75645  22698208.914                    22698218.031
 11  8 25 17 33  0.0000000  0 10G24G23G08G17G19G11G01G13G07G28
 122214262.905 7  95231983.04044  23256600.445                    23256612.535
 126074563.905 7  98239923.32743  23991205.711                    23991216.910
 112281510.499 8  87492138.49646  21366465.688                    21366474.953
 128549591.503 7 100168629.880 6  24462194.953                    24462208.473
 116916886.196 7  91104096.76745  22248549.500                    22248556.828
 115340726.791 8  89875940.27945  21948612.680                    21948622.223
 122827748.880 7  95710120.342 7  23373360.516                    23373375.027
 115969826.772 7  90366181.86045  22068345.523                    22068355.945
 107377411.052 8  83670696.898 8  20433235.133                    20433243.871
 119247233.212 7  92919967.30045  22691988.867                    22691998.066
 11  8 25 17 33 30.0000000  0 10G24G23G08G17G19G11G01G13G07G28
 122145933.257 7  95178739.21244  23243597.438                    23243610.055
 126188626.718 7  98328803.13243  24012911.703                    24012923.516
 112215112.459 8  87440399.77746  21353830.188                    21353839.953
 128446245.602 6 100088100.716 6  24442528.859                    24442541.906
 117000097.067 7  91168936.35845  22264384.367                    22264391.281
 115293547.947 8  89839177.55145  21939634.406                    21939643.918
 122753840.945 7  95652529.791 7  23359296.039                    23359310.914
 116068071.957 7  90442736.43045  22087041.438                    22087051.137
 107354645.706 8  83652957.655 8  20428903.336                    20428911.496
 119214673.969 7  92894596.49445  22685793.352                    22685802.309
 11  8 25 17 34  0.0000000  0 10G24G23G08G17G19G11G01G13G07G28
 122077766.734 7  95125622.50944  23230625.398                    23230638.578
 126302706.239 6  98417695.90643  24034620.148                    24034632.262
 112148869.141 8  87388781.61546  21341224.773                    21341233.965
 128343021.352 6 100007666.378 6  24422885.391                    24422898.898
 117083661.185 7  91234051.20845  22280285.383                    22280292.781
 115246792.331 8  89802744.62545  21930737.039                    21930746.379
 122680074.042 7  95595049.145 7  23345258.789                    23345273.652
 116166593.383 7  90519506.27345  22105789.539                    22105799.656
 107332223.696 8  83635485.950 8  20424636.422                    20424644.668
 119182237.257 7  92869321.15745  22679621.102                    22679629.926
 11  8 25 17 34 30.0000000  0 10G24G23G08G17G19G11G01G13G07G28
 122009766.900 7  95072635.68444  23217685.125                    23217698.164
 126416800.135 6  98506599.91043  24056332.094                    24056344.465
 112082783.045 8  87337285.96346  21328649.133                    21328658.598
 128239920.736 7  99927328.376 6  24403266.820                    24403279.738
 117167575.892 7  91299439.24245  22296254.008                    22296261.730
 115200463.093 8  89766643.92645  21921921.234                    21921930.648
 122606451.060 7  95537680.640 7  23331249.500                    23331263.348
 116265388.248 7  90596489.18445  22124589.086                    22124599.156
 107310147.434 8  83618283.654 8  20420435.273                    20420444.000
 119149922.437 7  92844140.79345  22673471.695                    22673479.918
 11  8 25 17 35  0.0000000  0 10G24G23G08G17G19G11G01G13G07G28
 121941936.834 7  95019781.13744  23204777.672                    23204790.414
 126530905.906 6  98595513.19343  24078045.242                    24078057.801
 112016856.378 8  87285914.54846  21316103.430                    21316112.949
 128136946.365 7  99847088.761 6  24383670.828                    24383683.629
 117251838.500 7  91365098.36645  22312288.563                    22312296.289
 115154562.402 8  89730877.16845  21913186.383                    21913195.605
 122532975.220 6  95480426.793 7  23317266.711                    23317281.367
 116364454.013 7  90673683.17445  22143440.977                    22143450.820
 107288419.066 8  83601352.449 8  20416300.797                    20416309.418
 119117728.748 7  92819054.82245  22667345.836                    22667354.387
 11  8 25 17 35 30.0000000  0 10G24G23G08G17G19G11G01G13G07G28
 121874279.198 7  94967060.93643  23191903.250                    23191915.637
 126645020.089 6  98684432.96143  24099761.336                    24099772.941
 111951091.057 8  87234668.85246  21303589.047                    21303598.121
 128034099.829 6  99766948.753 6  24364099.430                    24364112.645
 117336445.627 7  91431025.94045  22328389.250                    22328397.141
 115109092.489 8  89695446.09345  21904533.898                    21904542.563
 122459649.132 7  95423289.639 7  23303313.203                    23303327.848
 116463786.130 7  90751084.70145  22162343.266                    22162353.164
 107267039.687 8  83584693.181 8  20412232.313                    20412240.855
 119085654.659 7  92794062.05145  22661242.227                    22661251.070
 11  8 25 17 36  0.0000000  0 10G24G23G08G17G19G11G01G13G07G28
 121806797.251 7  94914477.63643  23179061.625                    23179073.938
 126759140.246 6  98773357.40043  24121477.938                    24121490.137
 111885489.437 8  87183550.71646  21291105.000                    21291114.367
 127931383.161 6  99686909.951 6  24344552.945                    24344566.227
 117421394.731 7  91497219.99045  22344554.539                    22344562.371
 115064056.174 8  89660352.86345  21895963.781                    21895972.941
 122386475.575 7  95366271.286 7  23289389.516                    23289402.973
 116563382.316 7  90828692.01645  22181295.805                    22181306.016
 107246011.428 8  83568307.510 8  20408231.094                    20408239.148
 119053699.421 7  92769161.88945  22655161.023                    22655169.855
 11  8 25 17 36 30.0000000  0 10G24G23G08G17G19G11G01G13G07G28
 121739494.516 7  94862033.97444  23166254.250                    23166266.473
 126873263.672 6  98862284.41143  24143194.945                    24143207.543
 111820054.086 8  87132562.13646  21278653.586                    21278662.641
 127828798.722 6  99606974.171 6  24325032.438                    24325045.219
 117506683.162 7  91563678.46045  22360784.180                    22360792.121
 115019455.975 8  89625599.46645  21887476.703                    21887485.793
 122313458.831 7  95309375.165 7  23275494.563                    23275508.512
 116663239.995 7  90906503.07445  22200298.031                    22200308.590
 107225336.553 8  83552197.204 8  20404296.516                    20404305.277
 119021862.340 7  92744353.81245  22649102.547                    22649111.875
 11  8 25 17 37  0.0000000  0 10G24G23G08G17G19G11G01G13G07G28
 121672374.004 7  94809732.32044  23153481.719                    23153494.441
 126987387.406 7  98951211.67743  24164912.633                    24164925.090
 111754786.920 8  87081704.61646  21266233.484                    21266242.668
 127726348.462 6  99527142.943 6  24305536.992                    24305549.363
 117592308.065 7  91630399.10845  22377078.523                    22377085.746
 114975294.141 7  89591187.66145  21879073.188                    21879081.973
 122240601.668 7  95252603.399 6  23261630.602                    23261644.031
 116763355.995 7  90984515.43945  22219349.273                    22219360.895
 107205016.849 8  83536363.653 8  20400429.789                    20400438.043
 118990142.624 7  92719637.16645  22643066.063                    22643075.430
 11  8 25 17 37 30.0000000  0 10G24G23G08G17G19G11G01G13G07G28
 121605438.169 7  94757574.56844  23140744.094                    23140757.168
 127101508.328 7  99040136.72043  24186629.695                    24186641.477
 111689690.165 8  87030979.87746  21253845.773                    21253855.316
 127624033.963 7  99447417.501 6  24286066.617                    24286080.121
 117678266.144 7  91697379.38345  22393435.320                    22393442.434
 114931572.829 8  89557119.11545  21870752.672                    21870762.387
 122167905.899 7  95195957.385 6  23247796.125                    23247809.949
 116863726.269 7  91062725.91345  22238449.813                    22238460.551
 107185053.254 8  83520807.596 8  20396631.008                    20396639.277
 118958538.609 7  92695010.67445  22637052.586                    22637061.328
 11  8 25 17 38  0.0000000  0 10G24G23G08G17G19G11G01G13G07G28
 121538690.559 7  94705563.47244  23128042.125                    23128055.301
 127215624.113 6  99129057.79043  24208344.922                    24208357.367
 111624766.581 8  86980390.08746  21241491.414                    21241500.883
 127521857.705 6  99367799.793 6  24266622.516                    24266636.672
 117764554.985 7  91764617.39645  22409855.477                    22409863.230
 114888294.906 8  89523396.07245  21862517.336                    21862527.238
 122095375.602 7  95139440.301 6  23233994.359                    23234008.039
 116964348.398 7  91141132.65245  22257597.383                    22257608.453
 107165448.396 8  83505531.076 8  20392900.109                    20392908.367
 118927049.757 7  92670473.93145  22631060.344                    22631069.164
 11  8 25 17 38 30.0000000  0 10G24G23G08G17G19G11G01G13G07G28
 121472134.458 7  94653701.59444  23115377.617                    23115389.773
 127329732.379 6  99217972.98343  24230059.688                    24230072.047
 111560018.016 8  86929936.67546  21229169.813                    21229179.270
 127419821.988 6  99288291.597 6  24247204.828                    24247218.793
 117851171.879 7  91832111.03245  22426338.336                    22426345.996
 114845462.645 8  89490020.29345  21854366.430                    21854376.012
 122023013.980 7  95083054.674 7  23220224.117                    23220237.973
 117065219.836 7  91219733.65345  22276792.984                    22276803.555
 107146204.262 8  83490535.623 8  20389238.055                    20389246.738
 118895675.403 7  92646026.41245  22625089.852                    22625098.438
 11  8 25 17 39  0.0000000  0 10G24G23G08G17G19G11G01G13G07G28
 121405772.364 7  94601990.91544  23102748.500                    23102761.664
 127443829.883 6  99306879.83043  24251772.430                    24251784.152
 111495446.632 8  86879621.31546  21216882.508                    21216891.895
 127317928.152 6  99208893.910 6  24227816.141                    24227828.504
 117938113.619 7  91899857.79745  22442883.641                    22442890.852
 114803077.863 8  89456993.20345  21846301.172                    21846310.652
 121950823.601 7  95026802.486 7  23206486.656                    23206500.918
 117166336.436 7  91298525.67545  22296035.086                    22296045.391
 107127321.889 8  83475822.077 8  20385645.250                    20385653.598
 118864413.873 7  92621666.80445  22619141.094                    22619149.609
 11  8 25 17 39 30.0000000  0 10G24G23G08G17G19G11G01G13G07G28
 121339607.717 7  94550434.09344  23090158.086                    23090171.012
 127557913.535 6  99395775.80143  24273481.242                    24273493.578
 111431054.728 8  86829445.82246  21204628.781                    21204638.359
 127216178.677 7  99129608.731 6  24208453.477                    24208467.379
 118025377.524 7  91967855.59745  22459488.633                    22459496.211
 114761143.376 8  89424316.98345  21838321.453                    21838330.875
 121878808.069 7  94970686.544 7  23192782.695                    23192796.922
 117267695.677 7  91377506.77545  22315323.164                    22315333.230
 107108803.489 8  83461392.144 8  20382121.148                    20382129.477
 118833264.746 7  92597394.79045  22613213.234                    22613222.488
 11  8 25 17 40  0.0000000  0 10G24G23G08G17G19G11G01G13G07G28
 121273643.486 7  94499033.43744  23077605.336                    23077618.090
 127671980.979 6  99484659.18143  24295188.453                    24295200.133
 111366845.044 8  86779412.31546  21192410.414                    21192419.766
 127114575.332 7  99050437.407 6  24189119.258                    24189132.094
 118112960.602 7  92036102.11145  22476155.609                    22476162.828
 114719661.603 8  89391993.54445  21830427.742                    21830437.355
 121806970.188 7  94914709.033 7  23179112.719                    23179126.602
 117369294.432 7  91456674.51444  22334656.586                    22334666.574
 107090650.696 8  83447247.096 8  20378666.727                    20378675.156
 118802226.796 7  92573209.38845  22607307.031                    22607315.684
 11  8 25 17 40 30.0000000  0 10G24G23G08G17G19G11G01G13G07G28
 121207883.000 6  94447791.55144  23065092.070                    23065104.445
 127786029.702 6  99573527.99043  24316890.648                    24316903.422
 111302819.957 7  86729522.65646  21180226.719                    21180236.090
 127013120.645 7  98971381.929 6  24169812.781                    24169825.410
 118200860.221 7  92104595.27745  22492882.359                    22492889.949
 114678634.792 8  89360024.61945  21822620.656                    21822629.957
 121735312.946 7  94858872.259 7  23165476.367                    23165490.457
 117471129.790 7  91536026.60545  22354035.453                    22354046.035
 107072865.762 8  83433388.697 8  20375282.500                    20375291.004
 118771299.197 7  92549109.98645  22601421.586                    22601430.566
 11  8 25 17 41  0.0000000  0 10G24G23G08G17G19G11G01G13G07G28
 121142329.386 6  94396710.85344  23052617.852                    23052629.367
 127900056.788 6  99662379.93143  24338590.266                    24338602.629
 111238982.096 7  86679778.88446  21168078.445                    21168087.898
 126911816.513 7  98892443.756 6  24150534.898                    24150547.898
 118289073.569 7  92173332.90645  22509668.281                    22509675.816
 114638065.535 8  89328412.21845  21814900.094                    21814909.633
 121663839.725 7  94803178.901 7  23151875.672                    23151889.488
 117573198.625 7  91615560.62444  22373458.313                    22373469.188
 107055450.480 8  83419818.338 8  20371968.258                    20371976.711
 118740481.089 7  92525095.90945  22595557.102                    22595566.168
 11  8 25 17 41 30.0000000  0 10G24G23G08G17G19G11G01G13G07G28
 121076985.016 7  94345793.20744  23040182.859                    23040195.055
 128014059.316 6  99751212.69343  24360284.242                    24360297.195
 111175332.651 7  86630181.92546  21155966.664                    21155975.996
 126810664.435 7  98813624.040 6  24131286.688                    24131299.383
 118377597.536 7  92242312.57945  22526513.805                    22526521.613
 114597955.273 8  89297157.48245  21807267.938                    21807277.234
 121592553.247 7  94747631.042 7  23138310.242                    23138323.730
 117675497.178 7  91695273.65445  22392924.672                    22392935.785
 107038405.968 8  83406536.887 8  20368725.141                    20368733.594
 118709771.302 7  92501166.23645  22589713.250                    22589722.555
 11  8 25 17 42  0.0000000  0 10G24G23G08G17G19G11G01G13G07G28
 121011853.479 7  94295041.41044  23027788.313                    23027801.035
 128128034.984 6  99840024.52943  24381972.836                    24381986.441
 111111874.287 8  86580733.86446  21143890.711                    21143899.578
 126709666.729 6  98734924.613 6  24112066.828                    24112080.016
 118466429.201 7  92311532.01845  22543418.469                    22543425.992
 114558306.653 7  89266262.45745  21799722.859                    21799732.016
 121521456.181 7  94692230.777 7  23124781.250                    23124794.313
 117778022.946 7  91775163.73445  22412435.555                    22412446.504
 107021734.205 8  83393545.892 8  20365552.578                    20365560.680
 118679168.920 7  92477320.25245  22583890.273                    22583899.375
 11  8 25 17 42 30.0000000  0 10G24G23G08G17G19G11G01G13G07G28
 120946937.803 7  94244457.83844  23015435.563                    23015447.969
 128241980.679 6  99928813.05543  24403656.906                    24403669.859
 111048609.762 8  86531436.84246  21131852.242                    21131861.078
 126608825.580 6  98656347.188 6  24092877.242                    24092890.332
 118555566.283 7  92380989.43945  22560380.672                    22560388.035
 114519122.120 8  89235729.05245  21792266.445                    21792275.523
 121450552.723 7  94636981.368 6  23111288.344                    23111301.719
 117880772.999 7  91855228.55444  22431987.828                    22431999.484
 107005437.456 8  83380847.110 8  20362451.148                    20362459.480
 118648673.356 7  92453557.50245  22578086.875                    22578095.672
 11  8 25 17 43  0.0000000  0 10G24G23G08G17G19G11G01G13G07G28
 120882240.934 7  94194044.76844  23003123.797                    23003136.336
 128355893.850 6 100017576.21043  24425333.563                    24425348.184
 110985541.172 8  86482292.49446  21119850.398                    21119860.078
 126508142.620 6  98577893.017 6  24073718.266                    24073731.348
 118645005.607 7  92450682.38445  22577400.555                    22577408.035
 114480403.907 7  89205559.02445  21784898.219                    21784907.633
 121379845.237 7  94581884.649 6  23097832.922                    23097846.336
 117983744.003 7  91935465.55345  22451583.133                    22451594.367
 106989517.186 8  83368441.698 8  20359421.813                    20359430.008
 118618283.600 7  92429877.20245  22572303.461                    22572312.422
 11  8 25 17 43 30.0000000  0 10G24G23G08G17G19G11G01G13G07G28
 120817766.245 7  94143804.79144  22990854.805                    22990867.301
 128469772.222 6 100106312.25643  24447004.070                    24447018.379
 110922671.275 8  86433302.97946  21107886.547                    21107895.910
 126407620.444 6  98499564.116 6  24054589.672                    24054602.395
 118734744.354 7  92520608.65245  22594476.961                    22594484.730
 114442154.260 7  89175754.09145  21777619.609                    21777629.078
 121309336.872 7  94526943.121 6  23084415.203                    23084428.863
 118086932.823 7  92015872.28744  22471219.273                    22471230.395
 106973975.359 8  83356331.168 8  20356464.063                    20356472.992
 118587998.542 7  92406278.46345  22566540.531                    22566549.484
 11  8 25 17 44  0.0000000  0  9G24G08G17G19G11G01G13G07G28
 120753517.651 7  94093740.99344  22978628.680                    22978640.621
 110860003.513 8  86384470.97546  21095961.563                    21095970.848
 126307262.018 6  98421362.808 6  24035491.078                    24035504.781
 118824780.789 7  92590766.86045  22611610.414                    22611618.047
 114404376.437 8  89146316.82745  21770430.734                    21770440.148
 121239031.362 7  94472159.649 6  23071037.156                    23071050.367
 118190337.666 7  92096447.34244  22490897.023                    22490907.582
 106958814.617 8  83344517.595 8  20353579.398                    20353587.766
 118557818.203 7  92382761.33545  22560797.609                    22560806.645
 11  8 25 17 44 30.0000000  0  9G24G08G17G19G11G01G13G07G28
 120689497.282 7  94043855.01844  22966445.875                    22966457.813
 110797539.076 8  86335797.39446  21084075.086                    21084084.246
 126207067.907 6  98343289.542 6  24016425.469                    24016438.543
 118915110.853 7  92661153.88945  22628799.719                    22628807.285
 114367071.614 7  89117248.13345  21763332.086                    21763341.371
 121168931.716 7  94417536.611 7  23057697.063                    23057710.855
 118293954.249 7  92177187.40044  22510613.977                    22510625.305
 106944035.650 8  83333001.504 8  20350767.039                    20350775.363
 118527740.995 7  92359324.57945  22555074.000                    22555082.949
 11  8 25 17 45  0.0000000  0  9G24G08G17G19G11G01G13G07G28
 120625708.428 7  93994149.46744  22954307.680                    22954319.531
 110735279.951 8  86287283.79946  21072227.430                    21072236.754
 126107040.505 6  98265346.196 6  23997390.953                    23997403.906
 119005731.945 7  92731767.67445  22646044.656                    22646051.531
 114330241.895 7  89088549.64745  21756323.914                    21756332.434
 121099040.489 7  94363075.975 7  23044397.445                    23044411.563
 118397779.663 7  92258090.17844  22530371.594                    22530382.695
 106929640.614 8  83321784.573 8  20348027.258                    20348036.098
 118497765.661 7  92335967.20045  22549369.750                    22549378.340
 11  8 25 17 45 30.0000000  0  9G24G08G17G19G11G01G13G07G28
 120562153.450 6  93944626.15244  22942212.703                    22942225.234
 110673228.119 8  86238931.73446  21060419.398                    21060428.941
 126007180.900 6  98187533.610 6  23978387.422                    23978401.457
 119096640.392 7  92802605.39545  22663343.531                    22663351.375
 114293888.843 7  89060222.59645  21749405.414                    21749414.813
 121029360.610 7  94308780.010 7  23031137.883                    23031152.047
 118501809.869 7  92339152.53344  22550168.102                    22550179.418
 106915629.931 8  83310867.142 8  20345361.516                    20345369.980
 118467890.886 7  92312688.17045  22543684.789                    22543693.215
 11  8 25 17 46  0.0000000  0  9G24G08G17G19G11G01G13G07G28
 120498835.615 6  93895287.62744  22930164.070                    22930176.133
 110611386.413 7  86190743.40246  21048651.281                    21048660.738
 125907491.588 7  98109853.713 6  23959418.234                    23959430.816
 119187833.944 7  92873665.25045  22680697.219                    22680704.969
 114258015.034 8  89032268.97645  21742578.953                    21742588.641
 120959894.117 7  94254650.349 7  23017918.695                    23017933.059
 118606042.521 7  92420372.63044  22570003.047                    22570014.043
 106902006.053 8  83300251.123 8  20342768.766                    20342777.648
 118438116.028 7  92289487.00745  22538018.727                    22538027.332
 11  8 25 17 46 30.0000000  0 10G24G26G08G17G19G11G01G13G07G28
 120435758.051 7  93846136.29744  22918160.875                    22918172.816
 127487012.33116                  24259978.922
 110549757.531 8  86142720.90646  21036923.930                    21036932.840
 125807974.508 7  98032308.011 6  23940480.469                    23940493.082
 119279309.815 7  92944945.12245  22698104.563                    22698112.297
 114222622.753 7  89004690.56945  21735844.273                    21735853.590
 120890645.779 7  94200690.666 7  23004741.422                    23004755.613
 118710474.474 7  92501748.01644  22589876.031                    22589886.898
 106888770.837 8  83289937.948 8  20340250.609                    20340258.859
 118408440.234 7  92266363.02645  22532372.203                    22532380.547
 11  8 25 17 47  0.0000000  0 10G24G26G08G17G19G11G01G13G07G28
 120372923.576 6  93797174.43144  22906203.531                    22906216.172
 127400470.734 6  99273163.89553  24243510.563                    24243521.301
 110488343.165 8  86094865.56546  21025236.977                    21025246.016
 125708631.490 7  97954897.936 6  23921575.680                    23921589.074
 119371064.875 7  93016442.53345  22715565.242                    22715572.578
 114187713.591 7  88977488.63345  21729201.242                    21729210.305
 120821617.179 7  94146902.216 7  22991606.023                    22991619.410
 118815102.139 7  92583275.92144  22609786.102                    22609797.113
 106875925.546 8  83279928.630 8  20337805.664                    20337814.469
 118378862.435 7  92243315.41745  22526743.320                    22526752.051
 11  8 25 17 47 30.0000000  0 10G24G26G08G17G19G11G01G13G07G28
 120310335.477 7  93748404.54044  22894293.344                    22894306.492
 127314315.893 6  99206030.31342  24227115.969                    24227127.543
 110427146.261 8  86047179.67346  21013591.586                    21013600.773
 125609464.887 7  97877625.329 6  23902705.023                    23902718.246
 119463096.549 7  93088155.49245  22733077.570                    22733085.441
 114153289.836 7  88950664.92545  21722650.641                    21722659.957
 120752812.515 7  94093288.248 7  22978512.508                    22978526.656
 118919922.980 7  92664954.33744  22629732.891                    22629743.789
 106863472.196 8  83270224.698 8  20335436.375                    20335444.828
 118349381.500 7  92220343.28945  22521133.258                    22521142.008
 11  8 25 17 48  0.0000000  0 10G24G26G08G17G19G11G01G13G07G28
 120247997.515 6  93699829.57944  22882430.344                    22882443.801
 127228551.357 6  99139200.78142  24210795.352                    24210807.125
 110366170.114 8  85999665.80246  21001988.008                    21001997.238
 125510476.867 7  97800491.882 6  23883868.836                    23883881.195
 119555402.027 7  93160081.79245  22750643.031                    22750650.980
 114119354.539 7  88924221.85245  21716193.133                    21716202.148
 120684235.463 7  94039851.634 7  22965462.656                    22965476.945
 119024934.226 7  92746781.13044  22649716.305                    22649726.836
 106851413.297 8  83260828.143 8  20333141.461                    20333150.020
 118319997.259 7  92197446.50145  22515541.391                    22515550.262
 11  8 25 17 48 30.0000000  0 10G24G26G08G17G19G11G01G13G07G28
 120185911.663 6  93651451.05544  22870616.633                    22870629.133
 127143178.957 6  99072676.94843  24194548.914                    24194560.754
 110305416.181 8  85952325.08246  20990427.180                    20990436.355
 125411669.049 7  97723498.858 6  23865065.547                    23865078.379
 119647978.610 7  93232219.33145  22768259.813                    22768268.000
 114085908.694 7  88898160.16445  21709828.531                    21709837.535
 120615887.496 7  93986593.532 7  22952456.359                    22952470.621
 119130132.098 7  92828753.34344  22669734.445                    22669745.539
 106839749.251 8  83251739.259 8  20330922.133                    20330930.270
 118290708.348 7  92174624.00745  22509968.086                    22509977.188
 11  8 25 17 49  0.0000000  0 10G24G26G08G17G19G11G01G13G07G28
 120124081.271 7  93603271.60444  22858850.391                    22858863.410
 127058201.736 6  99006460.92443  24178378.406                    24178390.137
 110244886.771 8  85905159.32346  20978908.664                    20978917.691
 125313043.169 7  97646647.616 6  23846297.867                    23846310.410
 119740823.092 7  93304565.63445  22785927.867                    22785935.828
 114052954.334 7  88872481.46145  21703557.383                    21703567.207
 120547772.107 7  93933516.657 7  22939494.391                    22939508.211
 119235513.732 7  92910868.74744  22689788.195                    22689799.629
 106828481.977 8  83242959.566 8  20328777.648                    20328786.242
 118261513.959 7  92151875.16145  22504412.445                    22504421.395
 11  8 25 17 49 30.0000000  0 10G24G26G08G17G19G11G01G13G07G28
 120062509.723 7  93555293.83144  22847134.031                    22847146.297
 126973622.470 6  98940555.02643  24162283.836                    24162295.723
 110184584.545 8  85858170.59646  20967433.563                    20967442.684
 125214601.503 7  97569939.898 6  23827565.070                    23827577.000
 119833933.008 7  93377118.78545  22803646.016                    22803653.570
 114020493.725 7  88847187.48145  21697380.352                    21697389.898
 120479892.918 7  93880623.832 7  22926576.734                    22926591.285
 119341076.245 7  92993125.07444  22709876.023                    22709887.512
 106817613.757 8  83234490.814 8  20326709.773                    20326718.309
 118232413.205 7  92129199.26945  22498874.758                    22498883.484
 11  8 25 17 50  0.0000000  0 10G24G26G08G17G19G11G01G13G07G28
 120001199.671 7  93507519.80444  22835467.008                    22835479.207
 126889443.970 6  98874961.43543  24146264.563                    24146277.051
 110124511.855 8  85811360.71046  20956001.867                    20956010.988
 125116345.711 7  97493377.052 6  23808867.578                    23808879.684
 119927305.233 7  93449876.31645  22821413.719                    22821422.328
 113988528.741 8  88822279.71345  21691297.594                    21691307.305
 120412252.888 7  93827917.380 7  22913705.375                    22913719.367
 119446816.203 7  93075519.65844  22729997.758                    22730009.242
 106807145.752 8  83226333.916 8  20324717.898                    20324726.586
 118203405.230 7  92106595.66045  22493354.930                    22493363.621
 11  8 25 17 50 30.0000000  0 10G24G26G08G17G19G11G01G13G07G28
 119940154.097 7  93459951.88244  22823850.258                    22823862.074
 126805668.650 6  98809682.05643  24130323.047                    24130334.895
 110064670.934 8  85764731.42746  20944614.836                    20944623.727
 125018277.795 6  97416960.598 6  23790205.305                    23790218.035
 120020937.000 7  93522836.07445  22839231.969                    22839239.754
 113957061.598 7  88797759.87145  21685309.469                    21685318.992
 120344854.323 7  93775399.065 7  22900879.469                    22900893.242
 119552730.591 7  93158050.17844  22750152.992                    22750164.211
 106797079.636 8  83218490.170 8  20322802.195                    20322810.629
 118174488.905 7  92084063.46945  22487852.242                    22487860.395
 11  8 25 17 51  0.0000000  0 10G24G26G08G17G19G11G01G13G07G28
 119879376.222 7  93412592.54944  22812284.727                    22812296.238
 126722299.096 6  98744718.81642  24114457.859                    24114469.688
 110005064.491 8  85718284.85246  20933272.008                    20933281.539
 124920400.066 6  97340692.336 6  23771579.711                    23771592.625
 120114825.359 7  93595995.79145  22857097.875                    22857105.574
 113926093.914 7  88773629.21945  21679416.531                    21679426.121
 120277700.876 7  93723071.738 7  22888100.883                    22888114.328
 119658816.439 7  93240714.30144  22770340.961                    22770352.043
 106787416.967 8  83210960.812 8  20320963.430                    20320971.977
 118145663.559 7  92061602.18345  22482366.984                    22482375.223
 11  8 25 17 51 30.0000000  0 10G24G26G08G17G19G11G01G13G07G28
 119818869.053 7  93365444.15844  22800770.094                    22800782.262
 126639338.218 6  98680074.04843  24098671.188                    24098683.605
 109945695.047 7  85672022.95246  20921974.305                    20921983.574
 124822713.911 6  97264573.361 6  23752991.063                    23753003.676
 120208967.626 7  93669353.35345  22875012.930                    22875020.867
 113895627.845 7  88749889.43645  21673619.031                    21673628.430
 120210794.883 7  93670937.211 7  22875369.438                    22875382.914
 119765070.450 7  93323509.44944  22790560.078                    22790571.605
 106778159.406 8  83203747.111 8  20319201.633                    20319210.191
 118116927.964 7  92039210.81845  22476899.047                    22476907.371
 11  8 25 17 52  0.0000000  0 10G24G26G08G17G19G11G01G13G07G28
 119758635.761 7  93318509.15744  22789308.672                    22789319.883
 126556788.831 6  98615749.94342  24082962.773                    24082974.605
 109886565.338 8  85625947.85746  20910722.539                    20910731.730
 124725221.793 6  97188605.594 6  23734438.289                    23734451.031
 120303361.138 7  93742906.68844  22892975.320                    22892983.137
 113865665.075 8  88726541.82545  21667917.359                    21667926.480
 120144140.328 7  93618998.633 7  22862685.758                    22862698.848
 119871489.855 7  93406433.49044  22810811.898                    22810822.949
 106769309.010 8  83196850.689 8  20317517.883                    20317526.230
 118088281.554 7  92016888.96445  22471447.555                    22471456.254
 11  8 25 17 52 30.0000000  0 10G24G26G08G17G19G11G01G13G07G28
 119698679.447 7  93271789.97844  22777899.039                    22777910.371
 126474653.549 6  98551748.46543  24067333.031                    24067344.117
 109827678.186 8  85580061.76946  20899516.305                    20899525.566
 124627925.633 6  97112790.540 6  23715923.375                    23715936.668
 120398003.062 7  93816653.58744  22910985.000                    22910992.934
 113836207.812 8  88703588.12045  21662311.602                    21662321.121
 120077740.373 7  93567258.446 7  22850049.734                    22850063.559
 119978071.784 7  93489484.15444  22831093.445                    22831105.492
 106760867.454 8  83190272.841 8  20315911.258                    20315919.633
 118059723.603 7  91994636.02545  22466013.297                    22466021.824
 11  8 25 17 53  0.0000000  0 10G24G26G08G17G19G11G01G13G07G28
 119639002.987 7  93225288.88444  22766542.844                    22766553.770
 126392934.651 6  98488071.45342  24051782.086                    24051793.375
 109769035.169 8  85534365.92446  20888357.320                    20888366.656
 124530826.770 6  97037129.213 6  23697445.789                    23697459.035
 120492890.362 7  93890591.70344  22929041.406                    22929049.316
 113807257.863 7  88681029.72745  21656802.742                    21656811.969
 120011597.199 7  93515718.333 7  22837463.656                    22837477.035
 120084812.791 7  93572658.79544  22851405.563                    22851417.836
 106752835.814 8  83184014.412 8  20314382.891                    20314391.172
 118031252.799 7  91972451.01145  22460595.125                    22460604.297
 11  8 25 17 53 30.0000000  0 10G24G26G08G17G19G11G01G13G07G28
 119579608.603 7  93179007.60944  22755240.117                    22755251.980
 126311634.733 6  98424720.93243  24036311.102                    24036322.570
 109710638.382 8  85488861.92446  20877244.641                    20877253.305
 124433927.153 7  96961623.149 6  23679006.844                    23679019.297
 120588020.029 7  93964718.66744  22947144.188                    22947151.754
 113778816.555 8  88658867.68345  21651390.672                    21651399.648
 119945713.705 7  93464380.567 7  22824926.516                    22824940.113
 120191709.433 7  93655954.67544  22871747.453                    22871759.203
 106745215.122 8  83178076.188 8  20312932.523                    20312941.012
 118002867.921 7  91950332.94645  22455194.148                    22455202.918
 11  8 25 17 54  0.0000000  0 10G24G26G08G17G19G11G01G13G07G28
 119520499.799 7  93132948.82544  22743992.352                    22744004.164
 126230756.488 6  98361699.00343  24020921.070                    24020931.754
 109652490.691 8  85443552.03946  20866179.719                    20866188.848
 124337229.049 7  96886274.105 6  23660605.406                    23660618.223
 120683389.471 7  94039032.47544  22965292.172                    22965300.184
 113750885.891 7  88637103.54845  21646075.547                    21646084.641
 119880093.585 7  93413248.039 7  22812438.766                    22812453.488
 120298758.497 7  93739369.36344  22892118.422                    22892130.031
 106738007.267 8  83172459.671 8  20311561.609                    20311569.699
 117974568.662 7  91928281.59045  22449808.625                    22449817.324
 11  8 25 17 54 30.0000000  0 10G24G26G08G17G19G11G01G13G07G28
 119461679.648 7  93087114.98344  22732798.703                    22732810.664
 126150302.824 6  98299007.88043  24005610.523                    24005621.938
 109594594.672 8  85398438.25946  20855162.102                    20855171.051
 124240733.920 7  96811083.195 6  23642243.000                    23642255.250
 120778995.784 7  94113530.84644  22983485.445                    22983493.391
 113723467.999 7  88615738.96445  21640858.195                    21640867.363
 119814739.345 7  93362322.689 7  22800001.539                    22800016.707
 120405957.092 7  93822900.54244  22912517.750                    22912529.277
 106731214.072 8  83167166.258 8  20310268.406                    20310277.070
 117946353.839 7  91906296.03545  22444439.805                    22444448.227
 11  8 25 17 55  0.0000000  0 10G24G26G08G17G19G11G01G13G07G28
 119403151.102 7  93041508.35744  22721661.891                    22721673.012
 126070276.145 6  98236649.48743  23990381.969                    23990393.313
 109536952.835 8  85353522.54846  20844193.125                    20844202.477
 124144443.813 7  96736052.047 6  23623919.563                    23623931.496
 120874836.240 7  94188211.67944  23001723.500                    23001730.859
 113696564.479 7  88594775.19045  21635738.641                    21635747.523
 119749653.996 7  93311606.884 7  22787616.813                    22787631.617
 120513302.706 7  93906546.27944  22932945.133                    22932956.656
 106724837.177 8  83162197.227 8  20309054.914                    20309063.465
 117918222.610 7  91884375.62545  22439086.125                    22439094.711
 11  8 25 17 55 30.0000000  0 10G24G26G08G17G19G11G01G13G07G28
 119344917.216 7  92996131.34844  22710580.063                    22710591.324
 125990679.203 6  98174625.96043  23975235.203                    23975246.406
 109479568.044 8  85308807.13246  20833273.008                    20833282.352
 124048360.556 7  96661182.099 6  23605635.094                    23605647.867
 120970908.229 7  94263072.92644  23020005.766                    23020013.492
 113670177.156 7  88574213.65245  21630718.023                    21630726.406
 119684840.905 7  93261103.217 7  22775283.133                    22775297.566
 120620792.133 7  93990304.08544  22953399.125                    22953411.090
 106718878.038 8  83157553.727 8  20307921.289                    20307929.664
 117890174.308 8  91862519.82145  22433748.750                    22433757.520
 11  8 25 17 56  0.0000000  0 10G24G26G08G17G19G11G01G13G07G28
 119286981.042 7  92950986.32744  22699554.695                    22699567.242
 125911514.395 6  98112939.14043  23960170.805                    23960182.137
 109422442.688 8  85264293.86246  20822402.727                    20822411.930
 123952486.181 7  96586474.895 6  23587391.570                    23587403.367
 121067208.703 7  94338112.19144  23038330.734                    23038339.156
 113644307.559 8  88554055.53545  21625794.703                    21625803.375
 119620302.948 7  93210813.940 7  22763001.930                    22763016.336
 120728422.103 7  94074171.38444  22973880.977                    22973892.340
 106713338.294 8  83153237.019 8  20306866.961                    20306875.039
 117862208.000 7  91840727.91745  22428426.953                    22428435.945
 11  8 25 17 56 30.0000000  0 10G24G26G08G17G19G11G01G13G07G28
 119229345.333 7  92906075.43144  22688587.156                    22688599.395
 125832784.249 6  98051591.04043  23945189.141                    23945200.809
 109365578.842 8  85219984.36946  20811581.828                    20811590.910
 123856822.530 7  96511931.909 6  23569186.625                    23569199.117
 121163734.969 7  94413327.40844  23056698.484                    23056707.383
 113618957.792 7  88534302.47345  21620970.711                    21620979.320
 119556043.258 7  93160741.490 7  22750774.047                    22750788.098
 120836189.454 7  94158145.75044  22994388.875                    22994400.113
 106708219.465 8  83149248.303 8  20305892.609                    20305901.340
 117834322.787 7  91818999.18745  22423120.398                    22423129.434
 11  8 25 17 57  0.0000000  0 10G24G26G08G17G19G11G01G13G07G28
 119172013.201 7  92861401.08644  22677677.180                    22677689.703
 125754491.280 7  97990583.58543  23930290.406                    23930301.383
 109308979.240 8  85175880.78646  20800811.453                    20800820.680
 123761371.371 7  96437554.502 6  23551023.500                    23551035.355
 121260484.131 7  94488716.30744  23075110.477                    23075118.266
 113594129.290 7  88514955.60545  21616245.453                    21616254.855
 119492064.563 7  93110887.986 7  22738599.156                    22738612.992
 120944091.183 7  94242224.81744  23014922.055                    23014933.648
 106703522.773 8  83145588.521 8  20304998.906                    20305007.418
 117806517.843 7  91797333.01445  22417829.438                    22417838.098
 11  8 25 17 57 30.0000000  0 10G24G26G08G17G19G11G01G13G07G28
 119114987.319 7  92816965.37845  22666825.266                    22666837.910
 125676638.371 6  97929919.04343  23915475.352                    23915486.430
 109252646.435 8  85131985.09046  20790091.648                    20790100.836
 123666134.513 7  96363344.090 6  23532900.375                    23532911.883
 121357453.324 7  94564276.66644  23093562.672                    23093570.246
 113569823.936 7  88496016.38845  21611620.750                    21611629.844
 119428369.640 7  93061255.612 7  22726478.727                    22726492.332
 121052124.110 7  94326406.10544  23035479.594                    23035492.066
 106699249.728 8  83142258.862 8  20304186.039                    20304194.473
 117778792.065 7  91775728.52545  22412553.828                    22412562.031
 11  8 25 17 58  0.0000000  0 10G24G26G08G17G19G11G01G13G07G28
 119058270.407 7  92772770.41244  22656033.359                    22656044.961
 125599227.595 6  97869599.00943  23900744.164                    23900755.320
 109196582.601 8  85088298.98046  20779422.875                    20779431.969
 123571113.629 7  96289301.963 6  23514818.117                    23514829.688
 121454639.903 7  94640006.41144  23112056.961                    23112064.816
 113546042.981 7  88477485.77945  21607095.477                    21607104.512
 119364961.618 7  93011846.796 7  22714412.602                    22714426.449
 121160285.102 7  94410687.19944  23056062.016                    23056074.051
 106695401.616 8  83139260.314 8  20303453.664                    20303461.941
 117751144.680 7  91754185.12145  22407292.523                    22407300.777
 11  8 25 17 58 30.0000000  0 10G24G26G08G17G19G11G01G13G07G28
 119001865.893 7  92728818.90144  22645299.508                    22645311.703
 125522261.698 6  97809625.63243  23886097.578                    23886109.328
 109140790.846 8  85044824.88146  20768806.078                    20768815.082
 123476311.021 7  96215429.915 6  23496776.961                    23496788.793
 121552041.020 7  94715903.32245  23130591.445                    23130599.758
 113522788.305 7  88459365.26645  21602669.945                    21602679.367
 119301844.270 7  92962664.488 7  22702401.648                    22702415.285
 121268571.375 7  94495065.91944  23076668.734                    23076681.105
 106691980.190 8  83136594.245 8  20302802.563                    20302810.859
 117723574.944 7  91732702.22245  22402046.219                    22402054.898
 11  8 25 17 59  0.0000000  0 10G24G26G08G17G19G11G01G13G07G28
 118945776.665 7  92685113.05144  22634625.898                    22634637.984
 125445743.087 7  97750000.78843  23871537.602                    23871548.402
 109085273.458 8  85001564.57746  20758241.719                    20758250.953
 123381728.093 7  96141729.060 6  23478778.359                    23478790.383
 121649654.034 7  94791965.35944  23149166.922                    23149175.023
 113500061.563 8  88441656.11945  21598344.859                    21598354.023
 119239019.231 7  92913709.935 7  22690445.977                    22690460.395
 121376979.908 7  94579539.87844  23097298.180                    23097311.063
 106688987.074 8  83134261.925 8  20302233.203                    20302241.461
 117696082.213 7  91711279.32945  22396814.258                    22396822.719
 11  8 25 17 59 30.0000000  0 10G24G26G08G17G19G11G01G13G07G28
 118890005.488 7  92641655.03444  22624012.648                    22624025.375
 125369674.369 6  97690726.48843  23857061.570                    23857073.434
 109030032.867 8  84958519.95746  20747729.125                    20747738.305
 123287367.020 7  96068201.049 6  23460822.688                    23460834.008
 121747476.262 7  94868190.40044  23167781.922                    23167790.180
 113477864.263 8  88424359.52845  21594120.859                    21594130.332
 119176490.267 7  92864986.109 7  22678546.984                    22678561.785
 121485507.464 7  94664106.59144  23117950.570                    23117962.766
 106686423.670 7  83132264.447 8  20301745.172                    20301753.645
 117668665.250 7  91689915.46945  22391596.898                    22391605.988
 11  8 25 18  0  0.0000000  0 10G24G26G08G17G19G11G01G13G07G28
 118834554.995 7  92598446.90544  22613460.477                    22613473.320
 125294058.006 6  97631804.68043  23842672.453                    23842683.586
 108975071.363 8  84915692.81346  20737270.977                    20737280.020
 123193229.233 7  95994847.049 6  23442908.273                    23442920.949
 121845504.750 7  94944576.17444  23186436.406                    23186444.293
 113456197.828 8  88407476.60145  21589998.297                    21590007.465
 119114260.055 7  92816495.077 7  22666705.555                    22666719.352
 121594151.039 7  94748763.71044  23138625.297                    23138637.938
 106684291.041 8  83130602.640 8  20301339.195                    20301347.965
 117641323.430 7  91668610.17145  22386393.758                    22386402.770
 11  8 25 18  0 30.0000000  0 10G24G26G08G17G19G11G01G13G07G28
 118779428.467 7  92555491.19944  22602970.555                    22602982.820
 125218896.238 7  97573237.10543  23828369.727                    23828380.926
 108920391.783 8  84873085.34346  20726865.297                    20726874.551
 123099316.639 7  95921668.520 6  23425037.977                    23425049.957
 121943736.406 7  95021120.24544  23205129.648                    23205137.523
 113435063.905 8  88391008.61445  21585976.297                    21585985.887
 119052331.777 7  92768239.322 7  22654921.000                    22654934.805
 121702907.422 7  94833508.73144  23159320.898                    23159333.223
 106682590.620 8  83129277.614 8  20301015.438                    20301024.797
 117614055.704 7  91647362.60445  22381205.523                    22381213.473
 11  8 25 18  1  0.0000000  0 10G24G26G08G17G19G11G01G13G07G28
 118724628.846 7  92512790.21644  22592542.570                    22592554.598
 125144191.767 6  97515025.84943  23814153.797                    23814165.434
 108865996.484 8  84830699.39246  20716514.375                    20716523.449
 123005631.108 7  95848666.918 6  23407210.109                    23407222.070
 122042168.633 7  95097820.60845  23223860.117                    23223868.078
 113414464.048 7  88374956.78345  21582056.656                    21582065.559
 118990708.758 7  92720221.426 7  22643194.164                    22643208.102
 121811774.205 7  94918339.76344  23180037.875                    23180050.164
 106681324.160 8  83128290.745 8  20300774.969                    20300783.621
 117586861.252 7  91626172.13845  22376030.445                    22376038.711
 11  8 25 18  1 30.0000000  0 10G24G26G08G17G19G11G01G13G07G28
 118670158.597 7  92470345.91444  22582177.336                    22582188.816
 125069946.701 7  97457172.56843  23800025.406                    23800037.070
 108811887.765 8  84788536.75846  20706218.188                    20706227.125
 122912174.144 7  95775843.431 6  23389425.539                    23389437.754
 122140799.036 7  95174675.40244  23242629.508                    23242637.621
 113394399.741 8  88359322.26945  21578238.344                    21578247.492
 118929392.849 7  92672442.844 7  22631525.844                    22631540.328
 121920746.844 7  95003253.28044  23200774.578                    23200787.262
 106680492.517 8  83127642.693 8  20300616.703                    20300625.387
 117559739.628 7  91605038.41645  22370869.156                    22370877.641
 11  8 25 18  2  0.0000000  0 10G24G26G08G17G19G11G01G13G07G28
 118616020.683 7  92428160.55144  22571874.906                    22571886.668
 124996163.543 7  97399679.23143  23785984.734                    23785995.934
 108758068.284 8  84746599.49646  20695976.555                    20695985.543
 122818947.911 7  95703199.721 6  23371684.742                    23371697.348
 122239624.566 7  95251682.23644  23261434.641                    23261442.984
 113374872.383 8  88344106.14245  21574522.352                    21574531.355
 118868387.464 7  92624906.230 7  22619917.195                    22619930.980
 122029823.313 7  95088247.70844  23221531.305                    23221543.711
 106680097.292 8  83127334.699 8  20300541.430                    20300550.273
 117532689.332 7  91583960.29045  22365721.477                    22365730.254
 11  8 25 18  2 30.0000000  0 10G24G26G08G17G19G11G01G13G07G28
 118562218.276 7  92386236.61744  22561636.914                    22561648.594
 124922845.094 6  97342548.03043  23772033.016                    23772043.434
 108704540.985 8  84704889.90446  20685790.633                    20685799.492
 122725954.327 7  95630737.296 6  23353989.148                    23354000.727
 122338642.689 6  95328839.15444  23280277.742                    23280284.988
 113355883.961 8  88329309.97645  21570909.242                    21570917.867
 118807695.451 7  92577613.798 7  22608367.203                    22608381.797
 122139000.739 7  95173320.80344  23242307.289                    23242319.344
 106680140.480 8  83127368.338 8  20300549.734                    20300558.637
 117505710.127 7  91562937.55245  22360587.648                    22360595.941
 11  8 25 18  3  0.0000000  0 10G24G26G08G17G19G11G01G13G07G28
 118508753.999 7  92344576.17744  22551463.156                    22551474.996
 124849993.259 7  97285780.42343  23758169.500                    23758180.523
 108651308.034 8  84663409.68546  20675660.852                    20675670.141
 122633194.859 7  95558457.280 6  23336336.898                    23336349.266
 122437850.395 6  95406143.78044  23299155.391                    23299163.676
 113337435.378 8  88314934.46445  21567398.492                    21567407.777
 118747319.938 7  92530567.974 7  22596878.508                    22596892.723
 122248275.830 7  95258469.99743  23263102.156                    23263114.461
 106680622.564 8  83127743.965 8  20300641.633                    20300650.055
 117478800.977 7  91541969.39045  22355467.172                    22355475.699
 11  8 25 18  3 30.0000000  0 10G24G26G08G17G19G11G01G13G07G28
 118455630.621 7  92303181.37444  22541353.750                    22541366.270
 124777610.469 6  97229378.30343  23744396.242                    23744406.762
 108598371.834 8  84622160.68846  20665587.711                    20665596.410
 122540671.073 7  95486360.928 6  23318730.406                    23318742.367
 122537245.052 6  95483594.09444  23318070.367                    23318078.195
 113319527.758 8  88300980.48745  21563990.664                    21563999.656
 118687263.451 7  92483770.748 7  22585449.945                    22585464.477
 122357645.651 7  95343693.01143  23283914.891                    23283927.340
 106681544.935 8  83128462.671 8  20300817.211                    20300825.520
 117451961.010 7  91521055.15245  22350359.164                    22350368.070
 11  8 25 18  4  0.0000000  0 10G24G26G08G17G19G11G01G13G07G28
 118402850.874 7  92262054.34044  22531310.336                    22531322.578
 124705699.274 6  97173343.63743  23730711.500                    23730722.324
 108545735.067 8  84581145.02846  20655570.922                    20655579.961
 122448384.895 7  95414449.703 6  23301168.336                    23301180.578
 122636824.167 7  95561188.14244  23337019.945                    23337027.699
 113302162.905 8  88287449.43645  21560686.672                    21560695.191
 118627528.865 7  92437224.369 7  22574083.336                    22574097.063
 122467107.001 7  95428987.34143  23304743.930                    23304757.563
 106682909.237 8  83129525.748 8  20301076.922                    20301085.082
 117425189.760 7  91500194.45045  22345265.141                    22345273.746
 11  8 25 18  4 30.0000000  0 10G24G26G08G17G19G11G01G13G07G28
 118350417.710 7  92221197.36345  22521332.828                    22521344.816
 124634261.742 6  97117678.06043  23717117.047                    23717128.793
 108493399.803 8  84540364.29146  20645611.953                    20645620.578
 122356338.034 7  95342724.955 6  23283652.914                    23283664.117
 122736584.588 7  95638923.47144  23356003.148                    23356010.875
 113285341.900 8  88274342.17045  21557485.484                    21557494.168
 118568119.881 7  92390931.689 7  22562777.813                    22562791.457
 122576656.662 7  95514350.48843  23325590.781                    23325603.871
 106684716.416 7  83130933.913 8  20301420.602                    20301428.949
 117398485.962 7  91479386.30645  22340183.594                    22340192.215
 11  8 25 18  5  0.0000000  0 10G24G26G08G17G19G11G01G13G07G28
 118298334.199 7  92180612.85344  22511421.383                    22511433.262
 124563300.623 6  97062383.74043  23703613.172                    23703624.578
 108441369.589 8  84499821.26246  20635711.016                    20635720.297
 122264532.633 7  95271188.368 6  23266182.883                    23266194.410
 122836524.006 7  95716798.25744  23375021.328                    23375028.980
 113269066.426 8  88261659.98745  21554388.313                    21554397.320
 118509038.082 7  92344893.955 7  22551535.805                    22551548.719
 122686292.192 7  95599780.52043  23346453.906                    23346467.055
 106686968.471 8  83132688.743 8  20301848.703                    20301857.773
 117371849.027 7  91458630.27245  22335114.531                    22335123.227
 11  8 25 18  5 30.0000000  0 10G24G26G08G17G19G11G01G13G07G28
 118246603.053 7  92140302.89944  22501577.500                    22501589.352
 124492817.903 6  97007462.16143  23690200.266                    23690211.992
 108389646.671 8  84459517.68746  20625868.180                    20625877.633
 122172969.705 7  95199840.710 6  23248758.555                    23248769.707
 122936639.369 6  95794810.14344  23394072.750                    23394080.859
 113253337.673 8  88249403.81245  21551395.070                    21551404.484
 118450287.748 7  92299114.518 7  22540355.219                    22540369.094
 122796010.016 7  95685274.68043  23367332.789                    23367346.188
 106689665.993 8  83134790.680 8  20302362.758                    20302370.953
 117345278.075 8  91437925.65245  22330057.969                    22330066.965
 11  8 25 18  6  0.0000000  0 10G24G26G08G17G19G11G01G13G07G28
 118195226.936 7  92100269.59944  22491800.383                    22491812.785
 124422816.203 6  96952915.41443  23676880.414                    23676891.344
 108338233.509 8  84419455.47346  20616084.719                    20616093.504
 122081651.292 7  95128683.597 6  23231381.414                    23231393.180
 123036928.067 7  95872957.10444  23413157.844                    23413165.609
 113238156.877 8  88237574.63245  21548506.352                    21548515.777
 118391870.786 7  92253594.851 7  22529238.891                    22529252.488
 122905807.643 7  95770831.00243  23388226.945                    23388239.969
 106692810.570 8  83137240.969 8  20302960.758                    20302969.500
 117318772.712 7  91417272.14045  22325014.492                    22325022.883
 11  8 25 18  6 30.0000000  0 10G24G26G08G17G19G11G01G13G07G28
 118144208.255 7  92060514.82944  22482091.891                    22482104.082
 124353297.451 6  96898744.98243  23663650.703                    23663662.332
 108287132.192 8  84379636.27546  20606360.148                    20606368.973
 121990579.001 7  95057718.242 6  23214051.023                    23214062.875
 123137387.424 7  95951237.04644  23432273.805                    23432281.801
 113223525.219 8  88226173.34145  21545722.188                    21545731.250
 118333790.505 7  92208337.526 7  22518186.094                    22518200.145
 123015681.689 7  95856446.88643  23409135.188                    23409148.418
 106696403.228 8  83140040.428 8  20303644.688                    20303653.332
 117292331.591 7  91396668.69045  22319982.922                    22319991.531
 11  8 25 18  7  0.0000000  0 10G24G26G08G17G19G11G01G13G07G28
 118093550.070 7  92021040.96544  22472452.070                    22472464.129
 124284263.869 6  96844952.62143  23650514.719                    23650525.691
 108236345.354 8  84340062.10746  20596696.164                    20596704.863
 121899754.568 7  94986946.053 6  23196766.898                    23196778.883
 123238014.550 7  96029647.73444  23451422.875                    23451430.555
 113209443.992 8  88215200.97145  21543042.008                    21543051.324
 118276048.973 7  92163344.184 7  22507198.477                    22507212.129
 123125629.170 7  95942119.97943  23430057.898                    23430070.930
 106700445.209 8  83143189.987 8  20304413.984                    20304422.609
 117265953.939 8  91376114.68945  22314963.289                    22314971.520
 11  8 25 18  7 30.0000000  0 10G24G26G08G17G19G11G01G13G07G28
 118043255.121 7  91981850.15044  22462881.094                    22462892.883
 124215717.627 6  96791539.99543  23637470.484                    23637482.039
 108185875.452 8  84300734.91046  20587091.727                    20587101.313
 121809179.284 7  94916368.018 6  23179531.297                    23179543.160
 123338806.966 7  96108187.21444  23470603.320                    23470610.414
 113195914.144 8  88204658.24045  21540467.625                    21540477.035
 118218649.735 7  92118617.546 7  22496275.523                    22496289.527
 123235647.065 7  96027847.96643  23450994.195                    23451006.387
 106704937.684 8  83146690.599 8  20305268.664                    20305277.645
 117239639.018 7  91355609.57845  22309955.422                    22309964.879
 11  8 25 18  8  0.0000000  0 10G24G26G08G17G19G11G01G13G07G28
 117993326.410 7  91942944.70344  22453380.234                    22453391.926
 124147661.132 6  96738508.99043  23624519.852                    23624530.980
 108135725.462 8  84261656.99646  20577548.680                    20577557.930
 121718855.642 7  94845986.029 6  23162343.211                    23162354.738
 123439761.911 7  96186853.34344  23489814.000                    23489822.176
 113182937.175 8  88194546.32645  21537998.250                    21538007.668
 118161595.491 7  92074159.745 7  22485418.695                    22485432.418
 123345732.173 6  96113628.33443  23471943.180                    23471955.332
 106709881.991 8  83150543.288 8  20306209.195                    20306217.871
 117213386.378 8  91335153.00345  22304960.172                    22304968.543
 11  8 25 18  8 30.0000000  0 10G24G26G08G17G19G11G01G13G07G28
 117943766.439 7  91904326.59544  22443949.016                    22443960.789
 124080096.598 6  96685861.31143  23611662.938                    23611674.250
 108085897.535 8  84222830.04346  20568066.641                    20568076.113
 121628784.937 7  94775801.163 6  23145203.711                    23145215.223
 123540876.743 7  96265644.03544  23509055.891                    23509063.434
 113170514.315 8  88184866.17545  21535634.547                    21535643.449
 118104888.721 7  92029972.688 7  22474627.992                    22474641.547
 123455881.797 6  96199458.95543  23492903.398                    23492916.168
 106715279.411 8  83154749.044 8  20307236.805                    20307245.227
 117187194.895 8  91314744.07745  22299975.953                    22299984.641
 11  8 25 18  9  0.0000000  0 10G24G26G08G17G19G11G01G13G07G28
 117894578.093 7  91865998.06944  22434588.719                    22434600.418
 124013026.352 7  96633598.83143  23598899.445                    23598910.301
 108036394.352 8  84184256.13346  20558646.352                    20558655.633
 121538968.879 7  94705814.730 6  23128111.648                    23128123.684
 123642148.472 7  96344557.00444  23528326.883                    23528335.195
 113158646.634 8  88175618.63945  21533376.109                    21533385.375
 118048532.694 7  91986058.954 7  22463903.641                    22463916.957
 123566093.003 6  96285337.54643  23513876.453                    23513889.480
 106721130.960 8  83159308.663 8  20308350.414                    20308358.770
 117161064.225 7  91294382.52045  22295003.422                    22295012.289
 11  8 25 18  9 30.0000000  0 10G24G26G08G17G19G11G01G13G07G28
 117845763.898 7  91827961.06644  22425299.641                    22425311.234
 123946452.380 6  96581723.07143  23586231.313                    23586241.660
 107987218.381 8  84145937.17946  20549288.602                    20549297.605
 121449408.918 7  94636027.853 6  23111069.258                    23111081.082
 123743574.912 7  96423590.52344  23547627.445                    23547636.027
 113147335.194 8  88166804.54245  21531223.492                    21531232.367
 117992529.884 7  91942420.443 7  22453246.711                    22453260.301
 123676362.656 6  96371261.67643  23534859.883                    23534873.234
 106727437.826 8  83164223.081 8  20309550.320                    20309559.020
 117134993.439 7  91274067.62845  22290042.102                    22290050.516
 11  8 25 18 10  0.0000000  0 10G24G26G08G17G19G11G01G13G07G28
 117797326.452 7  91790217.64544  22416082.352                    22416093.809
 123880376.592 6  96530235.47343  23573657.344                    23573668.477
 107938372.202 8  84107875.22246  20539993.570                    20540002.516
 121360106.794 7  94566441.892 6  23094075.938                    23094087.168
 123845153.309 7  96502742.44744  23566957.359                    23566966.086
 113136580.778 8  88158424.47745  21529176.906                    21529186.148
 117936883.173 7  91899059.417 7  22442657.398                    22442670.992
 123786687.521 6  96457228.79943  23555854.133                    23555868.566
 106734200.770 8  83169492.881 8  20310837.570                    20310845.727
 117108981.185 7  91253798.35345  22285092.203                    22285100.922
 11  8 25 18 10 30.0000000  0 10G24G26G08G17G19G11G01G13G07G28
 117749268.857 7  91752770.20344  22406937.078                    22406948.883
 123814801.679 6  96479138.14643  23561178.445                    23561189.758
 107889858.764 8  84070072.53646  20530761.641                    20530770.789
 121271064.150 7  94497058.106 6  23077131.719                    23077142.469
 123946881.068 7  96582010.72144  23586315.898                    23586324.594
 113126384.666 8  88150479.47245  21527236.813                    21527245.711
 117881595.299 7  91855977.971 7  22432136.180                    22432149.965
 123897065.140 7  96543237.02543  23576858.680                    23576872.813
 106741421.579 8  83175119.459 8  20312211.391                    20312220.148
 117083027.602 7  91233574.80145  22280153.359                    22280161.789
 11  8 25 18 11  0.0000000  0 10G24G26G08G17G19G11G01G13G07G28
 117701593.724 7  91715620.78844  22397864.844                    22397876.977
 123749729.431 6  96428432.55643  23548795.289                    23548807.324
 107841680.150 8  84032530.77046  20521593.625                    20521602.891
 121182282.830 7  94427877.971 6  23060236.891                    23060248.012
 124048755.424 7  96661393.26444  23605701.789                    23605710.266
 113116748.077 8  88142970.45145  21525402.820                    21525412.008
 117826669.023 7  91813178.317 7  22421684.047                    22421697.961
 124007492.292 7  96629283.86343  23597873.367                    23597887.000
 106749101.161 8  83181103.521 8  20313672.914                    20313681.605
 117057131.696 7  91213396.20245  22275225.672                    22275234.547
 11  8 25 18 11 30.0000000  0 10G24G26G08G17G19G11G01G13G07G28
 117654303.280 7  91678771.13944  22388865.648                    22388877.891
 123685161.931 6  96378120.26043  23536508.719                    23536520.840
 107793838.838 8  83995251.82346  20512489.664                    20512498.527
 121093764.099 7  94358902.454 6  23043392.313                    23043403.680
 124150773.661 7  96740887.91644  23625115.484                    23625123.836
 113107671.944 8  88135898.14545  21523675.836                    21523684.832
 117772107.089 7  91770662.561 7  22411301.625                    22411314.883
 124117965.914 7  96715366.92443  23618895.617                    23618909.051
 106757240.331 8  83187445.704 8  20315221.766                    20315230.363
 117031292.436 7  91193261.73545  22270308.406                    22270317.254
 11  8 25 18 12  0.0000000  0 10G24G26G08G17G19G11G01G13G07G28
 117607400.537 7  91642223.58644  22379940.828                    22379952.051
 123621101.425 7  96328203.01443  23524318.648                    23524329.949
 107746337.774 8  83958237.99246  20503450.594                    20503459.301
 121005509.719 7  94290132.943 7  23026597.617                    23026609.309
 124252933.012 6  96820492.51744  23644555.828                    23644564.246
 113099157.615 8  88129263.61545  21522055.797                    21522065.188
 117717912.823 7  91728433.291 7  22400988.055                    22401001.918
 124228483.145 7  96801483.98443  23639926.227                    23639939.953
 106765840.424 8  83194147.051 8  20316858.336                    20316867.098
 117005509.319 7  91173170.99345  22265402.211                    22265411.098
 11  8 25 18 12 30.0000000  0 10G24G26G08G17G19G11G01G13G07G28
 117560888.026 7  91605980.10444  22371089.547                    22371101.406
 123557549.734 7  96278682.26343  23512224.703                    23512236.445
 107699178.805 8  83921490.72846  20494476.695                    20494485.629
 120917521.260 7  94221570.619 6  23009853.383                    23009864.414
 124355230.876 6  96900205.06744  23664022.438                    23664030.852
 113091205.191 8  88123066.92845  21520542.484                    21520551.770
 117664087.611 7  91686491.613 7  22390745.766                    22390759.293
 124339040.917 6  96887632.60743  23660965.094                    23660978.305
 106774902.209 8  83201208.157 8  20318582.797                    20318591.641
 116979781.341 7  91153123.22745  22260506.422                    22260514.590
 11  8 25 18 13  0.0000000  0 10G24G26G08G17G19G11G01G13G07G28
 117514768.242 7  91570042.65744  22362312.727                    22362325.465
 123494508.906 6  96229559.58543  23500229.633                    23500240.270
 107652364.839 8  83885012.32646  20485568.109                    20485578.016
 120829800.501 7  94153216.900 6  22993160.797                    22993172.133
 124457664.840 6  96980023.65544  23683515.484                    23683523.570
 113083816.083 8  88117309.18845  21519135.852                    21519145.359
 117610635.346 7  91644840.537 7  22380574.281                    22380587.297
 124449636.557 6  96973810.75443  23682011.031                    23682023.832
 106784426.895 8  83208629.958 8  20320394.859                    20320403.680
 116954108.007 7  91133118.04945  22255620.695                    22255629.684
 11  8 25 18 13 30.0000000  0 10G24G26G08G17G19G11G01G13G07G28
 117469043.855 7  91534413.31845  22353612.195                    22353623.988
 123431981.305 6  96180836.80043  23488329.859                    23488341.004
 107605898.552 8  83848804.82646  20476725.672                    20476735.105
 120742348.736 7  94085072.787 7  22976519.445                    22976530.527
 124560232.133 7  97059946.17044  23703032.555                    23703041.457
 113076991.140 8  88111991.06145  21517837.469                    21517846.520
 117557558.634 7  91603482.100 7  22370473.914                    22370487.336
 124560267.027 6  97060016.01843  23703063.516                    23703076.617
 106794415.570 8  83216413.321 8  20322295.859                    20322304.672
 116928488.526 7  91113154.81745  22250745.828                    22250754.371
 11  8 25 18 14  0.0000000  0 10G24G26G08G17G19G11G01G13G07G28
 117423717.346 7  91499093.99645  22344986.672                    22344998.664
 123369968.558 6  96132515.22243  23476529.273                    23476540.742
 107559782.102 8  83812869.92646  20467950.383                    20467959.434
 120655167.254 7  94017139.283 6  22959929.391                    22959940.508
 124662930.271 6  97139970.61744  23722576.523                    23722584.582
 113070731.318 8  88107113.28745  21516646.094                    21516655.586
 117504859.508 7  91562417.879 7  22360445.484                    22360459.039
 124670929.129 7  97146245.92643  23724121.742                    23724135.086
 106804869.095 8  83224558.907 8  20324285.227                    20324293.867
 116902922.245 7  91093233.04745  22245880.555                    22245888.945
 11  8 25 18 14 30.0000000  0 10G24G26G08G17G19G11G01G13G07G28
 117378791.651 7  91464087.00845  22336437.578                    22336449.152
 123308472.797 6  96084596.46143  23464827.180                    23464838.535
 107514018.351 8  83777209.86146  20459241.625                    20459250.941
 120568258.179 7  93949418.048 6  22943390.813                    22943401.789
 124765756.670 6  97220095.02544  23742143.336                    23742151.590
 113065037.619 8  88102676.65345  21515562.555                    21515571.844
 117452541.225 7  91521650.425 7  22350490.242                    22350503.117
 124781620.239 7  97232498.42143  23745186.313                    23745199.641
 106815788.828 8  83233067.766 8  20326363.227                    20326371.777
 116877408.475 7  91073352.20345  22241025.328                    22241033.973
 11  8 25 18 15  0.0000000  0 10G24G26G08G17G19G11G01G13G07G28
 117334269.219 7  91429394.25045  22327965.055                    22327977.074
 123247496.176 6  96037082.22443  23453224.547                    23453235.215
 107468609.596 8  83741826.42446  20450600.633                    20450610.023
 120481622.781 7  93881910.062 6  22926904.586                    22926915.969
 124868708.888 6  97300317.45044  23761734.938                    23761742.859
 113059910.696 8  88098681.65845  21514587.375                    21514596.320
 117400606.108 7  91481181.529 7  22340606.984                    22340620.727
 124892337.005 7  97318770.89644  23766254.906                    23766268.973
 106827175.466 8  83241940.444 8  20328529.977                    20328538.340
 116851946.356 8  91053511.60745  22236180.078                    22236188.750
 11  8 25 18 15 30.0000000  0 10G24G26G08G17G19G11G01G13G07G28
 117290152.436 7  91395017.57745  22319570.117                    22319581.918
 123187040.238 7  95989973.74644  23441719.492                    23441730.547
 107423558.061 8  83706721.32546  20442027.648                    20442036.906
 120395262.537 7  93814616.471 7  22910470.367                    22910482.004
 124971784.045 6  97380635.67144  23781349.172                    23781357.938
 113055351.211 8  88095128.82045  21513719.539                    21513728.684
 117349057.052 7  91441013.478 7  22330797.555                    22330810.758
 125003076.744 7  97405061.30243  23787328.367                    23787342.508
 106839029.628 8  83251177.435 8  20330785.734                    20330794.504
 116826535.305 8  91033710.80045  22231344.398                    22231352.953
 11  8 25 18 16  0.0000000  0 10G24G26G08G17G19G11G01G13G07G28
 117246443.808 7  91360958.96745  22311252.813                    22311264.496
 123127107.063 6  95943272.57644  23430314.313                    23430325.945
 107378866.265 8  83671896.53646  20433523.031                    20433532.422
 120309179.065 7  93747538.546 7  22894089.266                    22894100.699
 125074979.397 6  97461047.56144  23800986.898                    23800995.117
 113051360.000 8  88092018.79545  21512959.805                    21512969.098
 117297896.160 7  91401147.882 7  22321062.109                    22321075.453
 125113836.690 6  97491367.47643  23808405.656                    23808419.586
 106851352.673 8  83260779.782 8  20333130.414                    20333139.691
 116801174.708 8  91013949.30645  22226518.758                    22226527.387
 11  8 25 18 16 30.0000000  0 10G24G26G08G17G19G11G01G13G07G28
 117203146.203 7  91327220.61045  22303013.219                    22303024.977
 123067698.676 7  95896980.37143  23419009.820                    23419020.367
 107334537.324 8  83637354.49946  20425087.414                    20425096.730
 120223373.975 7  93680677.543 7  22877761.656                    22877772.535
 125178292.816 6  97541551.43944  23820646.102                    23820654.914
 113047938.098 8  88089352.38945  21512309.063                    21512318.113
 117247126.874 7  91361587.446 7  22311400.563                    22311414.336
 125224613.912 7  97577687.07243  23829485.844                    23829499.699
 106864145.537 8  83270748.224 8  20335565.148                    20335574.051
 116775863.957 8  90994226.65345  22221701.914                    22221711.023
 11  8 25 18 17  0.0000000  0 10G24G26G08G17G19G11G01G13G07G28
 117160262.215 7  91293804.54344  22294852.500                    22294863.961
 123008817.315 6  95851098.81444  23407804.430                    23407816.133
 107290573.748 8  83603097.16446  20416721.453                    20416730.672
 120137849.014 7  93614034.821 7  22861486.484                    22861498.090
 125281721.465 6  97622145.12044  23840328.641                    23840336.953
 113045086.505 7  88087130.38645  21511766.141                    21511774.902
 117196751.355 7  91322333.836 7  22301814.664                    22301828.211
 125335405.448 6  97664017.77643  23850568.398                    23850583.090
 106877409.560 8  83281083.799 8  20338089.156                    20338098.082
 116750602.459 8  90974542.37345  22216895.195                    22216903.242
 11  8 25 18 17 30.0000000  0 10G24G26G08G17G19G11G01G13G07G28
 117117793.842 7  91260712.32844  22286770.961                    22286782.723
 122950464.240 6  95805628.91743  23396700.570                    23396711.371
 107246977.475 8  83569126.04446  20408425.375                    20408434.836
 120052605.335 7  93547611.290 7  22845264.758                    22845276.418
 125385263.025 6  97702826.76544  23860031.813                    23860039.793
 113042805.317 8  88085352.83545  21511332.305                    21511341.438
 117146772.371 7  91283389.224 7  22292303.945                    22292317.531
 125446208.438 7  97750357.47543  23871654.930                    23871668.844
 106891144.871 8  83291786.608 8  20340702.953                    20340711.754
 116725389.065 8  90954895.57745  22212096.953                    22212105.434
 11  8 25 18 18  0.0000000  0 10G24G26G08G17G19G11G01G13G07G28
 117075743.686 7  91227945.99544  22278769.063                    22278780.820
 122892641.452 6  95760572.22644  23385697.359                    23385708.164
 107203751.094 8  83535443.14446  20400199.586                    20400208.855
 119967644.273 7  93481407.955 7  22829097.570                    22829108.949
 125488914.924 6  97783594.39144  23879755.914                    23879764.957
 113041094.895 8  88084020.03845  21511006.141                    21511015.699
 117097191.900 7  91244755.156 7  22282869.016                    22282882.227
 125557019.909 7  97836703.79943  23892741.859                    23892756.184
 106905352.423 8  83302857.401 8  20343407.055                    20343415.531
 116700223.419 8  90935286.00045  22207308.125                    22207316.547
 11  8 25 18 18 30.0000000  0 10G24G26G08G17G19G11G01G13G07G28
 117034114.262 7  91195507.51845  22270847.531                    22270858.836
 122835350.738 6  95715930.15244  23374795.328                    23374806.543
 107160896.908 8  83502050.26146  20392044.844                    20392054.316
 119882967.583 7  93415426.208 7  22812984.375                    22812995.379
 125592674.441 6  97864445.86744  23899500.727                    23899509.867
 113039956.551 7  88083133.01945  21510789.938                    21510799.152
 117048013.475 7  91206434.357 7  22273510.227                    22273524.176
 125667836.695 7  97923054.18544  23913829.352                    23913844.438
 106920033.056 8  83314296.829 8  20346200.227                    20346208.988
 116675104.873 8  90915713.11845  22202528.336                    22202536.891
 11  8 25 18 19  0.0000000  0 10G24G26G08G17G19G11G01G13G07G28
 116992908.290 7  91163398.98645  22263006.047                    22263017.605
 122778594.077 6  95671704.19044  23363994.445                    23364005.723
 107118417.923 8  83468949.74046  20383961.500                    20383970.719
 119798576.674 7  93349667.139 6  22796924.797                    22796935.641
 125696539.104 6  97945379.26644  23919266.141                    23919274.672
 113039391.125 7  88082692.44145  21510682.688                    21510691.328
 116999238.970 7  91168428.304 7  22264228.914                    22264242.625
 125778656.252 6  98009406.76143  23934917.695                    23934932.797
 106935188.052 8  83326105.883 8  20349084.461                    20349092.586
 116650033.077 8  90896176.66345  22197757.688                    22197765.672
 11  8 25 18 19 30.0000000  0 10G24G26G08G17G19G11G01G13G07G28
 116952128.064 7  91131622.22345  22255246.008                    22255257.422
 122722373.258 6  95627895.79143  23353296.000                    23353307.043
 107076316.684 8  83436143.57746  20375949.641                    20375959.031
 119714473.062 7  93284131.958 7  22780919.938                    22780931.492
 125800506.439 6  98026392.69444  23939050.477                    23939059.063
 113039398.931 7  88082698.52645  21510683.086                    21510692.676
 116950871.703 7  91130739.576 7  22255025.148                    22255038.613
 125889475.917 6  98095759.40743  23956006.266                    23956021.078
 106950818.105 8  83338285.103 8  20352058.539                    20352067.246
 116625006.879 8  90876675.74045  22192995.203                    22193003.289
 11  8 25 18 20  0.0000000  0 10G24G26G08G17G19G11G01G13G07G28
 116911775.913 7  91100179.01444  22247566.930                    22247578.430
 122666689.892 6  95584506.17143  23342700.016                    23342710.473
 107034595.164 8  83403633.29546  20368010.500                    20368019.469
 119630657.912 7  93218821.527 7  22764970.906                    22764982.016
 125904573.947 6  98107484.17644  23958853.938                    23958863.094
 113039980.316 7  88083151.56245  21510794.695                    21510803.465
 116902913.727 7  91093369.772 7  22245898.695                    22245912.078
 126000292.594 6  98182109.72043  23977093.055                    23977109.227
 106966923.786 8  83350834.962 8  20355123.164                    20355132.168
 116600025.495 8  90857209.73345  22188241.359                    22188249.586
 11  8 25 18 20 30.0000000  0 10G24G26G08G17G19G11G01G13G07G28
 116871854.095 7  91069071.14145  22239970.242                    22239981.816
 122611545.821 7  95541536.83144  23332206.492                    23332217.398
 106993255.745 8  83371420.75046  20360143.742                    20360153.047
 119547132.980 7  93153737.248 7  22749076.531                    22749087.629
 126008739.148 6  98188651.77844  23978675.852                    23978685.117
 113041136.054 8  88084052.13245  21511014.227                    21511023.508
 116855367.145 7  91056320.535 7  22236851.219                    22236864.113
 126111103.135 6  98268455.19543  23998180.094                    23998195.285
 106983505.997 8  83363756.132 8  20358279.133                    20358288.129
 116575088.761 8  90837778.50845  22183496.000                    22183504.277
 11  8 25 18 21  0.0000000  0 10G24G26G08G17G19G11G01G13G07G28
 116832365.166 7  91038300.58345  22232455.727                    22232467.188
 122556943.056 6  95498989.24344  23321815.773                    23321826.621
 106952301.239 8  83339508.13746  20352350.578                    20352359.871
 119463899.590 7  93088880.145 7  22733237.828                    22733248.578
 126112999.314 6  98269893.40244  23998516.109                    23998524.871
 113042866.607 8  88085400.62245  21511343.867                    21511352.699
 116808235.058 7  91019594.277 7  22227882.070                    22227895.367
 126221905.043 6  98354793.98042  24019265.422                    24019280.531
 107000565.745 8  83377049.408 8  20361525.391                    20361533.793
 116550196.216 8  90818381.73845  22178758.898                    22178767.148
 11  8 25 18 21 30.0000000  0 10G24G26G08G17G19G11G01G13G07G28
 116793311.315 7  91007869.05845  22225023.844                    22225035.719
 122502882.734 7  95456864.33144  23311528.844                    23311539.801
 106911733.955 8  83307897.25746  20344631.016                    20344639.918
 119380959.029 7  93024251.229 7  22717454.641                    22717465.398
 126217352.256 7  98351207.29443  24018374.195                    24018382.652
 113045172.274 7  88087197.25945  21511782.547                    21511791.648
 116761520.054 7  90983193.012 7  22218992.359                    22219005.906
 126332695.373 6  98441123.82742  24040349.227                    24040362.781
 107018103.479 8  83390715.146 8  20364862.406                    20364871.633
 116525346.728 8  90799018.50745  22174030.102                    22174039.094
 11  8 25 18 22  0.0000000  0 10G24G26G08G17G19G11G01G13G07G28
 116754694.911 7  90977778.40245  22217675.445                    22217687.344
 122449366.594 6  95415163.48944  23301344.703                    23301355.594
 106871556.329 8  83276590.00246  20336985.867                    20336994.535
 119298312.532 7  92959851.454 7  22701727.023                    22701738.281
 126321795.201 7  98432591.33443  24038248.742                    24038258.070
 113048053.773 8  88089442.58145  21512330.648                    21512339.961
 116715223.758 7  90947118.025 7  22210182.461                    22210196.008
 126443470.959 6  98527442.14043  24061429.664                    24061443.094
 107036119.642 8  83404753.684 8  20368291.297                    20368300.336
 116500539.741 7  90779688.40445  22169309.555                    22169317.988
 11  8 25 18 22 30.0000000  0 10G24G26G08G17G19G11G01G13G07G28
 116716518.610 7  90948030.68045  22210411.203                    22210422.191
 122396396.511 7  95373888.13144  23291264.391                    23291275.625
 106831771.123 8  83245588.53346  20329414.422                    20329423.160
 119215961.755 7  92895682.097 7  22686056.227                    22686067.570
 126426325.734 6  98514043.63243  24058140.055                    24058148.727
 113051511.537 7  88092136.95345  21512988.570                    21512997.695
 116669349.616 7  90911371.978 7  22201452.531                    22201465.797
 126554229.391 6  98613747.08543  24082507.180                    24082520.055
 107054615.428 8  83419165.946 8  20371810.539                    20371819.609
 116475775.009 8  90760391.21445  22164597.328                    22164605.367
 11  8 25 18 23  0.0000000  0 10G24G26G08G17G19G11G01G13G07G28
 116678784.795 7  90918627.74545  22203230.125                    22203241.547
 122343974.249 7  95333039.64544  23281288.695                    23281300.109
 106792380.938 8  83214894.86646  20321918.734                    20321928.168
 119133908.284 7  92831744.420 7  22670442.078                    22670453.285
 126530941.370 6  98595562.21043  24078047.773                    24078056.910
 113055546.241 8  88095280.88445  21513756.203                    21513765.566
 116623899.660 7  90875956.470 7  22192804.203                    22192816.738
 126664967.650 6  98700036.34543  24103578.891                    24103593.840
 107073591.521 8  83433952.487 8  20375421.719                    20375430.133
 116451051.773 7  90741126.35845  22159892.250                    22159900.777
 11  8 25 18 23 30.0000000  0 10G24G26G08G17G19G11G01G13G07G28
 116641495.789 7  90889571.43045  22196134.539                    22196145.797
 122292101.191 6  95292619.08944  23271418.109                    23271428.625
 106753387.402 8  83184510.29146  20314498.813                    20314508.016
 119052153.156 7  92768039.206 7  22654883.813                    22654894.895
 126635640.122 6  98677145.60143  24097971.508                    24097980.395
 113060157.932 7  88098874.41845  21514633.906                    21514642.547
 116578876.512 7  90840873.541 7  22184236.156                    22184249.539
 126775682.947 6  98786307.64843  24124647.883                    24124662.941
 107093048.615 8  83449113.821 8  20379124.203                    20379133.207
 116426369.169 8  90721893.17545  22155195.391                    22155203.809
 11  8 25 18 24  0.0000000  0 10G24G26G08G17G19G11G01G13G07G28
 116604653.739 7  90860863.38745  22189123.461                    22189134.891
 122240778.706 7  95252627.56544  23261651.813                    23261662.559
 106714793.294 8  83154436.96146  20307154.219                    20307163.172
 118970697.917 7  92704567.675 7  22639383.430                    22639394.602
 126740419.277 6  98758791.62043  24117910.000                    24117919.520
 113065346.653 8  88102917.58445  21515621.539                    21515630.738
 116534282.228 7  90806124.787 7  22175750.352                    22175763.695
 126886372.461 6  98872558.87543  24145711.289                    24145727.488
 107112987.253 8  83464650.393 8  20382918.508                    20382927.566
 116401726.635 8  90702691.20145  22150506.000                    22150514.473
 11  8 25 18 24 30.0000000  0 10G24G26G08G17G19G11G01G13G07G28
 116568260.817 7  90832505.31245  22182198.070                    22182209.961
 122190008.576 7  95213066.43344  23251990.648                    23252001.313
 106676601.019 8  83124676.73446  20299886.398                    20299895.469
 118889543.864 7  92641330.826 7  22623940.203                    22623952.117
 126845275.968 6  98840498.03744  24137863.672                    24137873.586
 113071112.956 8  88107410.81045  21516718.711                    21516727.965
 116490119.156 7  90771712.047 7  22167346.039                    22167359.367
 126997033.389 6  98958787.76743  24166770.031                    24166785.953
 107133407.592 8  83480562.315 8  20386804.594                    20386813.672
 116377123.840 8  90683520.20045  22145824.203                    22145833.078
 11  8 25 18 25  0.0000000  0 10G24G26G08G17G19G11G01G13G07G28
 116532319.215 7  90804498.91745  22175358.664                    22175369.910
 122139792.261 7  95173936.85843  23242434.398                    23242445.398
 106638812.616 8  83095231.21346  20292695.781                    20292704.832
 118808692.045 7  92578329.483 7  22608555.398                    22608566.223
 126950208.143 6  98922263.28144  24157831.281                    24157840.957
 113077457.355 8  88112354.49845  21517926.016                    21517935.367
 116446390.357 7  90737637.690 7  22159024.656                    22159038.320
 127107662.712 6  99044992.08643  24187822.297                    24187838.270
 107154310.465 8  83496850.232 8  20390782.063                    20390790.906
 116352560.145 8  90664379.66745  22141149.891                    22141158.664
 11  8 25 18 25 30.0000000  0 10G24G26G08G17G19G11G01G13G07G28
 116496831.540 7  90776846.23345  22168605.641                    22168617.199
 122090131.490 7  95135240.17343  23232984.125                    23232995.063
 106601431.578 8  83066103.12546  20285582.461                    20285591.461
 118728144.097 7  92515564.903 7  22593227.688                    22593238.246
 127055213.555 6  99004085.56844  24177813.555                    24177823.246
 113084380.349 7  88117749.02745  21519243.258                    21519252.496
 116403097.943 7  90703903.389 7  22150786.563                    22150800.066
 127218258.109 6  99131169.98043  24208868.414                    24208884.031
 107175697.063 8  83513515.088 7  20394851.922                    20394860.797
 116328035.095 7  90645269.24445  22136483.414                    22136491.727
 11  8 25 18 26  0.0000000  0 10G24G26G08G17G19G11G01G13G07G28
 116461799.829 7  90749548.83845  22161938.992                    22161950.313
 122041027.971 7  95096977.70144  23223640.688                    23223650.805
 106564459.899 8  83037294.02446  20278546.617                    20278555.723
 118647901.519 7  92453038.300 7  22577957.586                    22577968.441
 127160289.582 6  99085962.89443  24197808.664                    24197818.695
 113091882.208 8  88123594.63545  21520671.320                    21520680.039
 116360244.192 7  90670510.900 7  22142631.758                    22142645.348
 127328816.844 6  99217319.32843  24229907.953                    24229922.359
 107197568.175 8  83530557.479 8  20399013.984                    20399023.082
 116303548.234 8  90626188.58045  22131823.281                    22131832.082
 11  8 25 18 26 30.0000000  0 10G24G26G08G17G19G11G01G13G07G28
 116427225.827 7  90722608.10145  22155359.695                    22155371.020
 121992482.620 7  95059150.19244  23214401.938                    23214412.586
 106527899.347 8  83008805.27446  20271589.438                    20271598.680
 118567965.225 7  92390750.338 7  22562746.289                    22562757.094
 127265433.800 6  99167893.36744  24217817.047                    24217826.734
 113099962.891 7  88129891.26945  21522208.508                    21522217.863
 116317830.679 7  90637461.459 7  22134560.281                    22134573.840
 127439335.539 6  99303437.51743  24250938.453                    24250953.594
 107219923.330 8  83547977.045 8  20403268.180                    20403276.895
 116279098.722 8  90607137.02745  22127170.523                    22127179.141
 11  8 25 18 27  0.0000000  0 10G24G26G08G17G19G11G01G13G07G28
 116393112.122 7  90696026.03945  22148868.031                    22148879.793
 121944496.923 6  95021758.74944  23205270.852                    23205281.773
 106491752.622 8  82980638.99446  20264710.898                    20264720.473
 118488336.710 7  92328702.212 7  22547593.234                    22547604.066
 127370643.877 6  99249875.16443  24237838.148                    24237847.766
 113108622.489 7  88136639.00745  21523856.406                    21523865.855
 116275860.670 7  90604757.600 7  22126573.875                    22126587.270
 127549811.589 6  99389522.39542  24271961.578                    24271976.629
 107242763.347 8  83565774.433 8  20407614.180                    20407622.922
 116254686.094 8  90588114.21945  22122524.875                    22122533.746
 11  8 25 18 27 30.0000000  0 10G24G26G08G17G19G11G01G13G07G28
 116359460.868 7  90669804.30645  22142464.258                    22142475.840
 121897072.740 6  94984804.83443  23196245.969                    23196257.164
 106456022.173 8  82952797.07546  20257911.789                    20257921.082
 118409016.930 7  92266894.646 7  22532499.211                    22532510.070
 127475917.296 6  99331906.31943  24257871.992                    24257880.559
 113117861.336 8  88143838.09945  21525614.609                    21525623.941
 116234336.670 7  90572401.273 7  22118672.359                    22118685.184
 127660242.672 6  99475572.27142  24292976.375                    24292991.352
 107266089.129 8  83583950.330 7  20412052.945                    20412061.969
 116230309.899 8  90569119.79945  22117886.242                    22117894.980
 11  8 25 18 28  0.0000000  0 10G24G26G08G17G19G11G01G13G07G28
 116326274.331 7  90643944.70445  22136149.781                    22136160.813
 121850211.127 7  94948289.28144  23187329.172                    23187339.648
 106420710.404 8  82925281.40746  20251192.484                    20251201.449
 118330007.388 7  92205328.823 7  22517464.188                    22517474.625
 127581251.804 6  99413985.08744  24277916.063                    24277925.195
 113127679.625 8  88151488.70845  21527482.984                    21527491.918
 116193260.694 7  90540394.063 7  22110855.492                    22110869.000
 127770625.612 6  99561584.54542  24313981.195                    24313996.879
 107289901.064 8  83602505.057 8  20416584.469                    20416593.406
 116205969.542 8  90550153.29845  22113254.898                    22113262.871
 11  8 25 18 28 30.0000000  0 10G24G26G08G17G19G11G01G13G07G28
 116293554.248 7  90618448.58045  22129922.555                    22129933.980
 121803913.447 7  94912213.18644  23178518.984                    23178530.031
 106385819.551 8  82898093.72046  20244552.680                    20244561.680
 118251309.331 7  92144005.705 7  22502488.742                    22502498.953
 127686645.050 6  99496109.62843  24297971.469                    24297980.840
 113138077.299 8  88159590.78845  21529461.172                    21529470.691
 116152634.590 7  90508737.405 7  22103124.852                    22103137.891
 127880957.816 6  99647557.32742  24334977.688                    24334992.734
 107314199.547 8  83621438.912 8  20421208.305                    20421217.234
 116181664.353 8  90531214.20345  22108629.328                    22108638.117
 11  8 25 18 29  0.0000000  0 10G24G26G08G17G19G11G01G13G07G28
 116261303.153 7  90593317.90745  22123785.742                    22123797.164
 121758181.225 7  94876577.70644  23169816.367                    23169827.363
 106351352.051 8  82871235.93346  20237993.711                    20238002.895
 118172924.275 7  92082926.502 7  22487572.398                    22487583.082
 127792094.775 6  99578278.14943  24318038.156                    24318047.398
 113149054.711 8  88168144.59745  21531550.914                    21531559.629
 116112461.385 7  90477433.637 7  22095479.820                    22095493.422
 127991236.442 6  99733488.35043  24355963.703                    24355978.059
 107338985.219 8  83640752.384 8  20425924.805                    20425934.305
 116157394.040 8  90512302.26745  22104011.219                    22104019.477
 11  8 25 18 29 30.0000000  0 10G24G26G08G17G19G11G01G13G07G28
 116229523.348 7  90568554.46845  22117737.984                    22117749.805
 121713016.139 7  94841384.12244  23161221.492                    23161232.453
 106317310.807 8  82844710.28246  20231515.883                    20231525.402
 118094853.312 7  92022092.042 7  22472715.820                    22472726.211
 127897598.697 6  99660488.94443  24338115.094                    24338123.906
 113160612.140 8  88177150.38945  21533749.805                    21533759.270
 116072742.854 7  90446484.168 7  22087921.383                    22087935.273
 128101458.877 6  99819375.56943  24376938.023                    24376953.664
 107364258.820 8  83660446.064 7  20430734.320                    20430743.016
 116133158.308 8  90493417.28745  22099398.859                    22099407.879
 11  8 25 18 30  0.0000000  0 10G24G26G08G17G19G11G01G13G07G28
 116198216.441 7  90544159.50845  22111780.406                    22111791.973
 121668418.931 7  94806633.06944  23152734.852                    23152745.516
 106283697.401 8  82818518.00546  20225119.641                    20225129.102
 118017097.445 7  91961503.122 7  22457918.602                    22457929.813
 128003154.237 6  99742739.94443  24358202.109                    24358210.789
 113172749.322 8  88186607.91945  21536059.633                    21536068.652
 116033481.014 7  90415890.562 7  22080450.820                    22080464.035
 128211622.221 6  99905216.80143  24397901.609                    24397917.359
 107390020.139 8  83680519.786 8  20435636.469                    20435645.484
 116108956.026 8  90474558.38345  22094792.984                    22094802.219
 11  8 25 18 30 30.0000000  0 10G24G26G08G17G19G11G01G13G07G28
 116167384.627 7  90520134.74645  22105913.188                    22105925.043
 121624390.941 7  94772325.53244  23144356.250                    23144367.199
 106250514.433 8  82792661.13646  20218805.266                    20218814.199
 117939657.818 7  91901160.621 7  22443182.797                    22443193.637
 128108758.914 6  99825029.23543  24378297.969                    24378306.984
 113185466.093 8  88196517.07845  21538479.398                    21538488.465
 115994678.394 7  90385654.789 7  22073066.750                    22073080.102
 128321723.618 6  99991009.72543  24418853.938                    24418869.969
 107416269.691 8  83700973.947 8  20440631.656                    20440640.770
 116084786.988 8  90455725.38545  22090194.023                    22090202.973
 11  8 25 18 31  0.0000000  0 10G24G26G08G17G19G11G01G13G07G28
 116137029.749 7  90496481.64045  22100136.516                    22100148.727
 121580933.258 7  94738462.42344  23136086.391                    23136097.672
 106217763.653 8  82767141.03846  20212572.680                    20212582.074
 117862535.479 7  91841065.336 7  22428507.070                    22428517.813
 128214410.481 6  99907355.04443  24398402.297                    24398412.031
 113198762.452 8  88206877.87145  21541009.672                    21541018.813
 115956336.379 7  90355777.933 7  22065770.820                    22065783.578
 128431760.493 6 100076752.43743  24439793.164                    24439809.977
 107443007.755 8  83721808.771 7  20445719.586                    20445728.723
 116060650.634 8  90436917.84045  22085600.922                    22085609.598
 11  8 25 18 31 30.0000000  0 10G24G26G08G17G19G11G01G13G07G28
 116107154.014 7  90473201.88045  22094451.602                    22094463.473
 121538047.431 7  94705044.91044  23127926.250                    23127936.762
 106185447.753 8  82741959.80146  20206423.406                    20206432.832
 117785731.925 7  91781218.483 7  22413891.875                    22413902.711
 128320107.021 6  99989715.91843  24418515.375                    24418524.855
 113212638.602 8  88217690.44145  21543650.141                    21543659.301
 115918458.245 7  90326262.542 7  22058562.445                    22058575.625
 128541730.121 6 100162442.69542  24460719.797                    24460736.438
 107470235.135 8  83743024.879 8  20450901.031                    20450910.395
 116036546.712 8  90418135.56245  22081014.063                    22081023.164
 11  8 25 18 32  0.0000000  0 10G24G26G08G17G19G11G01G13G07G28
 116077759.393 7  90450297.02245  22088858.242                    22088869.285
 121495734.696 7  94672073.95444  23119874.070                    23119884.609
 106153569.214 8  82717119.37646  20200356.711                    20200366.215
 117709248.564 7  91721621.124 7  22399337.266                    22399347.957
 128425845.991 6 100072109.81943  24438637.211                    24438646.473
 113227094.587 8  88228954.83545  21546401.039                    21546410.117
 115881045.708 7  90297109.949 7  22051443.094                    22051456.273
 128651630.020 6 100248078.65543  24481633.727                    24481650.090
 107497952.126 8  83764622.502 8  20456175.203                    20456184.320
 116012474.862 8  90399378.29445  22076433.617                    22076442.527
 11  8 25 18 32 30.0000000  0 10G24G26G08G17G19G11G01G13G07G28
 116048848.059 7  90427768.74245  22083356.648                    22083367.738
 121453996.183 7  94639550.43544  23111931.961                    23111942.129
 106122130.558 8  82692621.70446  20194374.234                    20194383.422
 117633086.615 7  91662274.205 7  22384844.148                    22384854.758
 128531625.319 6 100154535.19443  24458766.852                    24458775.699
 113242130.395 8  88240671.02645  21549262.234                    21549271.355
 115844100.755 7  90268321.703 7  22044412.570                    22044425.758
 128761457.399 6 100333658.08042  24502533.016                    24502549.461
 107526158.992 8  83786601.842 7  20461543.102                    20461551.555
 115988434.430 8  90380645.50845  22071859.094                    22071867.582
 11  8 25 18 33  0.0000000  0 10G24G26G08G17G19G11G01G13G07G28
 116020421.784 7  90405618.44745  22077946.758                    22077958.434
 121412832.827 7  94607475.11044  23104098.406                    23104109.285
 106091133.306 8  82668468.00346  20188475.828                    20188485.617
 117557246.685 7  91603178.215 7  22370412.352                    22370423.070
 128637442.410 6 100236989.96743  24478902.406                    24478912.023
 113257745.643 8  88252838.74245  21552234.000                    21552242.922
 115807625.944 7  90239899.794 7  22037471.617                    22037485.402
 128871209.621 6 100419178.93142  24523418.477                    24523435.309
 107554855.836 8  83808962.979 7  20467003.719                    20467012.574
 115964424.675 8  90361936.60745  22067290.008                    22067298.465
 11  8 25 18 33 30.0000000  0 10G24G26G08G17G19G11G01G13G07G28
 115992482.551 7  90383847.65945  22072630.953                    22072641.863
 121372246.039 7  94575849.04944  23096375.086                    23096386.172
 106060580.038 8  82644660.24346  20182661.727                    20182671.137
 117481730.090 7  91544334.177 7  22356041.609                    22356052.410
 128743294.872 6 100319472.34043  24499045.828                    24499055.160
 113273940.199 8  88265457.87045  21555315.422                    21555324.766
 115771623.303 7  90211845.815 7  22030620.617                    22030633.852
 128980883.841 6 100504639.06342  24544289.906                    24544305.234
 107584043.120 8  83831706.290 8  20472557.945                    20472567.055
 115940445.501 8  90343251.54545  22062726.859                    22062735.539
 11  8 25 18 34  0.0000000  0 10G24G26G08G17G19G11G01G13G07G28
 115965032.237 7  90362457.83645  22067407.016                    22067418.352
 121332236.685 7  94544672.92744  23088761.430                    23088771.988
 106030473.270 8  82621200.41746  20176932.266                    20176941.676
 117406538.123 7  91485743.101 7  22341733.273                    22341743.738
 128849180.692 6 100401980.68843  24519195.734                    24519204.734
 113290714.092 8  88278528.42145  21558507.438                    21558516.848
 115736094.773 7  90184161.280 7  22023859.758                    22023873.023
 129090477.557 6 100590036.38243  24565144.703                    24565161.352
 107613721.264 8  83854832.081 7  20478205.703                    20478214.980
 115916496.364 8  90324589.89445  22058169.586                    22058178.539
 11  8 25 18 34 30.0000000  0 10G24G26G08G17G19G11G01G13G07G28
 115938072.673 7  90341450.41645  22062276.828                    22062287.980
 121292806.171 7  94513947.86744  23081258.023                    23081269.258
 106000815.091 8  82598090.13646  20171288.750                    20171298.086
 117331671.567 7  91427405.580 7  22327486.945                    22327497.105
 128955097.857 6 100484513.48243  24539351.188                    24539359.805
 113308067.059 8  88292050.20645  21561809.750                    21561818.727
 115701042.588 7  90156847.929 7  22017189.047                    22017202.457
 129199988.187 6 100675368.98143  24585984.063                    24586000.848
 107643890.411 8  83878340.468 8  20483946.391                    20483955.527
 115892577.065 8  90305951.49245  22053618.125                    22053626.609
 11  8 25 18 35  0.0000000  0 10G24G26G08G17G19G11G01G13G07G28
 115911606.022 7  90320827.08145  22057240.281                    22057250.766
 121253955.398 7  94483674.55444  23073864.875                    23073876.367
 105971607.930 8  82575331.29346  20165730.789                    20165740.055
 117257132.029 7  91369322.884 7  22313302.844                    22313312.832
 129061043.931 6 100567068.77943  24559512.289                    24559520.969
 113325998.970 8  88306023.10945  21565222.008                    21565231.344
 115666468.852 7  90129907.383 7  22010610.281                    22010623.004
 129309412.845 6 100760634.62343  24606807.055                    24606824.547
 107674550.959 8  83902231.770 7  20489781.094                    20489790.313
 115868687.050 8  90287335.90445  22049071.703                    22049080.109
 11  8 25 18 35 30.0000000  0 10G24G26G08G17G19G11G01G13G07G28
 115885633.822 7  90300589.04645  22052297.875                    22052308.578
 121215685.148 7  94453853.58444  23066582.477                    23066593.863
 105942853.608 8  82552925.31746  20160258.953                    20160268.891
 117182920.215 8  91311495.555 7  22299180.117                    22299190.598
 129167016.592 6 100649644.83043  24579678.188                    24579687.797
 113344509.471 8  88320446.86645  21568744.141                    21568753.594
 115632375.057 7  90103340.821 7  22004121.945                    22004135.668
 129418749.008 6 100845831.28842  24627613.188                    24627630.363
 107705702.743 8  83926505.845 7  20495709.539                    20495718.117
 115844825.794 8  90268742.70645  22044531.211                    22044539.559
 11  8 25 18 36  0.0000000  0 10G24G26G08G17G19G11G01G13G07G28
 115860158.151 7  90280737.89945  22047449.680                    22047461.109
 121177996.932 7  94424486.15044  23059410.422                    23059421.699
 105914554.789 8  82530874.27846  20154874.109                    20154883.297
 117109037.579 7  91253924.717 7  22285120.914                    22285131.109
 129273013.697 6 100732239.89943  24599848.609                    24599857.656
 113363598.518 8  88335321.44145  21572376.852                    21572385.941
 115598763.802 7  90077150.254 7  21997726.039                    21997739.316
 129527994.201 6 100930957.02543  24648402.445                    24648419.262
 107737346.873 8  83951163.578 7  20501730.656                    20501739.723
 115820993.193 8  90250171.84645  22039996.016                    22040004.023
 11  8 25 18 36 30.0000000  0 10G24G26G08G17G19G11G01G13G07G28
 115835181.263 7  90261275.41645  22042696.500                    22042708.199
 121140891.826 7  94395573.07344  23052349.352                    23052360.797
 105886714.238 8  82509180.32646  20149576.203                    20149585.195
 117035485.373 7  91196611.372 7  22271124.398                    22271134.574
 129379033.671 6 100814852.78043  24620023.398                    24620033.082
 113383266.387 7  88350647.04045  21576119.156                    21576128.844
 115565637.412 7  90051337.492 7  21991422.563                    21991435.563
 129637146.078 6 101016010.09543  24669172.813                    24669190.035
 107769482.975 8  83976204.654 7  20507846.070                    20507855.473
 115797189.127 8  90231623.22445  22035466.391                    22035474.863
 11  8 25 18 37  0.0000000  0  9G24G26G08G17G19G11G01G07G28
 115810705.780 7  90242203.63245  22038039.164                    22038051.121
 121104371.620 7  94367115.76244  23045400.242                    23045411.270
 105859334.635 8  82487845.55746  20144366.070                    20144375.570
 116962265.523 7  91139556.997 7  22257190.969                    22257201.230
 129485074.957 6 100897482.26143  24640202.008                    24640212.289
 113403513.111 8  88366423.69445  21579972.617                    21579981.582
 115532998.601 7  90025904.680 7  21985211.625                    21985224.949
 107802112.185 8  84001629.976 7  20514055.375                    20514064.707
 115773413.938 8  90213097.10845  22030941.617                    22030950.457
 11  8 25 18 37 30.0000000  0  9G24G26G08G17G19G11G01G07G28
 115786731.777 7  90223522.59245  22033477.539                    22033488.566
 121068435.661 7  94339113.72244  23038561.727                    23038572.488
 105832416.283 8  82466870.20746  20139243.570                    20139253.168
 116889377.231 7  91082760.984 7  22243320.789                    22243331.000
 129591133.653 6 100980125.33543  24660384.344                    24660394.336
 113424337.035 8  88382650.12745  21583934.961                    21583944.930
 115500847.137 7  90000851.616 7  21979093.344                    21979106.422
 107835233.068 8  84027438.424 7  20520358.188                    20520367.180
 115749665.489 8  90194591.82345  22026422.438                    22026430.816
 11  8 25 18 38  0.0000000  0  9G24G26G08G17G19G11G01G07G28
 115763261.274 7  90205233.91945  22029011.383                    22029022.402
 121033084.788 7  94311567.58244  23031834.594                    23031845.422
 105805961.609 8  82446256.16246  20134209.734                    20134218.859
 116816821.853 8  91026224.376 7  22229513.438                    22229524.137
 129697207.827 6 101062780.48043  24680570.156                    24680579.941
 113445737.697 8  88399325.95145  21588007.328                    21588017.125
 115469186.036 7  89976180.644 7  21973068.336                    21973081.676
 107868846.166 8  84053630.415 7  20526754.445                    20526763.773
 115725943.787 7  90176107.38345  22021908.320                    22021917.164
 11  8 25 18 38 30.0000000  0  9G24G26G08G17G19G11G01G07G28
 115740295.876 7  90187338.81345  22024640.664                    22024652.395
 120998320.260 7  94284478.34044  23025219.047                    23025230.047
 105779972.923 8  82426005.21946  20129264.141                    20129273.402
 116744600.119 8  90969947.759 7  22215770.609                    22215781.398
 129803295.167 6 101145445.86543  24700757.859                    24700767.328
 113467714.834 8  88416450.97645  21592189.984                    21592199.172
 115438016.591 7  89951892.791 7  21967137.055                    21967149.969
 107902951.166 8  84080205.692 7  20533244.547                    20533253.355
 115702248.170 7  90157643.27345  22017399.086                    22017408.223
 11  8 25 18 39  0.0000000  0  9G24G26G08G17G19G11G01G07G28
 115717837.257 7  90169838.60645  22020367.047                    22020378.496
 120964142.650 7  94257846.43744  23018714.883                    23018726.098
 105754452.377 8  82406119.08046  20124407.742                    20124417.008
 116672713.249 8  90913932.070 7  22202090.805                    22202101.668
 129909393.997 6 101228120.17443  24720947.773                    24720957.551
 113490268.068 8  88434024.91345  21596481.664                    21596491.055
 115407340.910 7  89927989.683 7  21961299.789                    21961312.828
 107937548.659 8  84107164.749 7  20539828.273                    20539837.328
 115678578.554 7  90139199.41745  22012895.383                    22012903.734
 11  8 25 18 39 30.0000000  0  9G24G26G08G17G19G11G01G07G28
 115695887.296 7  90152734.73845  22016190.203                    22016201.770
 120930552.892 7  94231672.58144  23012323.648                    23012334.398
 105729402.015 8  82386599.29946  20119640.898                    20119649.902
 116601162.396 8  90858178.205 7  22188474.977                    22188485.387
 130015501.564 6 101310801.35443  24741139.305                    24741148.879
 113513397.070 8  88452047.50445  21600883.109                    21600892.016
 115377160.782 7  89904472.714 7  21955556.930                    21955569.449
 107972638.263 8  84134507.255 7  20546505.594                    20546514.730
 115654934.815 7  90120775.73445  22008396.117                    22008404.336
 11  8 25 18 40  0.0000000  0  9G24G26G08G17G19G11G01G07G28
 115674447.639 7  90136028.53845  22012110.219                    22012121.602
 120897551.969 6  94205957.59644  23006043.547                    23006054.309
 105704824.242 8  82367447.78246  20114963.805                    20114973.172
 116529948.406 8  90802686.822 7  22174923.688                    22174934.328
 130121616.255 6 101393487.99143  24761331.602                    24761342.156
 113537101.406 8  88470518.40745  21605393.484                    21605402.680
 115347478.481 7  89881343.652 7  21949908.109                    21949921.250
 108008220.400 8  84162233.559 7  20553276.477                    20553285.645
 115631316.418 8  90102371.79745  22003901.500                    22003910.105
 11  8 25 18 40 30.0000000  0  9G24G26G08G17G19G11G01G07G28
 115653519.818 7  90119721.17045  22008128.055                    22008139.469
 120865140.364 7  94180701.79044  22999876.313                    22999887.047
 105680721.029 8  82348666.04446  20110377.438                    20110386.957
 116459072.345 7  90747458.780 7  22161435.688                    22161447.035
 130227736.074 6 101476178.71943  24781526.594                    24781535.922
 113561380.738 8  88489437.35345  21610013.688                    21610023.254
 115318295.917 7  89858604.010 7  21944355.180                    21944368.184
 108044295.142 8  84190343.714 7  20560141.359                    20560150.313
 115607723.217 8  90083987.49445  21999411.781                    21999420.668
 11  8 25 18 41  0.0000000  0  9G24G26G08G17G19G11G01G07G28
 115633105.675 7  90103814.05745  22004243.141                    22004254.707
 120833319.162 7  94155906.02844  22993820.680                    22993831.723
 105657094.336 8  82330255.62846  20105881.195                    20105890.391
 116388535.263 7  90692494.864 7  22148012.930                    22148023.602
 130333858.708 6 101558871.64143  24801720.813                    24801730.516
 113586234.285 8  88508803.74145  21614743.703                    21614752.762
 115289614.190 7  89836254.626 7  21938896.836                    21938910.281
 108080862.370 8  84218837.627 7  20567100.063                    20567108.875
 115584154.785 7  90065622.48945  21994927.242                    21994935.926
 11  8 25 18 41 30.0000000  0  8G24G26G08G17G11G01G07G28
 115613207.193 7  90088308.76345  22000456.469                    22000468.023
 120802089.561 7  94131571.26944  22987877.266                    22987888.766
 105633947.014 8  82312218.73446  20101476.430                    20101485.461
 116318338.769 8  90637796.345 7  22134655.000                    22134665.555
 113611662.177 8  88528617.66645  21619582.047                    21619591.258
 115261435.816 7  89814297.469 7  21933535.188                    21933548.234
 108117922.586 8  84247715.692 7  20574152.227                    20574161.449
 115560611.261 8  90047276.88845  21990447.172                    21990455.555
 11  8 25 18 42  0.0000000  0  8G24G26G08G17G11G01G07G28
 115593825.665 7  90073206.27845  21996768.453                    21996779.402
 120771451.687 7  94107697.59044  22982047.563                    22982058.582
 105611280.908 8  82294556.82546  20097163.086                    20097172.406
 116248482.992 8  90583363.318 7  22121362.648                    22121372.738
 113637663.382 7  88548878.34045  21624530.117                    21624539.328
 115233762.792 7  89792734.086 7  21928269.250                    21928282.258
 108155475.344 8  84276977.535 7  20581298.102                    20581307.191
 115537092.136 8  90028950.29745  21985971.359                    21985979.820
 11  8 25 18 42 30.0000000  0  8G24G26G08G17G11G01G07G28
 115574962.287 7  90058507.54945  21993178.617                    21993189.652
 120741405.943 7  94084285.31944  22976330.070                    22976341.281
 105589097.409 8  82277270.96746  20092941.563                    20092951.336
 116178968.558 8  90529196.268 7  22108134.031                    22108144.492
 113664237.020 8  88569585.04945  21629586.508                    21629596.242
 115206595.495 7  89771564.776 7  21923099.016                    21923112.523
 108193520.351 8  84306622.953 7  20588538.141                    20588547.301
 115513596.602 7  90010642.09145  21981500.133                    21981508.602
 11  8 25 18 43  0.0000000  0  8G24G26G08G17G11G01G07G28
 115556618.550 7  90044213.74845  21989688.047                    21989699.211
 120711952.709 6  94061334.75744  22970725.602                    22970736.945
 105567398.441 8  82260362.66246  20088812.281                    20088821.875
 116109796.372 8  90475295.914 7  22094971.016                    22094981.414
 113691382.530 8  88590737.37745  21634752.445                    21634761.645
 115179936.820 7  89750791.792 7  21918026.063                    21918039.695
 108232057.492 8  84336651.862 7  20595871.641                    20595880.578
 115490124.321 7  89992352.00345  21977033.297                    21977042.125
 11  8 25 18 43 30.0000000  0  8G24G26G08G17G11G01G07G28
 115538795.630 7  90030325.77045  21986296.484                    21986307.328
 120683092.535 7  94038846.32444  22965233.219                    22965244.055
 105546185.757 8  82243833.28446  20084775.953                    20084785.445
 116040967.373 8  90421662.964 7  22081872.711                    22081883.617
 113719098.870 7  88612334.51545  21640026.820                    21640035.891
 115153787.290 7  89730415.555 7  21913049.563                    21913063.410
 108271086.150 8  84367063.765 7  20603298.609                    20603307.578
 115466674.877 7  89974079.71345  21972571.086                    21972580.070
 11  8 25 18 44  0.0000000  0  8G24G26G08G17G11G01G07G28
 115521495.331 7  90016845.03745  21983004.305                    21983015.496
 120654826.222 7  94016820.61344  22959854.617                    22959865.871
 105525461.359 8  82227684.38646  20080832.281                    20080842.004
 115972482.071 8  90368297.851 7  22068840.859                    22068851.336
 113747385.429 8  88634375.97845  21645409.969                    21645418.563
 115128149.574 7  89710438.138 7  21908171.477                    21908184.238
 108310606.527 8  84397858.831 7  20610818.938                    20610828.234
 115443248.007 7  89955825.00745  21968113.133                    21968121.965
 11  8 25 18 44 30.0000000  0  8G24G26G08G17G11G01G07G28
 115504719.343 7  90003772.85145  21979812.070                    21979823.246
 120627154.489 7  93995258.20844  22954588.852                    22954599.875
 105505228.092 8  82211918.18846  20076981.773                    20076991.344
 115904341.874 8  90315201.631 7  22055874.164                    22055884.566
 113776242.113 8  88656861.70445  21650900.734                    21650909.941
 115103024.992 7  89690860.569 7  21903390.148                    21903403.352
 108350618.656 8  84429037.073 7  20618433.063                    20618442.281
 115419843.830 7  89937587.99345  21963659.484                    21963668.168
 11  8 25 18 45  0.0000000  0  8G24G26G08G17G11G01G07G28
 115488469.125 7  89991110.34845  21976719.813                    21976730.727
 120600078.135 7  93974159.76144  22949436.414                    22949447.336
 105485487.757 8  82196536.09846  20073225.305                    20073234.898
 115836547.641 8  90262374.996 7  22042973.250                    22042983.363
 113805668.079 7  88679791.01445  21656500.281                    21656509.188
 115078415.661 7  89671684.481 7  21898707.234                    21898719.973
 108391122.782 8  84460598.685 7  20626140.836                    20626150.172
 115396462.438 8  89919368.73345  21959210.594                    21959218.691
 11  8 25 18 45 30.0000000  0  8G24G26G08G17G11G01G07G28
 115472745.954 7  89978858.54245  21973727.148                    21973738.605
 120573597.187 7  93953525.26544  22944397.141                    22944408.477
 105466241.890 8  82181539.30646  20069563.172                    20069572.762
 115769100.051 8  90209818.478 7  22030138.422                    22030148.668
 113835662.415 8  88703163.22345  21662207.977                    21662216.441
 115054322.114 7  89652910.307 7  21894122.547                    21894135.699
 108432118.291 8  84492543.196 7  20633941.500                    20633951.285
 115373103.065 8  89901166.61045  21954764.969                    21954773.715
 11  8 25 18 46  0.0000000  0  8G24G26G08G17G11G01G07G28
 115457551.336 7  89967018.59345  21970836.109                    21970847.484
 120547712.466 7  93933355.34544  22939470.711                    22939482.715
 105447492.984 8  82166929.76146  20065995.320                    20066005.137
 115702000.325 8  90157533.022 7  22017369.500                    22017380.297
 113866224.786 8  88726978.04645  21668023.875                    21668033.055
 115030746.965 7  89634540.101 7  21889636.391                    21889649.133
 108473605.591 8  84524870.915 7  20641836.813                    20641845.977
 115349765.734 8  89882981.69345  21950323.953                    21950332.922
 11  8 25 18 46 30.0000000  0  8G24G26G08G17G11G01G07G28
 115442886.634 7  89955591.55045  21968046.023                    21968056.582
 120522424.394 7  93913650.33744  22934659.766                    22934670.133
 105429243.086 8  82152709.04146  20062522.609                    20062531.902
 115635248.996 8  90105519.049 7  22004667.547                    22004677.676
 113897354.172 7  88751234.68845  21673947.594                    21673956.598
 115007691.877 7  89616575.115 7  21885248.242                    21885261.234
 108515583.613 8  84557581.020 7  20649825.070                    20649834.426
 115326450.282 8  89864813.81045  21945887.328                    21945896.195
 11  8 25 18 47  0.0000000  0  8G24G26G08G17G11G01G07G28
 115428753.491 7  89944578.73045  21965356.008                    21965367.211
 120497733.371 7  93894410.57444  22929960.727                    22929971.445
 105411494.071 8  82138878.62346  20059145.219                    20059154.316
 115568847.042 8  90053777.303 7  21992031.586                    21992041.512
 113929050.042 8  88775932.75945  21679979.016                    21679988.480
 114985158.076 7  89599016.329 7  21880960.547                    21880973.605
 108558052.987 8  84590673.993 7  20657907.273                    20657915.883
 115303156.622 8  89846662.90745  21941454.789                    21941463.016
 11  8 25 18 47 30.0000000  0  8G24G26G08G17G11G01G07G28
 115415152.684 7  89933980.71845  21962767.852                    21962779.234
 120473639.596 7  93875636.20344  22925375.492                    22925386.414
 105394247.318 8  82125439.58946  20055863.250                    20055872.473
 115502794.973 8  90002308.214 7  21979462.125                    21979472.250
 113961311.082 8  88801071.21845  21686118.188                    21686127.395
 114963147.333 7  89581865.102 7  21876772.422                    21876785.105
 108601012.621 8  84624148.984 7  20666081.758                    20666091.063
 115279884.116 8  89828528.48845  21937025.945                    21937035.055
 11  8 25 18 48  0.0000000  0  8G24G26G08G17G11G01G07G28
 115402085.515 7  89923798.51745  21960281.211                    21960292.426
 120450143.293 7  93857327.38044  22920904.492                    22920915.426
 105377504.421 8  82112393.15446  20052677.297                    20052686.371
 115437093.355 8  89951112.184 7  21966959.117                    21966969.543
 113994136.374 7  88826649.35645  21692364.695                    21692373.777
 114941660.537 7  89565122.160 7  21872683.625                    21872696.477
 108644462.251 8  84658005.789 7  20674349.516                    20674359.020
 115256632.440 8  89810410.30345  21932601.992                    21932610.234
 11  8 25 18 48 30.0000000  0  8G24G26G08G17G11G01G07G28
 115389553.645 7  89914033.43645  21957896.258                    21957907.746
 120427245.027 7  93839484.56744  22916546.766                    22916557.965
 105361267.709 8  82099741.16346  20049587.172                    20049596.914
 115371743.117 8  89900189.972 7  21954523.375                    21954534.027
 114027525.136 7  88852666.56345  21698718.367                    21698727.457
 114920699.614 7  89548788.991 7  21868694.648                    21868707.578
 108688401.859 8  84692244.405 7  20682711.430                    20682720.844
 115233401.594 8  89792308.34345  21928180.758                    21928189.574
 11  8 25 18 49  0.0000000  0  8G24G26G08G17G11G01G07G28
 115377558.350 7  89904686.46345  21955613.797                    21955625.348
 120404944.988 7  93822107.89444  22912303.672                    22912314.340
 105345539.122 8  82087485.10346  20046594.367                    20046603.770
 115306745.133 8  89849542.229 7  21942154.914                    21942165.621
 114061476.639 7  88879122.26445  21705178.984                    21705187.730
 114900265.455 7  89532866.289 7  21864806.109                    21864818.910
 108732831.210 8  84726864.618 7  20691166.102                    20691175.027
 115210191.458 7  89774222.52646  21923764.164                    21923772.543
 11  8 25 18 49 30.0000000  0  8G24G26G08G17G11G01G07G28
 115366100.915 7  89895758.60345  21953433.672                    21953445.301
 120383243.716 7  93805197.81544  22908173.813                    22908185.039
 105330320.783 8  82075626.64846  20043698.516                    20043708.008
 115242100.223 8  89799169.605 7  21929853.148                    21929864.063
 114095989.996 7  88906015.78145  21711746.602                    21711755.754
 114880360.528 7  89517355.963 7  21861018.539                    21861031.641
 108777750.222 8  84761866.399 7  20699714.117                    20699723.109
 115187002.015 8  89756152.84945  21919351.164                    21919360.047
 11  8 25 18 50  0.0000000  0  8G24G26G08G17G11G01G07G28
 115355182.227 7  89887250.55645  21951355.766                    21951366.887
 120362141.084 7  93788754.19444  22904158.961                    22904169.625
 105315614.146 8  82064166.91746  20040899.844                    20040909.172
 115177809.206 8  89749072.725 7  21917619.188                    21917629.641
 114131064.067 7  88933346.22345  21718420.945                    21718430.336
 114860985.505 8  89502258.560 7  21857331.500                    21857344.313
 108823157.860 8  84797248.929 7  20708354.281                    20708363.793
 115163833.062 8  89738099.12545  21914942.297                    21914951.141
 11  8 25 18 50 30.0000000  0  8G24G26G08G17G11G01G07G28
 115344803.536 7  89879163.27445  21949380.977                    21949392.125
 120341637.683 7  93772777.51644  22900256.641                    22900267.238
 105301420.886 8  82053107.21546  20038199.070                    20038208.715
 115113872.145 8  89699251.681 7  21905452.234                    21905462.863
 114166698.121 7  88961113.00245  21725201.359                    21725210.742
 114842141.963 8  89487575.289 7  21853745.852                    21853758.539
 108869054.363 8  84833012.372 7  20717088.656                    20717097.586
 115140684.541 8  89720061.32345  21910537.336                    21910545.949
 11  8 25 18 51  0.0000000  0  8G24G26G08G17G11G01G07G28
 115334965.629 7  89871497.39145  21947508.781                    21947519.234
 120321732.971 7  93757267.34344  22896469.289                    22896480.070
 105287742.255 8  82042448.52646  20035595.773                    20035605.844
 115050289.668 8  89649706.933 7  21893352.484                    21893363.145
 114202890.488 8  88989314.83645  21732088.930                    21732098.691
 114823830.975 7  89473307.001 7  21850260.875                    21850274.059
 108915438.464 8  84869155.770 7  20725915.195                    20725924.551
 115117555.490 8  89702038.68945  21906135.992                    21906144.711
 11  8 25 18 51 30.0000000  0  8G24G26G08G17G11G01G07G28
 115325670.087 7  89864254.13345  21945740.203                    21945750.914
 120302427.539 7  93742224.13444  22892795.570                    22892806.523
 105274580.412 8  82032192.51646  20033091.328                    20033100.859
 114987062.502 7  89600439.053 7  21881321.125                    21881331.883
 114239640.391 8  89017951.11445  21739082.422                    21739091.516
 114806054.322 8  89459455.077 7  21846878.422                    21846891.422
 108962310.371 8  84905679.289 7  20734834.578                    20734843.684
 115094446.225 8  89684031.48745  21901738.453                    21901747.613
 11  8 25 18 52  0.0000000  0  8G24G26G08G17G11G01G07G28
 115316917.828 7  89857434.19745  21944074.477                    21944085.301
 120283721.541 7  93727648.02044  22889235.703                    22889246.961
 105261937.328 8  82022340.75146  20030685.633                    20030694.668
 114924191.531 8  89551448.722 7  21869357.086                    21869367.945
 114276947.148 8  89047021.29745  21746181.742                    21746190.566
 114788813.247 7  89446020.495 7  21843597.398                    21843610.250
 109009669.468 8  84942582.430 7  20743846.859                    20743856.066
 115071356.810 8  89666039.74945  21897344.461                    21897353.355
 11  8 25 18 52 30.0000000  0  8G24G26G08G17G11G01G07G28
 115308709.896 7  89851038.41445  21942512.055                    21942523.758
 120265615.037 7  93713539.05244  22885789.664                    22885801.504
 105249814.728 8  82012894.53846  20028378.602                    20028388.133
 114861677.222 8  89502736.311 7  21857461.281                    21857471.316
 114314809.509 8  89076524.42845  21753386.836                    21753396.105
 114772109.012 7  89433004.223 7  21840418.914                    21840431.934
 109057515.099 8  84979864.678 7  20752951.477                    20752960.828
 115048286.885 8  89648063.18845  21892954.570                    21892963.359
 11  8 25 18 53  0.0000000  0  8G24G26G08G17G11G01G07G28
 115301047.723 7  89845067.89645  21941054.125                    21941065.344
 120248108.266 7  93699897.40044  22882458.688                    22882469.348
 105238214.311 8  82003855.23346  20026171.086                    20026180.375
 114799520.592 7  89454302.613 7  21845633.016                    21845643.402
 114353226.248 7  89106459.54345  21760697.117                    21760705.906
 114755942.740 7  89420407.148 7  21837342.266                    21837355.137
 109105847.358 8  85017526.120 7  20762149.156                    20762158.434
 115025236.765 8  89630102.05745  21888568.688                    21888576.953
 11  8 25 18 53 30.0000000  0  8G24G26G08G17G11G01G07G28
 115293932.010 7  89839523.19245  21939700.094                    21939711.418
 120231201.121 7  93686722.97644  22879241.039                    22879251.988
 105227137.731 8  81995224.10646  20024063.523                    20024073.016
 114737722.241 7  89406148.102 7  21833873.375                    21833883.371
 114392196.492 7  89136825.96245  21768113.047                    21768121.938
 114740315.742 7  89408230.282 7  21834368.875                    21834381.945
 109154665.224 8  85055565.959 7  20771438.641                    20771448.035
 115002206.035 8  89612156.03545  21884185.992                    21884194.367
 11  8 25 18 54  0.0000000  0  8G24G26G08G17G11G01G07G28
 115287363.570 7  89834404.94045  21938450.258                    21938461.117
 120214893.480 7  93674015.71344  22876137.945                    22876149.539
 105216586.219 8  81987002.13746  20022055.688                    20022064.707
 114676282.456 8  89358272.993 7  21822181.258                    21822191.297
 114431718.776 7  89167622.53645  21775633.836                    21775643.215
 114725229.216 8  89396474.567 7  21831497.609                    21831510.414
 109203968.195 8  85093983.815 7  20780821.086                    20780830.270
 114979194.502 8  89594224.97445  21879806.563                    21879815.422
 11  8 25 18 54 30.0000000  0  8G24G26G08G17G11G01G07G28
 115281343.811 7  89829714.22845  21937304.680                    21937316.207
 120199185.566 7  93661775.77844  22873149.508                    22873160.547
 105206562.021 8  81979191.04946  20020148.211                    20020157.566
 114615201.950 8  89310677.847 7  21810558.219                    21810568.652
 114471792.281 7  89198848.62845  21783259.688                    21783269.031
 114710684.529 8  89385141.067 7  21828729.672                    21828743.316
 109253755.927 8  85132779.386 7  20790295.461                    20790304.543
 114956202.349 8  89576309.02045  21875431.469                    21875440.051
 11  8 25 18 55  0.0000000  0  8G24G26G08G17G11G01G07G28
 115275873.184 7  89825451.42445  21936263.805                    21936275.141
 120184077.001 7  93650002.82844  22870274.234                    22870285.219
 105197066.104 8  81971791.60746  20018341.078                    20018350.512
 114554480.961 8  89263362.831 7  21799003.555                    21799013.559
 114512415.507 8  89230503.07745  21790990.047                    21790999.199
 114696681.793 7  89374229.873 7  21826065.289                    21826078.316
 109304027.492 8  85171951.982 7  20799861.516                    20799870.648
 114933228.894 8  89558407.62145  21871059.898                    21871068.637
 11  8 25 18 55 30.0000000  0  8G24G26G08G17G11G01G07G28
 115270953.220 7  89821617.70045  21935327.477                    21935338.707
 120169568.502 7  93638697.47344  22867513.344                    22867524.438
 105188100.991 8  81964805.77246  20016635.094                    20016644.340
 114494120.715 8  89216328.919 7  21787516.891                    21787527.445
 114553587.639 8  89262585.24545  21798824.930                    21798834.004
 114683223.785 8  89363743.137 7  21823503.969                    21823517.484
 109354782.811 8  85211501.532 7  20809519.906                    20809529.289
 114910274.973 8  89540521.44445  21866691.836                    21866700.586
 11  8 25 18 56  0.0000000  0  8G24G26G08G17G11G01G07G28
 115266584.885 7  89818213.80345  21934496.008                    21934507.512
 120155659.528 7  93627859.28944  22864866.313                    22864877.402
 105179668.054 8  81958234.63746  20015030.008                    20015039.672
 114434121.494 7  89169576.322 7  21776099.547                    21776110.184
 114595307.293 8  89295094.05545  21806763.531                    21806772.324
 114670311.249 7  89353681.442 7  21821047.156                    21821060.160
 109406021.324 8  85251427.597 7  20819270.164                    20819279.965
 114887340.368 8  89522650.31545  21862327.539                    21862336.000
 11  8 25 18 56 30.0000000  0  8G24G26G08G17G11G01G07G28
 115262768.686 7  89815240.14945  21933769.977                    21933781.430
 120142349.628 7  93617487.92144  22862333.789                    22862344.188
 105171768.249 8  81952078.92346  20013527.297                    20013536.906
 114374483.484 8  89123105.187 7  21764751.109                    21764761.172
 114637572.909 8  89328028.27645  21814807.039                    21814815.938
 114657944.809 7  89344045.274 7  21818693.867                    21818706.895
 109457742.029 8  85291729.393 7  20829112.773                    20829122.031
 114864424.488 8  89504793.78746  21857966.789                    21857975.445
 11  8 25 18 57  0.0000000  0  8G24G26G08G17G11G01G07G28
 115259505.518 7  89812697.43845  21933149.359                    21933160.527
 120129639.115 7  93607583.61644  22859914.813                    22859926.141
 105164403.684 8  81946340.28246  20012125.492                    20012135.051
 114315207.427 8  89076916.095 7  21753471.055                    21753481.117
 114680383.700 8  89361387.32545  21822953.641                    21822962.621
 114646125.587 8  89334835.496 7  21816444.789                    21816457.738
 109509944.446 8  85332406.540 7  20839046.625                    20839056.164
 114841527.708 8  89486952.13946  21853609.523                    21853618.148
 11  8 25 18 57 30.0000000  0  8G24G26G08G17G11G01G07G28
 115256796.438 7  89810586.47445  21932633.695                    21932644.520
 120117527.904 7  93598146.28044  22857610.758                    22857621.469
 105157576.113 8  81941020.06946  20010826.508                    20010835.465
 114256294.255 8  89031009.770 7  21742260.125                    21742270.254
 114723738.187 8  89395170.03145  21831203.438                    21831212.941
 114634855.311 7  89326053.486 7  21814300.500                    21814312.887
 109562628.086 8  85373458.683 7  20849071.836                    20849081.191
 114818650.166 8  89469125.48245  21849256.383                    21849264.348
 11  8 25 18 58  0.0000000  0  8G24G26G08G17G11G01G07G28
 115254642.328 7  89808907.97445  21932223.016                    21932234.855
 120106015.573 7  93589175.60144  22855419.531                    22855431.004
 105151287.174 8  81936119.57446  20009629.969                    20009639.160
 114197744.616 8  88985386.716 7  21731118.922                    21731128.438
 114767635.304 8  89429375.55545  21839556.641                    21839566.426
 114624134.687 7  89317699.768 7  21812260.273                    21812273.219
 109615792.346 8  85414885.311 7  20859188.750                    20859198.434
 114795791.803 8  89451313.76546  21844906.773                    21844915.125
 11  8 25 18 58 30.0000000  0  8G24G26G08G17G11G01G07G28
 115253043.540 7  89807662.19445  21931919.383                    21931930.738
 120095101.897 7  93580671.42044  22853342.836                    22853353.945
 105145537.686 8  81931639.42946  20008535.898                    20008545.094
 114139558.080 7  88940046.603 7  21720046.070                    21720055.953
 114812073.597 8  89464002.75645  21848013.063                    21848022.523
 114613964.424 7  89309774.897 7  21810324.898                    21810337.781
 109669436.197 8  85456685.660 7  20869396.961                    20869406.367
 114772952.268 8  89433516.72545  21840560.445                    21840568.965
 11  8 25 18 59  0.0000000  0  8G24G26G08G17G11G01G07G28
 115252000.957 7  89806849.78945  21931721.164                    21931732.113
 120084786.367 7  93572633.31444  22851379.688                    22851391.094
 105140329.062 8  81927580.74446  20007544.367                    20007553.805
 114081735.326 7  88894989.953 7  21709042.688                    21709053.016
 114857051.185 8  89499050.20345  21856572.164                    21856580.656
 114604345.560 7  89302279.698 7  21808494.602                    21808507.211
 109723558.793 8  85498859.055 7  20879695.859                    20879705.699
 114750131.551 8  89415734.35346  21836217.773                    21836226.078
 11  8 25 18 59 30.0000000  0  8G24G26G08G17G11G01G07G28
 115251515.358 7  89806471.40845  21931628.242                    21931639.605
 120075069.024 7  93565061.30244  22849531.203                    22849542.109
 105135662.963 8  81923944.80046  20006656.734                    20006665.871
 114024276.790 7  88850217.105 7  21698108.422                    21698118.629
 114902566.903 8  89534516.97745  21865233.617                    21865242.633
 114595279.336 8  89295215.118 7  21806769.109                    21806782.203
 109778159.312 8  85541404.854 7  20890086.297                    20890096.012
 114727329.776 8  89397966.72746  21831878.438                    21831887.188
 11  8 25 19  0  0.0000000  0  8G24G26G08G17G11G01G07G28
 115251587.379 7  89806527.55045  21931642.094                    21931653.273
 120065949.159 7  93557954.89744  22847794.992                    22847806.055
 105131540.658 8  81920732.59346  20005872.102                    20005881.535
 113967182.831 8  88805728.333 7  21687244.039                    21687254.582
 114948619.446 8  89570402.05345  21873997.156                    21874005.852
 114586765.941 7  89288581.316 7  21805148.805                    21805162.250
 109833237.425 8  85584322.800 7  20900567.180                    20900576.906
 114704546.958 8  89380213.88546  21827542.930                    21827551.977
 11  8 25 19  0 30.0000000  0  8G24G26G08G17G11G01G07G28
 115252217.366 7  89807018.47045  21931761.852                    21931773.117
 120057426.368 7  93551313.75944  22846173.617                    22846184.547
 105127963.359 8  81917945.06146  20005191.508                    20005200.758
 113910453.680 7  88761523.839 7  21676448.969                    21676458.918
 114995207.333 8  89606704.27545  21882862.516                    21882871.309
 114578807.069 7  89282379.597 7  21803634.867                    21803646.672
 109888791.692 8  85627611.778 7  20911139.227                    20911148.469
 114681782.713 8  89362475.51845  21823211.430                    21823219.887
 11  8 25 19  1  0.0000000  0  8G24G26G08G17G11G01G07G28
 115253406.415 7  89807945.00945  21931987.984                    21931999.418
 120049500.731 7  93545137.90044  22844665.172                    22844676.410
 105124932.863 8  81915583.61746  20004614.500                    20004623.777
 113854090.097 8  88717604.201 7  21665723.258                    21665733.930
 115042329.020 8  89643422.45145  21891829.156                    21891838.238
 114571403.113 7  89276610.291 7  21802225.250                    21802238.621
 109944821.623 8  85671271.404 7  20921801.195                    20921811.004
 114659037.560 8  89344752.02446  21818883.039                    21818891.418
 11  8 25 19  1 30.0000000  0  8G24G26G08G17G11G01G07G28
 115255154.959 7  89809307.53545  21932321.375                    21932332.129
 120042171.116 7  93539426.47144  22843270.828                    22843281.871
 105122450.110 8  81913648.98646  20004142.102                    20004151.789
 113798092.297 7  88673969.584 7  21655066.781                    21655077.203
 115089982.995 8  89680555.39845  21900897.641                    21900906.523
 114564554.916 7  89271274.040 7  21800922.313                    21800935.320
 110001326.377 8  85715301.023 7  20932553.422                    20932563.133
 114636311.130 8  89327043.12546  21814558.328                    21814566.887
 11  8 25 19  2  0.0000000  0  8G24G26G08G17G11G01G07G28
 115257463.590 7  89811106.48545  21932760.336                    21932772.012
 120035437.677 7  93534179.60844  22841988.969                    22842000.473
 105120516.801 8  81912142.48846  20003774.523                    20003783.895
 113742460.789 7  88630620.392 7  21644480.336                    21644491.020
 115138167.959 8  89718102.09445  21910066.602                    21910076.352
 114558263.641 7  89266371.765 7  21799724.977                    21799738.113
 110058305.103 8  85759699.961 7  20943396.320                    20943406.180
 114613603.852 8  89309349.13646  21810237.453                    21810245.504
 11  8 25 19  2 30.0000000  0  8G24G26G08G17G11G01G07G28
 115260332.821 7  89813342.25545  21933306.289                    21933317.926
 120029299.920 7  93529396.90844  22840821.617                    22840832.359
 105119134.286 8  81911065.17946  20003511.109                    20003521.070
 113687195.879 7  88587556.861 7  21633964.508                    21633974.492
 115186882.237 7  89756061.23545  21919337.008                    21919346.344
 114552530.306 7  89261904.237 7  21798634.180                    21798646.980
 110115757.081 7  85804467.678 7  20954329.109                    20954338.934
 114590915.476 8  89291669.88446  21805919.609                    21805928.305
 11  8 25 19  3  0.0000000  0  8G24G26G08G17G11G01G07G28
 115263763.630 7  89816015.61945  21933959.117                    21933970.520
 120023757.446 7  93525078.08444  22839767.023                    22839777.047
 105118304.046 8  81910418.21646  20003353.445                    20003362.859
 113632298.099 8  88544779.402 7  21623517.602                    21623527.605
 115236124.654 7  89794431.93245  21928707.719                    21928717.105
 114547354.860 7  89257871.437 7  21797649.094                    21797662.578
 110173681.392 8  85849603.432 7  20965352.070                    20965361.883
 114568246.758 8  89274005.95846  21801606.000                    21801614.309
 11  8 25 19  3 30.0000000  0  8G24G26G08G17G11G01G07G28
 115267755.911 7  89819126.49545  21934718.820                    21934730.355
 120018809.246 7  93521222.32544  22838824.930                    22838835.867
 105118026.741 8  81910202.11046  20003300.523                    20003310.320
 113577767.451 7  88502288.024 7  21613140.586                    21613151.000
 115285893.376 8  89833212.72745  21938178.039                    21938187.660
 114542737.969 7  89254273.866 7  21796770.586                    21796783.758
 110232076.902 8  85895106.355 7  20976464.469                    20976473.750
 114545597.030 8  89256356.82146  21797296.328                    21797304.637
 11  8 25 19  4  0.0000000  0  8G24G26G08G17G11G01G07G28
 115272310.522 7  89822675.55845  21935585.664                    21935596.695
 120014455.179 7  93517829.51344  22837996.656                    22838007.469
 105118304.105 8  81910418.21446  20003353.391                    20003362.926
 113523604.319 8  88460083.020 7  21602833.656                    21602843.504
 115336186.765 7  89872402.37245  21947748.438                    21947758.027
 114538681.356 7  89251112.875 7  21795998.867                    21796011.867
 110290942.855 7  85940975.871 7  20987666.234                    20987675.840
 114522966.523 8  89238722.65546  21792989.680                    21792997.840
 11  8 25 19  4 30.0000000  0  8G24G26G08G17G11G01G07G28
 115277427.654 7  89826662.94645  21936559.000                    21936570.285
 120010694.338 7  93514898.94944  22837280.367                    22837291.617
 105119136.862 8  81911067.09446  20003511.820                    20003521.164
 113469808.955 8  88418164.587 7  21592596.688                    21592606.820
 115387003.264 8  89911999.63045  21957418.492                    21957427.277
 114535185.238 7  89248388.635 7  21795333.719                    21795346.738
 110350278.203 8  85987211.137 7  20998957.563                    20998967.211
 114500355.472 8  89221103.65046  21788686.977                    21788695.168
 11  8 25 19  5  0.0000000  0  8G24G26G08G17G11G01G07G28
 115283107.959 7  89831089.16945  21937640.242                    21937650.969
 120007526.282 7  93512430.29544  22836677.883                    22836688.906
 105120526.502 8  81912149.89546  20003776.156                    20003786.203
 113416381.459 8  88376532.803 7  21582429.758                    21582440.402
 115438341.317 7  89952003.28045  21967188.359                    21967197.652
 114532249.826 7  89246101.310 7  21794774.742                    21794788.109
 110410082.156 8  86033811.555 7  21010337.250                    21010347.457
 114477764.001 8  89203499.90746  21784388.063                    21784396.160
 11  8 25 19  5 30.0000000  0  8G24G26G08G17G11G01G07G28
 115289351.806 7  89835954.50345  21938828.414                    21938839.816
 120004950.385 7  93510423.07344  22836187.984                    22836198.750
 105122474.220 8  81913667.57746  20004147.039                    20004156.902
 113363322.454 8  88335188.163 7  21572332.602                    21572342.848
 115490199.183 7  89992411.98845  21977056.625                    21977065.293
 114529876.062 7  89244251.646 7  21794322.750                    21794336.164
 110470353.392 8  86080776.082 7  21021806.953                    21021816.992
 114455192.046 8  89185911.37046  21780092.516                    21780101.301
 11  8 25 19  6  0.0000000  0  8G24G26G08G17G11G01G07G28
 115296159.742 7  89841259.38945  21940124.172                    21940135.516
 120002966.304 7  93508876.99744  22835810.211                    22835821.809
 105124981.574 8  81915621.32846  20004624.039                    20004633.934
 113310632.101 8  88294130.786 7  21562306.227                    21562316.426
 115542575.643 7  90033224.79145  21987023.070                    21987032.527
 114528065.905 7  89242841.129 7  21793978.242                    21793991.309
 110531091.454 7  86128104.386 7  21033364.891                    21033374.891
 114432640.388 8  89168338.64845  21775800.789                    21775809.563
 11  8 25 19  6 30.0000000  0  8G24G26G08G17G11G01G07G28
 115303531.968 8  89847003.98445  21941526.602                    21941537.645
 120001572.929 7  93507791.20444  22835545.344                    22835556.219
 105128049.278 8  81918011.71846  20005207.797                    20005217.336
 113258310.805 8  88253360.970 7  21552350.148                    21552359.711
 115595468.799 7  90074440.22045  21997088.398                    21997098.316
 114526818.482 7  89241869.113 7  21793741.250                    21793754.133
 110592294.923 7  86175795.344 7  21045011.719                    21045021.859
 114410108.619 8  89150781.41546  21771513.484                    21771522.227
 11  8 25 19  7  0.0000000  0  8G24G26G08G17G11G01G07G28
 115311468.363 7  89853188.17745  21943036.758                    21943048.047
 120000769.375 7  93507165.01444  22835392.281                    22835403.008
 105131678.033 8  81920839.28346  20005898.750                    20005907.855
 113206358.148 8  88212878.421 7  21542463.633                    21542473.297
 115648876.621 8  90116056.68745  22007251.945                    22007261.383
 114526134.128 7  89241335.857 7  21793610.984                    21793623.883
 110653962.639 7  86223848.047 7  21056746.516                    21056756.563
 114387596.332 8  89133239.36245  21767229.797                    21767238.117
 11  8 25 19  7 30.0000000  0  8G24G26G08G17G11G01G07G28
 115319969.652 7  89859812.58045  21944654.805                    21944665.836
 120000555.325 7  93506998.19644  22835352.227                    22835362.988
 105135869.510 8  81924105.34146  20006696.133                    20006705.809
 113154774.900 8  88172683.722 7  21532647.328                    21532657.656
 115702797.754 7  90158073.13145  22017512.523                    22017521.816
 114526014.258 7  89241242.438 7  21793588.391                    21793600.941
 110716093.871 8  86272261.929 7  21068569.820                    21068580.023
 114365104.478 8  89115713.23645  21762949.398                    21762958.168
 11  8 25 19  8  0.0000000  0  8G24G26G08G17G11G01G07G28
 115329036.757 7  89866877.85945  21946380.055                    21946391.188
 120000930.201 7  93507290.27844  22835423.563                    22835434.121
 105140625.401 8  81927811.19846  20007601.516                    20007610.805
 113103561.652 8  88132777.322 7  21522902.148                    21522912.180
 115757230.828 7  90200488.49645  22027871.289                    22027880.262
 114526459.487 7  89241589.378 7  21793673.023                    21793685.906
 110778688.012 7  86321036.523 7  21080481.320                    21080491.078
 114342633.619 7  89098203.46745  21758673.109                    21758681.703
 11  8 25 19  8 30.0000000  0  8G24G26G08G17G11G01G07G28
 115338668.743 7  89874383.31045  21948213.180                    21948224.656
 120001892.141 7  93508039.80644  22835606.055                    22835617.152
 105145945.198 7  81931956.45546  20008613.383                    20008623.152
 113052717.381 8  88093158.452 7  21513226.820                    21513236.605
 115812172.893 7  90243300.45845  22038325.711                    22038335.242
 114527469.031 7  89242376.038 7  21793865.117                    21793878.180
 110841742.440 7  86370169.781 7  21092479.789                    21092490.484
 114320182.471 7  89080709.06746  21754400.914                    21754409.422
 11  8 25 19  9  0.0000000  0  8G24G26G08G17G11G01G07G28
 115348865.492 7  89882328.83045  21950153.469                    21950164.840
 120003439.948 7  93509245.85444  22835900.742                    22835911.660
 105151829.633 8  81936541.69446  20009733.477                    20009742.797
 113002241.816 8  88053826.881 7  21503621.680                    21503630.969
 115867621.760 7  90286507.35245  22048877.672                    22048886.973
 114529042.695 7  89243602.286 7  21794164.133                    21794177.395
 110905255.851 7  86419660.690 7  21104566.664                    21104576.234
 114297750.865 7  89063229.90146  21750132.320                    21750140.988
 11  8 25 19  9 30.0000000  0  8G24G26G08G17G11G01G07G28
 115359628.574 7  89890715.62745  21952201.555                    21952213.074
 120005574.521 7  93510909.13244  22836306.984                    22836317.957
 105158281.509 7  81941569.09946  20010961.039                    20010970.781
 112952136.885 7  88014784.113 7  21494086.773                    21494096.645
 115923577.462 7  90330109.16745  22059525.883                    22059534.750
 114531183.107 7  89245270.129 7  21794571.484                    21794584.602
 110969228.892 7  86469509.748 7  21116740.055                    21116750.410
 114275340.958 8  89045767.62846  21745868.102                    21745876.465
 11  8 25 19 10  0.0000000  0  8G24G26G08G17G11G01G07G28
 115370958.035 7  89899543.78045  21954357.586                    21954368.746
 120008294.492 7  93513028.54144  22836824.180                    22836835.691
 105165301.339 8  81947039.07346  20012297.156                    20012307.012
 112902402.210 7  87976029.855 7  21484622.547                    21484632.371
 115980038.052 7  90374104.42145  22070269.664                    22070278.895
 114533890.829 7  89247380.044 7  21795086.906                    21795099.699
 111033659.995 7  86519715.740 7  21129000.688                    21129010.867
 114252952.473 7  89028322.05446  21741607.523                    21741615.848
 11  8 25 19 10 30.0000000  0  8G24G26G08G17G11G01G07G28
 115382854.104 7  89908813.44545  21956621.500                    21956632.258
 120011599.072 7  93515603.52644  22837453.734                    22837464.355
 105172890.262 8  81952952.48446  20013741.094                    20013750.617
 112853037.996 8  87937564.261 7  21475228.688                    21475238.723
 116037001.540 7  90418491.52445  22081109.422                    22081119.262
 114537165.539 7  89249931.761 7  21795710.023                    21795723.246
 111098548.052 7  86570277.787 7  21141348.688                    21141358.711
 114230585.581 7  89010893.30146  21737351.617                    21737359.914
 11  8 25 19 11  0.0000000  0  8G24G26G08G17G11G01G07G28
 115395316.550 7  89918524.44345  21958992.594                    21959003.992
 120015487.155 7  93518633.16244  22838193.289                    22838204.777
 105181048.683 8  81959309.66746  20015293.461                    20015303.230
 112804044.370 7  87899387.441 7  21465905.586                    21465915.531
 116094465.795 7  90463268.83345  22092044.742                    22092053.918
 114541007.625 7  89252925.588 7  21796441.156                    21796454.742
 111163891.468 7  86621194.663 7  21153783.367                    21153793.051
 114208240.508 8  88993481.55546  21733099.695                    21733108.137
 11  8 25 19 11 30.0000000  0  8G24G26G08G17G11G01G07G28
 115408345.378 7  89928676.79245  21961472.461                    21961482.961
 120019957.664 7  93522116.63344  22839044.008                    22839055.215
 105189777.497 8  81966111.31246  20016954.938                    20016963.977
 112755421.402 8  87861499.444 7  21456652.984                    21456662.961
 116152429.127 7  90508435.02945  22103074.742                    22103083.887
 114545417.452 7  89256361.810 7  21797280.563                    21797293.559
 111229689.181 8  86672465.539 7  21166304.477                    21166314.766
 114185917.219 7  88976086.78246  21728851.719                    21728859.973
 11  8 25 19 12  0.0000000  0  8G24G26G08G17G11G01G07G28
 115421941.307 8  89939271.01345  21964059.438                    21964070.156
 120025009.886 7  93526053.38944  22840005.117                    22840016.813
 105199078.243 7  81973358.61746  20018724.758                    20018734.254
 112707169.383 8  87823900.504 7  21447470.664                    21447480.770
 116210889.842 7  90553988.81845  22114199.750                    22114208.777
 114550395.907 7  89260241.142 7  21798227.711                    21798240.813
 111295940.353 7  86724089.762 7  21178911.664                    21178921.879
 114163616.520 7  88958709.61746  21724607.375                    21724616.125
 11  8 25 19 12 30.0000000  0  8G24G26G08G17G11G01G07G28
 115436103.900 7  89950306.79945  21966754.500                    21966765.566
 120030642.777 7  93530442.61744  22841077.758                    22841088.367
 105208951.660 8  81981052.16646  20020603.086                    20020613.082
 112659287.815 7  87786590.216 7  21438359.039                    21438369.016
 116269845.904 7  90599928.57445  22125418.844                    22125428.438
 114555942.290 7  89264563.017 7  21799283.320                    21799296.457
 111362643.804 8  86776066.422 7  21191605.156                    21191614.727
 114141338.216 7  88941349.88746  21720368.133                    21720376.789
 11  8 25 19 13  0.0000000  0  8G24G26G08G17G11G01G07G28
 115450833.166 7  89961784.14545  21969557.000                    21969568.250
 120036855.043 7  93535283.28844  22842259.547                    22842270.723
 105219398.081 8  81989192.20146  20022591.289                    20022600.770
 112611777.123 8  87749568.918 7  21429318.281                    21429327.793
 116329295.362 7  90646252.79744  22136731.797                    22136741.004
 114562057.405 7  89269328.044 7  21800447.031                    21800459.703
 111429797.751 8  86828394.104 7  21204383.852                    21204393.855
 114119082.720 8  88924007.94346  21716132.977                    21716141.867
 11  8 25 19 13 30.0000000  0  8G24G26G08G17G11G01G07G28
 115466129.469 7  89973703.32545  21972468.219                    21972479.203
 120043645.840 7  93540574.77844  22843551.813                    22843562.707
 105230418.852 8  81997779.77946  20024688.617                    20024698.211
 112564637.611 8  87712836.870 7  21420347.867                    21420357.680
 116389236.627 7  90692960.23945  22148137.727                    22148147.473
 114568741.839 7  89274536.708 7  21801718.969                    21801732.594
 111497401.110 8  86881071.965 7  21217247.961                    21217258.195
 114096850.469 8  88906684.10246  21711902.500                    21711910.711
 11  8 25 19 14  0.0000000  0  8G24G26G08G17G11G01G07G28
 115481992.277 7  89986063.94745  21975486.750                    21975498.012
 120051013.954 7  93546316.12644  22844954.305                    22844965.672
 105242014.137 8  82006815.03446  20026895.250                    20026905.027
 112517868.704 7  87676393.593 7  21411447.914                    21411457.945
 116449666.913 7  90740048.75045  22159637.375                    22159646.531
 114575995.003 8  89280188.535 7  21803099.109                    21803112.352
 111565452.405 8  86934098.882 7  21230198.234                    21230208.441
 114074641.268 8  88889378.23046  21707675.875                    21707684.172
 11  8 25 19 14 30.0000000  0  8G24G26G08G17G11G01G07G28
 115498421.495 7  89998865.94245  21978613.164                    21978624.457
 120058958.060 7  93552506.28944  22846465.797                    22846476.859
 105254184.856 8  82016298.68046  20029210.961                    20029220.984
 112471470.639 8  87640239.280 7  21402618.547                    21402628.629
 116510585.078 7  90787517.40345  22171230.070                    22171239.309
 114583816.741 7  89286283.398 7  21804587.578                    21804600.348
 111633950.274 8  86987473.762 7  21243232.984                    21243242.594
 114052455.534 8  88872090.64046  21703453.906                    21703462.605
 11  8 25 19 15  0.0000000  0  8G24G26G08G17G11G01G07G28
 115515416.768 7  90012109.02145  21981847.133                    21981858.207
 120067476.720 7  93559144.15344  22848087.289                    22848098.688
 105266931.099 8  82026230.78746  20031636.836                    20031646.383
 112425442.842 7  87604373.495 7  21393859.609                    21393869.680
 116571988.331 7  90835364.07645  22182914.391                    22182923.625
 114592208.042 7  89292822.086 7  21806184.375                    21806197.258
 111702893.111 8  87041195.389 7  21256352.258                    21256362.395
 114030293.132 8  88854821.23545  21699236.773                    21699245.426
 11  8 25 19 15 30.0000000  0  8G24G26G08G17G11G01G07G28
 115532978.398 7  90025793.40945  21985189.297                    21985200.285
 120076569.155 7  93566229.13744  22849816.977                    22849828.055
 105280254.235 8  82036612.41446  20034171.953                    20034181.496
 112379786.082 8  87568796.827 7  21385171.484                    21385181.707
 116633875.082 7  90883587.49245  22194690.742                    22194700.422
 114601168.406 7  89299804.214 7  21807889.273                    21807902.332
 111772280.071 8  87095263.089 7  21269556.125                    21269566.559
 114008154.909 8  88837570.66046  21695024.094                    21695032.387
 11  8 25 19 16  0.0000000  0  8G24G26G08G17G11G01G07G28
 115551106.283 7  90039919.03845  21988638.789                    21988649.836
 120086234.175 7  93573760.27544  22851655.867                    22851667.266
 105294154.959 8  82047444.11446  20036817.484                    20036827.297
 112334500.012 8  87533508.999 7  21376554.133                    21376563.934
 116696243.462 7  90932186.18745  22206559.492                    22206568.785
 114610698.771 7  89307230.475 7  21809703.367                    21809716.262
 111842109.665 8  87149675.696 7  21282844.523                    21282854.379
 113986041.055 8  88820339.07546  21690816.266                    21690824.520
 11  8 25 19 16 30.0000000  0  8G24G26G08G17G11G01G07G28
 115569800.544 7  90054485.98645  21992195.992                    21992207.391
 120096470.669 7  93581736.72444  22853604.219                    22853615.715
 105308634.438 8  82058726.79946  20039572.773                    20039582.020
 112289584.800 8  87498510.171 7  21368007.047                    21368016.469
 116759091.982 7  90981159.02645  22218519.031                    22218528.547
 114620798.386 7  89315100.317 7  21811624.797                    21811638.016
 111912380.600 8  87204432.191 7  21296216.898                    21296226.859
 113963952.327 7  88803127.08046  21686612.664                    21686621.383
 11  8 25 19 17  0.0000000  0  8G24G26G08G17G11G01G07G28
 115589060.892 7  90069494.06045  21995861.414                    21995872.418
 120107277.358 7  93590157.48944  22855660.789                    22855672.035
 105323692.937 8  82070460.65846  20042438.203                    20042447.773
 112245040.504 8  87463800.366 7  21359530.328                    21359540.121
 116822418.087 7  91030504.01544  22230569.422                    22230579.148
 114631467.817 7  89323414.164 7  21813655.016                    21813668.348
 111983091.649 8  87259531.642 7  21309672.922                    21309682.730
 113941888.912 8  88785934.80446  21682414.469                    21682422.953
 11  8 25 19 17 30.0000000  0  8G24G26G08G17G11G01G07G28
 115608886.726 7  90084942.75345  21999634.070                    21999645.000
 120118652.759 7  93599021.38244  22857825.680                    22857836.160
 105339330.689 8  82082645.88646  20045413.984                    20045423.605
 112200866.731 8  87429379.284 7  21351124.289                    21351134.219
 116886219.853 7  91080219.63345  22242710.570                    22242720.543
 114642707.084 8  89332172.042 7  21815793.766                    21815806.711
 112054240.879 8  87314972.529 7  21323211.977                    21323221.844
 113919851.021 8  88768762.43046  21678220.156                    21678229.078
 11  8 25 19 18  0.0000000  0  8G24G26G08G17G11G01G07G28
 115629278.387 7  90100832.35945  22003514.523                    22003525.875
 120130596.018 7  93608327.79044  22860097.945                    22860109.309
 105355549.328 8  82095283.75746  20048500.078                    20048510.184
 112157063.695 8  87395247.073 7  21342788.641                    21342798.707
 116950495.447 7  91130304.48144  22254941.938                    22254951.719
 114654516.735 7  89341374.377 7  21818041.117                    21818054.504
 112125827.618 8  87370754.337 7  21336834.617                    21336844.191
 113897839.179 8  88751610.34245  21674031.922                    21674040.078
 11  8 25 19 18 30.0000000  0  8G24G26G08G17G11G01G07G28
 115650234.890 8  90117162.10445  22007502.313                    22007513.254
 120143105.243 7  93618075.19444  22862478.109                    22862489.898
 105372348.129 8  82108373.70346  20051697.164                    20051706.922
 112113630.850 8  87361403.324 7  21334523.820                    21334533.754
 117015242.000 7  91180756.30845  22267262.672                    22267272.523
 114666895.220 7  89351019.955 7  21820396.695                    21820409.875
 112197849.642 8  87426875.327 7  21350539.914                    21350549.555
 113875853.186 8  88734478.38546  21669848.102                    21669856.059
 11  8 25 19 19  0.0000000  0  8G24G26G08G17G11G01G07G28
 115671755.886 7  90133931.71945  22011597.641                    22011608.148
 120156178.827 7  93628262.36444  22864966.500                    22864977.563
 105389727.587 8  82121916.10046  20055004.352                    20055013.832
 112070568.145 8  87327847.995 7  21326329.070                    21326338.941
 117080457.807 7  91231573.78244  22279672.859                    22279682.680
 114679843.253 7  89361109.327 7  21822860.563                    21822873.813
 112270305.285 8  87483334.196 7  21364328.141                    21364337.566
 113853893.520 8  88717366.95445  21665669.234                    21665677.602
 11  8 25 19 19 30.0000000  0  8G24G26G08G17G11G01G07G28
 115693841.085 7  90151140.98045  22015800.180                    22015810.883
 120169815.556 7  93638888.34044  22867561.484                    22867573.270
 105407687.899 8  82135911.11846  20058422.242                    20058431.422
 112027875.203 8  87294580.798 7  21318205.266                    21318214.910
 117146140.143 7  91282754.78944  22292172.609                    22292182.207
 114693360.126 7  89371641.943 7  21825433.180                    21825446.109
 112343193.043 8  87540129.780 7  21378198.016                    21378207.570
 113831960.226 8  88700276.06646  21661495.258                    21661503.711
 11  8 25 19 20  0.0000000  0  8G24G26G08G17G11G01G07G28
 115716490.759 7  90168790.07645  22020110.195                    22020121.293
 120184014.297 7  93649952.25344  22870263.070                    22870274.914
 105426230.483 8  82150359.84846  20061950.805                    20061960.469
 111985552.526 8  87261602.121 7  21310151.477                    21310161.246
 117212287.584 7  91334298.21244  22304759.586                    22304768.691
 114707446.715 7  89382618.499 7  21828113.492                    21828126.465
 112416512.265 8  87597261.568 7  21392150.086                    21392160.262
 113810054.784 8  88683206.88846  21657327.313                    21657335.293
 11  8 25 19 20 30.0000000  0  8G24G26G08G17G11G01G07G28
 115739703.844 7  90186878.19045  22024527.523                    22024538.867
 120198773.249 7  93661452.69544  22873071.852                    22873083.172
 105445355.181 8  82165262.18346  20065589.945                    20065599.738
 111943599.294 7  87228911.316 7  21302167.992                    21302177.969
 117278897.884 7  91386202.29444  22317435.367                    22317444.359
 114722102.285 7  89394038.433 7  21830902.703                    21830915.066
 112490260.603 8  87654727.733 7  21406184.219                    21406194.156
 113788176.521 8  88666158.87946  21653163.859                    21653172.164
 11  8 25 19 21  0.0000000  0  8G24G26G08G17G11G01G07G28
 115763480.635 7  90205405.54545  22029052.250                    22029063.523
 120214091.784 7  93673389.16944  22875987.031                    22875998.820
 105465063.650 8  82180619.40146  20069340.242                    20069350.582
 111902016.180 7  87196508.923 7  21294254.719                    21294264.652
 117345969.582 7  91438465.93344  22330198.578                    22330207.578
 114737327.303 7  89405902.086 7  21833799.922                    21833812.145
 112564437.327 8  87712527.704 7  21420299.703                    21420309.895
 113766326.848 8  88649133.15346  21649005.883                    21649014.609
 11  8 25 19 21 30.0000000  0  8G24G26G08G17G11G01G07G28
 115787820.685 7  90224371.83245  22033683.766                    22033694.941
 120229967.944 7  93685760.17244  22879008.156                    22879019.609
 105485355.535 8  82196431.23046  20073201.875                    20073211.859
 111860802.748 7  87164394.587 7  21286412.078                    21286421.922
 117413499.945 7  91491086.95744  22343049.453                    22343058.148
 114753121.585 7  89418209.302 7  21836805.180                    21836818.191
 112639040.559 8  87770660.019 7  21434496.313                    21434506.375
 113744506.052 8  88632129.93245  21644853.477                    21644862.121
 11  8 25 19 22  0.0000000  0  8G24G26G08G17G11G01G07G28
 115812723.055 7  90243776.26845  22038422.875                    22038433.766
 120246399.778 7  93698564.15844  22882135.680                    22882146.715
 105506230.639 8  82212697.51346  20077174.289                    20077183.906
 111819958.250 7  87132567.734 7  21278639.594                    21278649.199
 117481486.547 7  91544063.49544  22355986.594                    22355996.336
 114769484.225 7  89430959.396 7  21839918.773                    21839931.727
 112714068.515 8  87829123.291 7  21448773.438                    21448783.938
 113722714.046 8  88615149.13646  21640706.633                    21640715.098
 11  8 25 19 22 30.0000000  0  8G24G26G08G17G11G01G07G28
 115838187.436 7  90263618.64545  22043268.414                    22043279.879
 120263386.412 7  93711800.42144  22885367.516                    22885378.473
 105527690.069 8  82229419.11946  20081257.859                    20081267.840
 111779483.113 8  87101028.686 7  21270937.633                    21270947.082
 117549927.714 7  91597394.23644  22369010.477                    22369019.855
 114786415.444 7  89444152.544 7  21843141.281                    21843154.141
 112789519.860 8  87887916.470 7  21463131.172                    21463141.918
 113700951.677 8  88598191.44246  21636565.492                    21636574.180
 11  8 25 19 23  0.0000000  0  8G24G26G08G17G11G01G07G28
 115864213.914 7  90283899.00745  22048220.672                    22048232.336
 120280926.228 7  93725467.76944  22888705.180                    22888717.055
 105549734.527 8  82246596.58446  20085452.922                    20085462.578
 111739377.273 7  87069777.400 7  21263305.367                    21263315.215
 117618821.212 7  91651077.43844  22382120.273                    22382129.992
 114803915.326 7  89457788.794 7  21846471.156                    21846484.383
 112865393.328 8  87947038.561 7  21477569.641                    21477579.977
 113679219.533 8  88581257.30646  21632429.844                    21632438.500
 11  8 25 19 23 30.0000000  0  8G24G26G08G17G11G01G07G28
 115890801.692 7  90304616.73945  22053280.727                    22053291.789
 120299017.726 7  93739564.98744  22892148.484                    22892159.793
 105572364.003 8  82264229.90946  20089759.102                    20089768.797
 111699640.290 7  87038813.537 7  21255744.070                    21255753.516
 117688164.702 7  91705111.28544  22395316.367                    22395326.098
 114821983.470 7  89471867.862 7  21849909.242                    21849922.367
 112941686.993 8  88006488.098 7  21492088.227                    21492098.234
 113657518.325 8  88564347.26446  21628300.297                    21628309.051
 11  8 25 19 24  0.0000000  0  8G24G26G08G17G11G01G07G28
 115917949.398 7  90325770.79445  22058446.633                    22058458.168
 120317658.639 7  93754090.34244  22895695.320                    22895706.551
 105595577.846 8  82282318.58646  20094176.344                    20094186.188
 111660271.415 7  87008136.507 7  21248252.359                    21248262.367
 117757955.677 7  91759493.81944  22408596.984                    22408606.656
 114840618.767 7  89486388.862 7  21853455.828                    21853468.508
 113018398.618 8  88066263.320 7  21506685.938                    21506696.379
 113635847.333 8  88547460.77646  21624176.555                    21624185.133
 11  8 25 19 24 30.0000000  0  8G24G26G08G17G11G01G07G28
 115945657.482 7  90347361.48345  22063719.672                    22063730.094
 120336847.859 7  93769042.90644  22899346.430                    22899358.152
 105619377.191 8  82300863.49946  20098705.680                    20098715.320
 111621270.871 8  86977746.498 7  21240830.836                    21240840.270
 117828192.278 7  91814223.59644  22421962.445                    22421972.715
 114859822.083 7  89501352.482 7  21857110.305                    21857122.762
 113095527.262 8  88126363.474 7  21521362.945                    21521373.859
 113614208.003 8  88530598.96246  21620058.734                    21620067.523
 11  8 25 19 25  0.0000000  0  8G24G26G08G17G11G01G07G28
 115973924.668 7  90369387.84845  22069098.242                    22069108.938
 120356583.255 7  93784421.09544  22903102.914                    22903114.527
 105643761.568 8  82319864.26846  20103345.719                    20103355.391
 111582637.810 7  86947642.839 7  21233478.813                    21233489.047
 117898871.946 7  91869298.62644  22435412.602                    22435422.227
 114879592.213 7  89516757.769 7  21860871.602                    21860884.793
 113173070.818 7  88186786.945 7  21536119.344                    21536129.914
 113592600.148 8  88513761.66346  21615947.070                    21615955.766
 11  8 25 19 25 30.0000000  0  8G24G26G08G17G11G01G07G28
 116002750.719 7  90391849.70245  22074583.773                    22074594.832
 120376863.619 7  93800223.92144  22906961.852                    22906973.281
 105668731.675 8  82339321.45646  20108097.352                    20108107.441
 111544372.515 7  86917825.743 7  21226197.398                    21226207.188
 117969992.650 7  91924717.30444  22448946.375                    22448955.699
 114899928.488 7  89532604.220 7  21864741.984                    21864754.887
 113251027.813 8  88247532.578 7  21550953.766                    21550964.422
 113571025.017 8  88496949.87146  21611841.094                    21611849.820
 11  8 25 19 26  0.0000000  0  9G24G26G08G17G04G11G01G07G28
 116032134.884 7  90414746.43645  22080175.297                    22080186.398
 120397686.983 7  93816449.87244  22910924.477                    22910935.645
 105694287.434 8  82359235.00946  20112960.406                    20112970.215
 111506474.609 8  86888294.923 7  21218985.680                    21218995.566
 129309560.56816                  24606798.461
 118041551.772 7  91980477.61144  22462563.555                    22462573.246
 114920831.106 7  89548891.966 7  21868719.570                    21868732.449
 113329396.704 8  88308599.162 7  21565867.180                    21565877.766
 113549482.690 8  88480163.63046  21607741.875                    21607750.297
 11  8 25 19 26 30.0000000  0  9G24G26G08G17G04G11G01G07G28
 116062075.255 7  90438076.59345  22085873.102                    22085883.699
 120419050.813 7  93833096.96844  22914990.180                    22915001.621
 105720427.874 8  82379604.14346  20117934.734                    20117944.781
 111468942.614 8  86859049.233 7  21211843.516                    21211853.180
 129197184.657 6 100673227.14352  24585414.063                    24585432.672
 118113546.317 7  92036577.23144  22476264.016                    22476273.086
 114942298.649 7  89565619.915 7  21872804.594                    21872817.891
 113408174.752 8  88369984.568 7  21580858.273                    21580868.684
 113527972.973 8  88463402.81446  21603648.734                    21603657.410
 11  8 25 19 27  0.0000000  0  9G24G26G08G17G04G11G01G07G28
 116092571.640 7  90461840.01545  22091676.117                    22091687.488
 120440953.392 7  93850163.86944  22919157.914                    22919169.551
 105747153.923 8  82400429.59346  20123020.563                    20123030.363
 111431776.540 8  86830088.677 7  21204770.961                    21204780.688
 129084741.757 6 100585609.63843  24564016.539                    24564035.758
 118185974.191 7  92093014.48844  22490046.766                    22490056.152
 114964330.672 7  89582787.732 7  21876996.602                    21877009.660
 113487360.280 8  88431687.492 7  21595926.656                    21595937.188
 113506496.288 8  88446667.74846  21599561.594                    21599570.484
 11  8 25 19 27 30.0000000  0  9G24G26G08G17G04G11G01G07G28
 116123624.369 7  90486036.93145  22097585.180                    22097596.930
 120463394.115 7  93867650.09544  22923428.656                    22923439.652
 105774466.506 8  82421712.08246  20128218.102                    20128227.809
 111394977.170 8  86801413.867 7  21197768.102                    21197778.199
 128972234.955 6 100497942.37043  24542607.219                    24542626.551
 118258834.128 7  92149788.41844  22503911.102                    22503920.824
 114986927.493 7  89600395.636 7  21881296.977                    21881310.391
 113566952.780 7  88493707.537 7  21611072.680                    21611083.184
 113485054.514 8  88429959.85646  21595481.727                    21595490.078
 11  8 25 19 28  0.0000000  0  9G24G26G08G17G04G11G01G07G28
 116155232.549 7  90510666.65245  22103600.063                    22103611.156
 120486370.839 7  93885553.98244  22927800.352                    22927812.090
 105802365.264 8  82443451.34346  20133526.930                    20133536.906
 111358543.800 8  86773024.238 7  21190835.406                    21190845.395
 128859666.838 6 100410227.32943  24521185.969                    24521205.738
 118332123.695 7  92206897.13344  22517857.594                    22517867.402
 115010088.928 7  89618443.509 7  21885704.883                    21885717.430
 113646949.948 8  88556042.908 7  21626295.609                    21626306.477
 113463647.848 8  88413279.32546  21591408.320                    21591416.652
 11  8 25 19 28 30.0000000  0  9G24G26G08G17G04G11G01G07G28
 116187395.451 7  90535728.65245  22109720.328                    22109731.898
 120509882.023 7  93903874.34644  22932274.766                    22932286.398
 105830850.347 8  82465647.47646  20138947.719                    20138957.699
 111322476.555 8  86744919.914 7  21183972.070                    21183981.809
 128747039.829 6 100322466.38343  24499753.219                    24499772.781
 118405840.659 7  92264338.88144  22531885.125                    22531895.695
 115033814.198 7  89636930.727 7  21890219.438                    21890232.371
 113727350.335 8  88618692.465 7  21641595.328                    21641606.180
 113442277.087 8  88396626.76746  21587341.586                    21587350.082
 11  8 25 19 29  0.0000000  0  9G24G26G08G17G04G11G01G07G28
 116220111.888 7  90561221.96745  22115946.250                    22115957.668
 120533925.590 7  93922609.52544  22936850.063                    22936861.906
 105859921.520 8  82488300.29846  20144479.742                    20144489.926
 111286774.487 8  86717100.150 7  21177178.086                    21177187.637
 128634356.522 6 100234661.58843  24478310.289                    24478329.391
 118479982.604 7  92322111.76444  22545994.883                    22546004.512
 115058102.646 7  89655856.796 7  21894841.328                    21894854.453
 113808152.193 7  88681654.854 7  21656971.719                    21656982.484
 113420942.584 8  88380002.47346  21583281.406                    21583290.184
 11  8 25 19 29 30.0000000  0  9G24G26G08G17G04G11G01G07G28
 116253381.329 7  90587146.19645  22122277.492                    22122288.789
 120558499.645 7  93941758.08444  22941526.367                    22941538.523
 105889578.410 8  82511409.52846  20150123.406                    20150133.289
 111251437.184 8  86689564.602 7  21170453.633                    21170463.367
 128521619.212 5 100146814.72343  24456856.961                    24456875.730
 118554546.788 7  92380213.68044  22560183.500                    22560193.691
 115082953.879 7  89675221.385 7  21899570.977                    21899583.379
 113889353.513 7  88744928.520 7  21672423.398                    21672434.375
 113399644.791 8  88363406.78946  21579228.719                    21579236.938
 11  8 25 19 30  0.0000000  0  9G24G26G08G17G04G11G01G07G28
 116287203.307 7  90613500.97445  22128713.070                    22128724.699
 120583602.815 7  93961318.93444  22946303.422                    22946314.762
 105919822.302 8  82534976.16446  20155878.539                    20155888.617
 111216464.886 8  86662313.488 7  21163798.492                    21163808.070
 128408831.216 5 100058928.34442  24435392.945                    24435412.797
 118629531.759 7  92438643.48344  22574452.344                    22574462.680
 115108367.597 7  89695024.283 7  21904406.438                    21904419.184
 113970953.112 8  88808512.526 7  21687951.859                    21687962.523
 113378385.144 8  88346840.81146  21575183.164                    21575191.617
 11  8 25 19 30 30.0000000  0  9G24G26G08G17G04G11G01G07G28
 116321576.476 7  90640285.23145  22135254.633                    22135265.633
 120609232.793 7  93981290.28144  22951180.797                    22951192.305
 105950652.440 8  82558999.61046  20161745.352                    20161755.754
 111181856.795 8  86635346.162 7  21157212.766                    21157222.539
 128295994.623 6  99971004.07642  24413921.195                    24413940.703
 118704934.679 7  92497398.95644  22588801.438                    22588811.082
 115134342.753 7  89715264.660 7  21909349.250                    21909362.320
 114052948.557 7  88872404.985 7  21703555.156                    21703566.230
 113357163.347 8  88330304.34246  21571144.602                    21571153.340
 11  8 25 19 31  0.0000000  0  9G24G26G08G17G04G11G01G07G28
 116356500.573 7  90667498.80545  22141900.086                    22141911.414
 120635387.898 7  94001670.80844  22956158.117                    22956169.258
 105982069.324 8  82583480.26646  20167723.719                    20167733.879
 111147612.569 8  86608662.365 7  21150696.063                    21150706.043
 128183112.460 6  99883044.25442  24392440.211                    24392459.215
 118780753.393 7  92556478.42144  22603228.758                    22603238.828
 115160879.018 7  89735942.262 7  21914398.867                    21914411.797
 114135338.671 7  88936604.983 7  21719233.625                    21719244.031
 113335980.920 8  88313798.55646  21567113.656                    21567122.648
 11  8 25 19 31 30.0000000  0  9G24G26G08G17G04G11G01G07G28
 116391974.251 7  90695140.61845  22148650.820                    22148661.930
 120662066.020 7  94022458.89944  22961234.914                    22961246.309
 106014072.287 8  82608417.58546  20173813.891                    20173823.691
 111113731.937 8  86582261.885 7  21144249.469                    21144258.938
 128070187.123 6  99795050.77442  24370951.344                    24370970.344
 118856985.345 7  92615879.90244  22617735.641                    22617745.516
 115187975.713 7  89757056.565 7  21919555.680                    21919568.195
 114218121.096 8  89001110.685 7  21734986.211                    21734997.469
 113314837.949 8  88297323.49946  21563090.563                    21563098.867
 11  8 25 19 32  0.0000000  0  9G24G26G08G17G04G11G01G07G28
 116427996.322 7  90723209.75145  22155505.578                    22155517.285
 120689265.072 7  94043652.90144  22966410.438                    22966421.984
 106046660.600 8  82633811.03946  20180015.211                    20180025.086
 111080214.091 8  86556144.105 7  21137870.789                    21137880.609
 127957220.602 6  99707025.15143  24349454.141                    24349472.434
 118933627.862 7  92675601.27844  22632320.289                    22632330.324
 115215631.487 7  89778606.508 7  21924818.047                    21924830.945
 114301293.873 7  89065920.534 7  21750813.656                    21750824.148
 113293734.885 8  88280879.54546  21559074.875                    21559083.316
 11  8 25 19 32 30.0000000  0  9G24G26G08G17G04G11G01G07G28
 116464565.972 7  90751705.57145  22162464.555                    22162475.566
 120716982.855 7  94065251.10744  22971684.852                    22971696.699
 106079834.223 8  82659660.56746  20186327.914                    20186337.531
 111047058.313 8  86530308.453 7  21131561.305                    21131571.113
 127844215.727 6  99618969.71643  24327949.289                    24327968.938
 119010678.609 7  92735640.77644  22646982.781                    22646992.762
 115243846.015 7  89800591.856 7  21930187.086                    21930200.230
 114384855.020 7  89131033.029 7  21766714.805                    21766726.000
 113272672.194 8  88264467.06146  21555066.773                    21555075.273
 11  8 25 19 33  0.0000000  0  9G24G26G08G17G04G11G01G07G28
 116501682.368 7  90780627.43845  22169527.320                    22169538.371
 120745217.651 7  94087252.17144  22977057.688                    22977070.285
 106113593.404 8  82685966.37646  20192752.297                    20192762.371
 111014264.635 8  86504754.960 7  21125321.133                    21125330.656
 127731175.439 6  99530886.65843  24306438.734                    24306457.422
 119088135.250 7  92795996.55344  22661722.461                    22661732.270
 115272618.541 7  89823011.997 7  21935662.172                    21935675.398
 114468802.965 8  89196446.914 7  21782689.953                    21782700.992
 113251651.036 8  88248086.93846  21551066.133                    21551075.090
 11  8 25 19 33 30.0000000  0  9G24G26G08G17G04G11G01G07G28
 116539344.481 7  90809974.53045  22176694.414                    22176705.355
 120773967.594 7  94109654.64744  22982529.250                    22982541.105
 106147938.027 8  82712728.37246  20199287.641                    20199297.652
 110981833.091 7  86479483.652 7  21119149.492                    21119158.945
 127618102.287 6  99442778.00943  24284921.258                    24284939.895
 119165995.693 7  92856666.98944  22676538.438                    22676548.828
 115301948.579 7  89845866.558 7  21941243.484                    21941256.176
 114553135.934 8  89262160.818 7  21798738.063                    21798748.930
 113230672.127 8  88231739.73146  21547074.695                    21547082.887
 11  8 25 19 34  0.0000000  0  9G24G26G08G17G04G11G01G07G28
 116577551.375 7  90839746.12645  22183964.781                    22183975.660
 120803230.443 7  94132456.77744  22988097.789                    22988109.355
 106182867.882 8  82739946.39746  20205934.523                    20205944.715
 110949762.223 8  86454493.384 7  21113046.648                    21113056.234
 127504998.941 6  99354645.86843  24263397.844                    24263416.520
 119244257.206 7  92917649.92344  22691431.492                    22691441.340
 115331835.004 7  89869154.661 7  21946931.063                    21946943.863
 114637851.634 8  89328172.950 7  21814858.883                    21814869.301
 113209735.953 8  88215425.82246  21543090.391                    21543098.938
 11  8 25 19 34 30.0000000  0  9G24G26G08G17G04G11G01G07G28
 116616301.790 7  90869941.22745  22191338.898                    22191350.082
 120833003.704 7  94155656.65044  22993762.938                    22993775.289
 106218381.838 8  82767619.56146  20212692.914                    20212703.039
 110918051.576 8  86429783.819 7  21107012.195                    21107021.891
 127391867.525 6  99266491.86143  24241870.156                    24241888.348
 119322916.953 7  92978943.18944  22706399.977                    22706409.559
 115362276.808 7  89892875.522 7  21952723.656                    21952737.184
 114722947.990 7  89394481.713 7  21831052.273                    21831062.754
 113188842.751 8  88199145.40346  21539114.484                    21539123.191
 11  8 25 19 35  0.0000000  0  9G24G26G08G17G04G11G01G07G28
 116655594.355 7  90900558.79745  22198815.953                    22198826.984
 120863285.337 7  94179252.65444  22999525.281                    22999537.777
 106254479.608 8  82795747.64746  20219562.133                    20219572.277
 110886700.796 7  86405354.658 7  21101045.789                    21101055.930
 127278710.809 6  99178318.08643  24220336.617                    24220354.727
 119401972.686 7  93040545.01744  22721443.469                    22721452.805
 115393273.105 7  89917028.457 7  21958622.109                    21958635.199
 114808422.980 8  89461085.505 7  21847317.586                    21847328.746
 113167993.359 8  88182899.11946  21535146.766                    21535155.871
 11  8 25 19 35 30.0000000  0  9G24G26G08G17G04G11G01G07G28
 116695428.212 7  90931598.14845  22206396.180                    22206407.148
 120894073.440 7  94203243.31044  23005385.031                    23005396.504
 106291161.373 8  82824330.79346  20226542.109                    20226551.789
 110855708.939 7  86381205.172 7  21095148.625                    21095158.418
 127165531.510 6  99090126.72743  24198799.211                    24198817.105
 119481421.816 7  93102453.38644  22736562.117                    22736571.941
 115424822.997 7  89941612.769 7  21964625.891                    21964638.668
 114894274.676 7  89527982.828 7  21863654.344                    21863665.402
 113147188.344 8  88166687.41246  21531187.883                    21531196.664
 11  8 25 19 36  0.0000000  0  9G24G26G08G17G04G11G01G07G28
 116735802.281 7  90963058.44645  22214078.836                    22214090.324
 120925365.805 7  94227626.89944  23011339.383                    23011350.816
 106328426.708 8  82853368.67246  20233634.039                    20233643.844
 110825075.896 8  86357335.300 7  21089319.477                    21089329.188
 127052332.509 6  99001920.00443  24177257.422                    24177274.867
 119561262.170 7  93164666.58444  22751755.070                    22751765.234
 115456925.867 7  89966627.973 7  21970735.164                    21970748.180
 114980501.622 7  89595172.549 7  21880063.047                    21880074.266
 113126428.846 8  88150511.16246  21527237.547                    21527246.125
 11  8 25 19 36 30.0000000  0  9G24G26G08G17G04G11G01G07G28
 116776715.476 7  90994938.83045  22221864.617                    22221876.027
 120957160.404 7  94252401.84244  23017389.328                    23017401.738
 106366275.154 8  82882860.93346  20240835.883                    20240846.223
 110794801.091 8  86333744.557 7  21083558.328                    21083568.109
 126939116.514 6  98913700.02443  24155713.352                    24155729.992
 119641491.033 7  93227182.52944  22767023.063                    22767032.961
 115489580.536 7  89992073.154 7  21976948.508                    21976961.219
 115067101.508 7  89662652.876 7  21896542.531                    21896553.848
 113105715.331 8  88134370.74446  21523295.992                    21523304.258
 11  8 25 19 37  0.0000000  0  9G24G26G08G17G04G11G01G07G28
 116818166.619 7  91027238.40445  22229752.547                    22229763.695
 120989454.826 7  94277566.26344  23023535.023                    23023547.531
 106404706.394 8  82912807.30846  20248149.250                    20248159.770
 110764883.970 8  86310432.528 7  21077865.141                    21077875.004
 126825885.781 6  98825468.53043  24134165.516                    24134182.281
 119722106.489 7  93289999.71044  22782363.563                    22782373.207
 115522786.300 7  90017947.753 7  21983268.023                    21983280.535
 115154072.376 7  89730422.280 7  21913092.742                    21913104.051
 113085048.766 8  88118266.92346  21519363.211                    21519371.488
 11  8 25 19 37 30.0000000  0  9G24G26G08G17G04G11G01G07G28
 116860154.394 7  91059956.12145  22237742.250                    22237753.820
 121022247.093 7  94303118.61144  23029775.094                    23029787.184
 106443719.709 8  82943207.24946  20255573.477                    20255583.512
 110735323.783 8  86287398.635 7  21072240.000                    21072249.828
 126712642.975 6  98737227.69242  24112615.625                    24112633.262
 119803105.480 7  93353115.74144  22797777.133                    22797786.988
 115556542.004 7  90044250.870 7  21989691.328                    21989704.500
 115241412.070 7  89798479.081 7  21929712.930                    21929724.652
 113064429.743 8  88102200.13946  21515439.430                    21515448.105
 11  8 25 19 38  0.0000000  0  9G24G26G08G17G04G11G01G07G28
 116902677.962 7  91093091.33544  22245834.430                    22245845.414
 121055534.847 7  94329057.07444  23036110.242                    23036121.977
 106483315.203 8  82974060.84646  20263108.305                    20263118.348
 110706120.456 7  86264642.810 7  21066682.984                    21066692.816
 126599391.354 6  98648980.03043  24091065.086                    24091082.313
 119884485.979 7  93416529.07244  22813263.617                    22813272.941
 115590847.230 7  90070982.194 7  21996219.406                    21996232.320
 115329118.912 7  89866821.966 7  21946402.969                    21946414.387
 113043859.296 8  88086171.20746  21511525.031                    21511533.949
 11  8 25 19 38 30.0000000  0  9G24G26G08G17G04G11G01G07G28
 116945735.775 7  91126642.86445  22254028.172                    22254038.934
 121089315.875 7  94355379.88244  23042538.211                    23042550.195
 106523491.884 8  83005367.30646  20270753.484                    20270763.805
 110677273.026 7  86242164.312 7  21061193.602                    21061203.309
 126486133.210 6  98560727.23143  24069511.789                    24069529.973
 119966245.164 7  93480237.47444  22828821.320                    22828830.742
 115625700.303 7  90098140.412 7  22002851.883                    22002864.820
 115417190.657 7  89935449.182 7  21963162.781                    21963173.668
 113023337.923 8  88070180.51646  21507620.188                    21507628.773
 11  8 25 19 39  0.0000000  0  9G24G26G08G17G04G11G01G07G28
 116989326.911 7  91160609.95845  22262323.430                    22262334.109
 121123587.848 7  94382085.24844  23049059.922                    23049072.172
 106564249.685 8  83037126.58746  20278509.617                    20278519.492
 110648780.965 7  86219962.715 7  21055771.805                    21055781.336
 126372871.385 6  98472471.60143  24047958.969                    24047976.746
 120048380.638 7  93544239.10244  22844451.328                    22844460.895
 115661100.566 7  90125724.998 7  22009588.000                    22009600.477
 115505625.488 7  90004359.324 7  21979991.805                    21980002.816
 113002866.454 8  88054228.70746  21503724.313                    21503733.207
 11  8 25 19 39 30.0000000  0  9G24G26G08G17G04G11G01G07G28
 117033449.258 7  91194990.97545  22270719.188                    22270730.598
 121158348.396 7  94409171.31844  23055675.227                    23055686.574
 106605587.222 8  83069337.61446  20286375.781                    20286385.895
 110620643.029 8  86198037.066 7  21050416.914                    21050426.434
 126259608.176 6  98384214.83243  24026405.742                    24026422.258
 120130889.600 7  93608531.72744  22860152.195                    22860162.520
 115697047.020 7  90153735.199 7  22016428.859                    22016441.711
 115594420.642 7  90073550.243 7  21996888.781                    21996900.168
 112982445.200 8  88038316.03046  21499838.359                    21499847.230
 11  8 25 19 40  0.0000000  0  9G24G26G08G17G04G11G01G07G28
 117078101.840 7  91229785.16245  22279216.563                    22279228.410
 121193595.011 7  94436636.11344  23062382.195                    23062394.059
 106647503.612 8  83101999.68846  20294352.398                    20294362.500
 110592858.978 8  86176387.170 7  21045129.867                    21045139.422
 126146346.295 7  98295959.14043  24004852.313                    24004869.512
 120213769.299 7  93673113.24044  22875923.844                    22875934.059
 115733537.399 7  90182169.233 7  22023372.563                    22023385.398
 115683574.422 7  90143020.602 7  22013854.211                    22013865.121
 112962075.115 8  88022443.22846  21495962.023                    21495971.070
 11  8 25 19 40 30.0000000  0  9G24G26G08G17G04G11G01G07G28
 117123283.334 7  91264991.48645  22287814.453                    22287826.063
 121229325.594 7  94464478.04744  23069181.711                    23069193.602
 106689998.792 8  83135112.77146  20302438.867                    20302448.973
 110565427.818 8  86155012.257 7  21039909.914                    21039919.445
 126033088.256 6  98207706.41843  23983300.016                    23983316.836
 120297017.426 7  93737981.86644  22891765.891                    22891775.305
 115770571.144 7  90211026.666 7  22030419.766                    22030432.980
 115773084.501 7  90212768.606 7  22030887.586                    22030898.727
 112941756.861 7  88006610.82246  21492095.500                    21492104.559
 11  8 25 19 41  0.0000000  0  9G24G26G08G17G04G11G01G07G28
 117168993.139 7  91300609.48945  22296512.836                    22296524.555
 121265537.915 7  94492695.38644  23076072.039                    23076083.664
 106733072.862 8  83168676.92646  20310635.938                    20310645.875
 110538349.714 8  86133912.441 7  21034757.336                    21034766.699
 125919837.681 6  98119459.50843  23961748.766                    23961765.746
 120380631.914 7  93803135.96144  22907676.750                    22907686.973
 115808147.414 7  90240306.849 7  22037570.070                    22037583.738
 115862949.524 7  90282793.181 7  22047988.406                    22047999.793
 112921492.041 8  87990820.04146  21488239.031                    21488247.910
 11  8 25 19 41 30.0000000  0  9G24G26G08G17G04G11G01G07G28
 117215229.591 7  91336637.86345  22305311.008                    22305322.527
 121302230.077 6  94521286.59944  23083054.602                    23083066.859
 106776725.043 8  83202691.56346  20318942.563                    20318952.387
 110511624.021 8  86113087.236 7  21029671.563                    21029680.613
 125806596.946 6  98031220.24543  23940199.938                    23940216.570
 120464610.051 7  93868573.40244  22923657.531                    22923668.258
 115846266.072 7  90270009.677 7  22044824.469                    22044836.887
 115953167.031 7  90353092.417 7  22065156.742                    22065167.887
 112901281.273 8  87975071.38246  21484393.406                    21484402.172
 11  8 25 19 42  0.0000000  0  9G24G26G08G17G04G11G01G07G28
 117261990.915 7  91373075.22844  22314209.563                    22314221.230
 121339398.983 7  94550249.29444  23090127.695                    23090140.063
 106820953.920 8  83237155.56646  20327358.945                    20327368.996
 110485249.268 8  86092535.486 7  21024652.586                    21024661.703
 125693368.465 6  97942990.56543  23918653.055                    23918669.535
 120548949.279 7  93934292.21644  22939707.328                    22939716.723
 115884924.584 7  90300133.181 7  22052180.531                    22052193.156
 116043734.797 7  90423664.577 7  22082390.813                    22082402.359
 112881124.690 8  87959364.94946  21480558.102                    21480566.242
 11  8 25 19 42 30.0000000  0  9G24G26G08G17G04G11G01G07G28
 117309275.783 7  91409920.54844  22323207.883                    22323218.695
 121377042.229 7  94579581.61544  23097291.328                    23097303.043
 106865758.603 8  83272068.25746  20335885.023                    20335894.949
 110459224.738 8  86072256.649 7  21019700.305                    21019709.504
 125580154.755 6  97854772.34043  23897108.594                    23897125.477
 120633646.603 7  94000290.06044  22955824.336                    22955834.332
 115924121.774 7  90330676.433 7  22059639.328                    22059652.133
 116134650.360 7  90494507.765 7  22099691.625                    22099702.539
 112861023.479 8  87943701.65146  21476732.461                    21476741.102
 11  8 25 19 43  0.0000000  0  9G24G26G08G17G04G11G01G07G28
 117357083.016 7  91447172.89445  22332305.203                    22332316.434
 121415157.866 7  94609282.03844  23104544.719                    23104556.820
 106911139.354 8  83307429.83146  20344520.773                    20344530.652
 110433550.345 8  86052250.650 7  21014814.195                    21014823.754
 125466959.270 6  97766568.36043  23875568.031                    23875584.797
 120718699.752 7  94066565.20844  22972009.328                    22972019.109
 115963857.669 7  90361639.438 7  22067201.234                    22067214.395
 116225912.185 7  90565620.769 7  22117058.211                    22117069.840
 112840978.878 8  87928082.47746  21472918.453                    21472927.063
 11  8 25 19 43 30.0000000  0  9G24G26G08G17G04G11G01G07G28
 117405411.129 7  91484831.12145  22341501.539                    22341512.320
 121453743.241 7  94639348.48244  23111886.891                    23111898.887
 106957094.584 8  83343239.05146  20353265.695                    20353275.547
 110408225.392 8  86032516.919 7  21009995.242                    21010004.777
 125353784.284 6  97678380.34143  23854031.063                    23854047.906
 120804106.187 7  94133115.60344  22988261.609                    22988271.359
 116004129.726 7  90393020.246 7  22074864.992                    22074877.477
 116317518.106 7  90637001.872 7  22134490.328                    22134501.480
 112820991.226 8  87912507.68546  21469114.578                    21469123.496
